[[{"header":{"parameterUnit":"m.s-1","parameterCategory":1,"la1":31.0,"la2":29.5877,"lo1":-88.7671,"lo2":-86.6584,"dx":0.0162,"dy":0.0185,"nx":115,"ny":88,"refTime":"2023-02-03T06:00:00:Z","depth":0,"parameterNumber":2,"parameterNumberName":"U-component_of_WINDS"},"data":[0.0,0.0,0.0,0.0,0.0,0.0,0.0,0.0,0.0,0.0,0.0,0.0,0.0,0.0,0.0,0.0,0.0,0.0,0.0,0.0,0.0,0.0,0.0,0.0,0.0,0.0,0.0,0.0,0.0,0.0,0.0,0.0,0.0,0.0,0.0,0.0,0.0,0.0,0.0,0.0,0.0,0.0,0.0,0.0,0.0,0.0,0.0,0.0,0.0,0.0,0.0,0.0,0.0,0.0,0.0,0.0,0.0,0.0,0.0,0.0,0.0,0.0,0.0,0.0,0.0,0.0,0.0,0.0,0.0,0.0,0.0,0.0,0.0,0.0,0.0,0.0,0.0,0.0,0.0,0.0,0.0,0.0,0.0,0.0,0.0,0.0,0.0,0.0,0.0,0.0,0.0,0.0,0.0,0.0,0.0,0.0,0.0,0.0,0.0,0.0,0.0,0.0,0.0,0.0,0.0,0.0,0.0,0.0,0.0,0.0,0.0,0.0,0.0,0.0,0.0,0.0,0.0,0.0,0.0,0.0,0.0,0.0,0.0,0.0,0.0,0.0,0.0,0.0,0.0,0.0,0.0,0.0,0.0,0.0,0.0,0.0,0.0,0.0,0.0,0.0,0.0,0.0,0.0,0.0,0.0,0.0,0.0,0.0,0.0,0.0,0.0,0.0,0.0,0.0,0.0,0.0,0.0,0.0,0.0,0.0,0.0,0.0,0.0,0.0,0.0,0.0,0.0,0.0,0.0,0.0,0.0,0.0,0.0,0.0,0.0,0.0,0.0,0.0,0.0,0.0,0.0,0.0,0.0,0.0,0.0,0.0,0.0,0.0,0.0,0.0,0.0,0.0,0.0,0.0,0.0,0.0,0.0,0.0,0.0,0.0,0.0,0.0,0.0,0.0,0.0,0.0,0.0,0.0,0.0,0.0,0.0,0.0,0.0,0.0,0.0,0.0,0.0,0.0,0.0,0.0,0.0,0.0,0.0,0.0,0.0,0.0,0.0,0.0,0.0,0.0,0.0,0.0,0.0,0.0,0.0,0.0,0.0,0.0,0.0,0.0,0.0,0.0,0.0,0.0,0.0,0.0,0.0,0.0,0.0,0.0,0.0,0.0,0.0,0.0,0.0,0.0,0.0,0.0,0.0,0.0,0.0,0.0,0.0,0.0,0.0,0.0,0.0,0.0,0.0,0.0,0.0,0.0,0.0,0.0,0.0,0.0,0.0,0.0,0.0,0.0,0.0,0.0,0.0,0.0,0.0,0.0,0.0,0.0,0.0,0.0,0.0,0.0,0.0,0.0,0.0,0.0,0.0,0.0,0.0,0.0,0.0,0.0,0.0,0.0,0.0,0.0,0.0,0.0,0.0,0.0,0.0,0.0,0.0,0.0,0.0,0.0,0.0,0.0,0.0,0.0,0.0,0.0,0.0,0.0,0.0,0.0,0.0,0.0,0.0,0.0,0.0,0.0,0.0,0.0,0.0,0.0,0.0,0.0,0.0,0.0,0.0,0.0,0.0,0.0,0.0,0.0,0.0,0.0,0.0,0.0,0.0,0.0,0.0,0.0,0.0,0.0,0.0,0.0,0.0,0.0,0.0,0.0,0.0,0.0,0.0,0.0,0.0,0.0,0.0,0.0,0.0,0.0,0.0,0.0,0.0,0.0,0.0,0.0,0.0,0.0,0.0,0.0,0.0,0.0,0.0,0.0,0.0,0.0,0.0,0.0,0.0,0.0,0.0,0.0,0.0,0.0,0.0,0.0,0.0,0.0,0.0,0.0,0.0,0.0,0.0,0.0,0.0,0.0,0.0,0.0,0.0,0.0,0.0,0.0,0.0,0.0,0.0,0.0,0.0,0.0,0.0,0.0,0.0,0.0,0.0,0.0,0.0,0.0,0.0,0.0,0.0,0.0,0.0,0.0,0.0,0.0,0.0,0.0,0.0,0.0,0.0,0.0,0.0,0.0,0.0,0.0,0.0,0.0,0.0,0.0,0.0,0.0,0.0,0.0,0.0,0.0,0.0,0.0,0.0,0.0,0.0,0.0,0.0,0.0,0.0,0.0,0.0,0.0,0.0,0.0,0.0,0.0,0.0,0.0,0.0,0.0,0.0,0.0,0.0,0.0,0.0,0.0,0.0,0.0,0.0,0.0,0.0,0.0,0.0,0.0,0.0,0.0,0.0,0.0,0.0,0.0,0.0,0.0,0.0,0.0,0.0,0.0,0.0,0.0,0.0,0.0,0.0,0.0,0.0,0.0,0.0,0.0,0.0,0.0,0.0,0.0,0.0,0.0,0.0,0.0,0.0,0.0,0.0,0.0,0.0,0.0,0.0,0.0,0.0,0.0,0.0,0.0,0.0,0.0,0.0,0.0,0.0,0.0,0.0,0.0,0.0,0.0,0.0,0.0,0.0,0.0,0.0,0.0,0.0,0.0,0.0,0.0,0.0,0.0,0.0,0.0,0.0,0.0,0.0,0.0,0.0,0.0,0.0,0.0,0.0,0.0,0.0,0.0,0.0,0.0,0.0,0.0,0.0,0.0,0.0,0.0,0.0,0.0,0.0,0.0,0.0,0.0,0.0,0.0,0.0,0.0,0.0,0.0,0.0,0.0,0.0,0.0,0.0,0.0,0.0,0.0,0.0,0.0,0.0,0.0,0.0,0.0,0.0,0.0,0.0,0.0,0.0,0.0,0.0,0.0,0.0,0.0,0.0,0.0,0.0,0.0,0.0,0.0,0.0,0.0,0.0,0.0,0.0,0.0,0.0,0.0,0.0,0.0,0.0,0.0,0.0,0.0,0.0,0.0,0.0,0.0,0.0,0.0,0.0,0.0,0.0,0.0,0.0,0.0,0.0,0.0,0.0,0.0,0.0,0.0,0.0,0.0,0.0,0.0,0.0,0.0,0.0,0.0,0.0,0.0,0.0,0.0,0.0,0.0,0.0,0.0,0.0,0.0,0.0,0.0,0.0,0.0,0.0,0.0,0.0,0.0,0.0,0.0,0.0,0.0,0.0,0.0,0.0,0.0,0.0,0.0,0.0,0.0,0.0,0.0,0.0,0.0,0.0,0.0,0.0,0.0,0.0,0.0,0.0,0.0,0.0,0.0,0.0,0.0,0.0,0.0,0.0,0.0,0.0,0.0,0.0,0.0,0.0,0.0,0.0,0.0,0.0,0.0,0.0,0.0,0.0,0.0,0.0,0.0,0.0,0.0,0.0,0.0,0.0,0.0,0.0,0.0,0.0,0.0,0.0,0.0,0.0,0.0,0.0,0.0,0.0,0.0,0.0,0.0,0.0,0.0,0.0,0.0,0.0,0.0,0.0,0.0,0.0,0.0,0.0,0.0,0.0,0.0,0.0,0.0,0.0,0.0,0.0,0.0,0.0,0.0,0.0,0.0,0.0,0.0,0.0,0.0,0.0,0.0,0.0,0.0,0.0,0.0,0.0,0.0,0.0,0.0,0.0,0.0,0.0,0.0,0.0,0.0,0.0,0.0,0.0,0.0,0.0,0.0,0.0,0.0,0.0,0.0,0.0,0.0,0.0,0.0,0.0,0.0,0.0,0.0,0.0,0.0,0.0,0.0,0.0,0.0,0.0,0.0,0.0,0.0,0.0,0.0,0.0,0.0,0.0,0.0,0.0,0.0,0.0,0.0,0.0,0.0,0.0,0.0,0.0,0.0,0.0,0.0,0.0,0.0,0.0,0.0,0.0,0.0,0.0,0.0,0.0,0.0,0.0,0.0,0.0,0.0,0.0,0.0,0.0,0.0,0.0,0.0,0.0,0.0,0.0,0.0,0.0,0.0,0.0,0.0,0.0,0.0,0.0,0.0,0.0,0.0,0.0,0.0,0.0,0.0,0.0,0.0,0.0,0.0,0.0,0.0,0.0,0.0,0.0,0.0,0.0,0.0,0.0,0.0,0.0,0.0,0.0,0.0,0.0,0.0,0.0,0.0,0.0,0.0,0.0,0.0,0.0,0.0,0.0,0.0,0.0,0.0,0.0,0.0,0.0,0.0,0.0,0.0,0.0,0.0,0.0,0.0,0.0,0.0,0.0,0.0,0.0,0.0,0.0,0.0,0.0,0.0,0.0,0.0,0.0,0.0,0.0,0.0,0.0,0.0,0.0,0.0,0.0,0.0,0.0,0.0,0.0,0.0,0.0,0.0,0.0,0.0,0.0,0.0,0.0,0.0,0.0,0.0,0.0,0.0,0.0,0.0,0.0,0.0,0.0,0.0,0.0,0.0,0.0,0.0,0.0,0.0,0.0,0.0,-0.2437,0.0,0.0,0.0,0.0,0.0,0.0,0.0,0.0,0.0,0.0,0.0,0.0,0.0,0.0,0.0,0.0,0.0,0.0,0.0,0.0,0.0,0.0,0.0,0.0,0.0,0.0,0.0,0.0,0.0,0.0,0.0,0.0,0.0,0.0,0.0,0.0,0.0,0.0,0.0,0.0,0.0,0.0,0.0,0.0,0.0,0.0,0.0,0.0,0.0,0.0,0.0,0.0,0.0,0.0,0.0,0.0,0.0,0.0,0.0,0.0,0.0,0.0,0.0,0.0,0.0,0.0,0.0,0.0,0.0,0.0,0.0,0.0,0.0,0.0,0.0,0.0,0.0,0.0,0.0,0.0,0.0,0.0,0.0,0.0,0.0,0.0,0.0,0.0,0.0,0.0,0.0,0.0,0.0,0.0,0.0,0.0,0.0,0.0,0.0,0.0,0.0,0.0,0.0,0.0,0.0,0.0,0.0,0.0,0.0,0.0,-0.2117,-0.2202,-0.2196,-0.2321,-0.2593,0.0,0.0,0.0,0.0,0.0,0.0,0.0,0.0,0.0,0.0,0.0,0.0,0.0,0.0,0.0,0.0,0.0,0.0,0.0,0.0,0.0,0.0,0.0,0.0,0.0,0.0,0.0,0.0,0.0,0.0,0.0,0.0,0.0,0.0,0.0,0.0,0.0,0.0,0.0,0.0,0.0,0.0,0.0,0.0,0.0,0.0,0.0,0.0,0.0,0.0,0.0,0.0,0.0,0.0,0.0,0.0,0.0,0.0,0.0,0.0,0.0,0.0,0.0,0.0,0.0,0.0,0.0,0.0,0.0,0.0,0.0,0.0,0.0,0.0,0.0,0.0,0.0,0.0,0.0,0.0,0.0,0.0,0.0,0.0,0.0,0.0,0.0,0.0,0.0,0.0,0.0,0.0,0.0,0.0,0.0,0.0,0.0,0.0,0.0,0.0,0.0,0.0,0.0,0.0,0.0,0.0,0.0,0.0,0.0,0.0,0.0,0.0,-0.2243,-0.2368,-0.2718,0.0,0.0,0.0,0.0,0.0,0.0,0.0,0.0,0.0,0.0,0.0,0.0,0.0,0.0,0.0,0.0,0.0,0.0,0.0,0.0,0.0,0.0,0.0,0.0,0.0,0.0,0.0,0.0,0.0,0.0,0.0,0.0,0.0,0.0,0.0,0.0,0.0,0.0,0.0,0.0,0.0,0.0,0.0,0.0,0.0,0.0,0.0,0.0,0.0,0.0,0.0,0.0,0.0,0.0,0.0,0.0,0.0,0.0,0.0,0.0,0.0,0.0,0.0,0.0,0.0,0.0,0.0,0.0,0.0,0.0,0.0,0.0,0.0,0.0,0.0,0.0,0.0,0.0,0.0,0.0,0.0,0.0,0.0,0.0,0.0,0.0,0.0,0.0,0.0,0.0,0.0,0.0,0.0,0.0,0.0,0.0,0.0,0.0,0.0,0.0,0.0,0.0,0.0,0.0,0.0,0.0,0.0,0.0,0.0,0.0,-0.2343,-0.2484,-0.2464,0.0,-0.2865,0.0,0.0,0.0,0.0,0.0,0.0,0.0,0.0,0.0,0.0,0.0,0.0,0.0,0.0,0.0,0.0,0.0,0.0,0.0,0.0,0.0,0.0,0.0,0.0,0.0,0.0,0.0,0.0,0.0,0.0,0.0,0.0,0.0,0.0,0.0,0.0,0.0,0.0,0.0,0.0,0.0,0.0,0.0,0.0,0.0,0.0,0.0,0.0,0.0,0.0,0.0,0.0,0.0,0.0,0.0,0.0,0.0,0.0,0.0,0.0,0.0,0.0,0.0,0.0,0.0,0.0,0.0,0.0,0.0,0.0,0.0,0.0,0.0,0.0,0.0,0.0,0.0,0.0,0.0,0.0,0.0,0.0,0.0,0.0,0.0,0.0,0.0,0.0,0.0,0.0,0.0,0.0,0.0,0.0,0.0,0.0,0.0,0.0,0.0,0.0,0.0,0.0,0.0,0.0,0.0,0.0,0.0,0.0,0.0,0.0,-0.2359,-0.2501,-0.2571,-0.2712,0.0,0.0,0.0,0.0,0.0,0.0,0.0,0.0,0.0,0.0,0.0,0.0,0.0,0.0,0.0,0.0,0.0,0.0,0.0,0.0,0.0,0.0,0.0,0.0,0.0,0.0,0.0,0.0,0.0,0.0,0.0,0.0,0.0,0.0,0.0,0.0,0.0,0.0,0.0,0.0,0.0,0.0,0.0,0.0,0.0,0.0,0.0,0.0,0.0,0.0,0.0,0.0,0.0,0.0,0.0,0.0,0.0,0.0,0.0,0.0,0.0,0.0,0.0,0.0,0.0,0.0,0.0,0.0,0.0,0.0,0.0,0.0,0.0,0.0,0.0,0.0,0.0,0.0,0.0,0.0,0.0,0.0,0.0,0.0,0.0,0.0,0.0,0.0,0.0,0.0,0.0,0.0,0.0,0.0,0.0,0.0,0.0,0.0,0.0,0.0,0.0,0.0,0.0,0.0,0.0,0.0,0.0,0.0,0.0,0.0,-0.237,-0.241,-0.251,-0.2684,-0.2805,-0.2898,0.0,0.0,0.0,0.0,0.0,0.0,0.0,0.0,0.0,0.0,0.0,0.0,0.0,0.0,0.0,0.0,0.0,0.0,0.0,0.0,0.0,0.0,0.0,0.0,0.0,0.0,0.0,0.0,0.0,0.0,0.0,0.0,0.0,0.0,0.0,0.0,0.0,0.0,0.0,0.0,0.0,0.0,0.0,0.0,0.0,0.0,0.0,0.0,0.0,0.0,0.0,0.0,0.0,0.0,0.0,0.0,0.0,0.0,0.0,0.0,0.0,0.0,0.0,0.0,0.0,0.0,0.0,0.0,0.0,0.0,0.0,0.0,0.0,0.0,0.0,0.0,0.0,0.0,0.0,0.0,0.0,0.0,0.0,0.0,0.0,0.0,0.0,0.0,0.0,0.0,0.0,0.0,0.0,0.0,0.0,0.0,0.0,0.0,0.0,0.0,0.0,0.0,0.0,0.0,0.0,0.0,0.0,0.0,-0.2654,-0.2545,-0.2486,-0.2506,-0.2798,-0.2954,0.0,0.0,0.0,0.0,0.0,0.0,0.0,0.0,0.0,0.0,0.0,0.0,0.0,0.0,0.0,0.0,0.0,0.0,0.0,0.0,0.0,0.0,0.0,0.0,0.0,0.0,0.0,0.0,0.0,0.0,0.0,0.0,0.0,0.0,0.0,0.0,0.0,0.0,0.0,0.0,0.0,0.0,0.0,0.0,0.0,0.0,0.0,0.0,0.0,0.0,0.0,0.0,0.0,0.0,0.0,0.0,0.0,0.0,0.0,0.0,0.0,0.0,0.0,0.0,0.0,0.0,0.0,0.0,0.0,0.0,0.0,0.0,0.0,0.0,0.0,0.0,0.0,0.0,0.0,0.0,0.0,0.0,0.0,0.0,0.0,0.0,0.0,0.0,0.0,0.0,0.0,0.0,0.0,0.0,0.0,0.0,0.0,0.0,0.0,0.0,0.0,0.0,0.0,0.0,0.0,0.0,0.0,0.0,0.0,-0.231,-0.2601,-0.2682,-0.2512,-0.2823,-0.2937,0.0,0.0,0.0,0.0,0.0,0.0,0.0,0.0,0.0,0.0,0.0,0.0,0.0,0.0,0.0,0.0,0.0,0.0,0.0,0.0,0.0,0.0,0.0,0.0,0.0,0.0,0.0,0.0,0.0,0.0,0.0,0.0,0.0,0.0,0.0,0.0,0.0,0.0,0.0,0.0,0.0,0.0,0.0,0.0,0.0,0.0,0.0,0.0,0.0,0.0,0.0,0.0,0.0,0.0,0.0,0.0,0.0,0.0,0.0,0.0,0.0,0.0,0.0,0.0,0.0,0.0,0.0,0.0,0.0,0.0,0.0,0.0,0.0,0.0,0.0,0.0,0.0,0.0,0.0,0.0,0.0,0.0,0.0,0.0,0.0,0.0,0.0,0.0,0.0,0.0,0.0,0.0,0.0,0.0,0.0,0.0,0.0,0.0,0.0,0.0,0.0,0.0,0.0,0.0,0.0,0.0,0.0,0.0,0.0,-0.2243,0.0,-0.2682,-0.2516,-0.2797,-0.2891,0.0,0.0,0.0,0.0,0.0,0.0,0.0,0.0,0.0,0.0,0.0,0.0,0.0,0.0,0.0,0.0,0.0,0.0,0.0,0.0,0.0,0.0,0.0,0.0,0.0,0.0,0.0,0.0,0.0,0.0,0.0,0.0,0.0,0.0,0.0,0.0,0.0,0.0,0.0,0.0,0.0,0.0,0.0,0.0,0.0,0.0,0.0,0.0,0.0,0.0,0.0,0.0,0.0,0.0,0.0,0.0,0.0,0.0,0.0,0.0,0.0,0.0,0.0,0.0,0.0,0.0,0.0,0.0,0.0,0.0,0.0,0.0,0.0,0.0,0.0,0.0,0.0,0.0,0.0,0.0,0.0,0.0,0.0,0.0,0.0,0.0,0.0,0.0,0.0,0.0,0.0,0.0,0.0,0.0,0.0,0.0,0.0,0.0,0.0,0.0,0.0,0.0,0.0,0.0,0.0,0.0,0.0,0.0,-0.2045,-0.2474,-0.2477,-0.2487,-0.2506,-0.2748,-0.2905,0.0,0.0,0.0,0.0,0.0,0.0,0.0,0.0,0.0,0.0,0.0,0.0,0.0,0.0,0.0,0.0,0.0,0.0,0.0,0.0,0.0,0.0,0.0,0.0,0.0,0.0,0.0,0.0,0.0,0.0,0.0,0.0,0.0,0.0,0.0,0.0,0.0,0.0,0.0,0.0,0.0,0.0,0.0,0.0,0.0,0.0,0.0,0.0,0.0,0.0,0.0,0.0,0.0,0.0,0.0,0.0,0.0,0.0,0.0,0.0,0.0,0.0,0.0,0.0,0.0,0.0,0.0,0.0,0.0,0.0,0.0,0.0,0.0,0.0,0.0,0.0,0.0,0.0,0.0,0.0,0.0,0.0,0.0,0.0,0.0,0.0,0.0,0.0,0.0,0.0,0.0,0.0,0.0,0.0,0.0,0.0,0.0,0.0,0.0,0.0,0.0,0.0,0.0,0.0,0.0,0.0,0.0,0.0,0.0,-0.2938,-0.2258,-0.2178,-0.274,-0.277,-0.2799,0.0,0.0,0.0,0.0,0.0,0.0,0.0,0.0,0.0,0.0,0.0,0.0,0.0,0.0,0.0,0.0,0.0,0.0,0.0,0.0,0.0,0.0,0.0,0.0,0.0,0.0,0.0,0.0,0.0,0.0,0.0,0.0,0.0,0.0,0.0,0.0,0.0,0.0,0.0,0.0,0.0,0.0,0.0,0.0,0.0,0.0,0.0,0.0,0.0,0.0,0.0,0.0,0.0,0.0,0.0,0.0,0.0,0.0,0.0,0.0,0.0,0.0,0.0,0.0,0.0,0.0,0.0,0.0,0.0,0.0,0.0,0.0,0.0,0.0,0.0,0.0,0.0,0.0,0.0,0.0,0.0,0.0,0.0,0.0,0.0,0.0,0.0,0.0,0.0,0.0,0.0,0.0,0.0,0.0,0.0,0.0,0.0,0.0,0.0,0.0,0.0,0.0,0.0,0.0,0.0,0.0,0.0,0.0,0.0,-0.3255,-0.2389,-0.2202,-0.2793,-0.2932,-0.2831,-0.2491,0.0,0.0,0.0,0.0,0.0,0.0,0.0,0.0,0.0,0.0,0.0,0.0,0.0,0.0,0.0,0.0,0.0,0.0,0.0,0.0,0.0,0.0,0.0,0.0,0.0,0.0,0.0,0.0,0.0,0.0,0.0,0.0,0.0,0.0,0.0,0.0,0.0,0.0,0.0,0.0,0.0,0.0,0.0,0.0,0.0,0.0,0.0,0.0,0.0,0.0,0.0,0.0,0.0,0.0,0.0,0.0,0.0,0.0,0.0,0.0,0.0,0.0,0.0,0.0,0.0,0.0,0.0,0.0,0.0,0.0,0.0,0.0,0.0,0.0,0.0,0.0,0.0,0.0,0.0,0.0,0.0,0.0,0.0,0.0,0.0,0.0,0.0,0.0,0.0,0.0,0.0,0.0,0.0,0.0,0.0,0.0,0.0,0.0,0.0,0.0,0.0,0.0,0.0,0.0,0.0,0.0,0.0,0.0,-0.351,-0.2852,-0.2605,-0.281,-0.3217,-0.2951,0.0,0.0,0.0,0.0,0.0,0.0,0.0,0.0,0.0,0.0,0.0,0.0,0.0,0.0,0.0,0.0,0.0,0.0,0.0,0.0,0.0,0.0,0.0,0.0,0.0,0.0,0.0,0.0,0.0,0.0,0.0,0.0,0.0,0.0,0.0,0.0,0.0,0.0,0.0,0.0,0.0,0.0,0.0,0.0,0.0,0.0,0.0,0.0,0.0,0.0,0.0,0.0,0.0,0.0,0.0,0.0,0.0,0.0,0.0,0.0,0.0,0.0,0.0,0.0,0.0,0.0,0.0,0.0,0.0,0.0,0.0,0.0,0.0,0.0,0.0,0.0,0.0,0.0,0.0,0.0,0.0,0.0,0.0,0.0,0.0,0.0,0.0,0.0,0.0,0.0,0.0,0.0,0.0,0.0,0.0,0.0,0.0,0.0,0.0,0.0,0.0,0.0,0.0,0.0,0.0,0.0,0.0,0.0,0.0,-0.3771,-0.3757,-0.3827,-0.4007,-0.3206,-0.2789,0.0,0.0,0.0,0.0,0.0,0.0,0.0,0.0,0.0,0.0,0.0,0.0,0.0,0.0,0.0,0.0,0.0,0.0,0.0,0.0,0.0,0.0,0.0,0.0,0.0,0.0,0.0,0.0,0.0,0.0,0.0,0.0,0.0,0.0,0.0,0.0,0.0,0.0,0.0,0.0,0.0,0.0,0.0,0.0,0.0,0.0,0.0,0.0,0.0,0.0,0.0,0.0,0.0,0.0,0.0,0.0,0.0,0.0,0.0,0.0,0.0,0.0,0.0,0.0,0.0,0.0,0.0,0.0,0.0,0.0,0.0,0.0,0.0,0.0,0.0,0.0,0.0,0.0,0.0,0.0,0.0,0.0,0.0,0.0,0.0,0.0,0.0,0.0,0.0,0.0,0.0,0.0,0.0,0.0,0.0,0.0,0.0,0.0,0.0,0.0,0.0,0.0,0.0,0.0,0.0,0.0,0.0,0.0,-0.3315,-0.3729,-0.4465,-0.4948,-0.5129,-0.3765,-0.2943,0.0,0.0,0.0,0.0,0.0,0.0,0.0,0.0,0.0,0.0,0.0,0.0,0.0,0.0,0.0,0.0,0.0,0.0,0.0,0.0,0.0,0.0,0.0,0.0,0.0,0.0,0.0,0.0,0.0,0.0,0.0,0.0,0.0,0.0,0.0,0.0,0.0,0.0,0.0,0.0,0.0,0.0,0.0,0.0,0.0,0.0,0.0,0.0,0.0,0.0,0.0,0.0,0.0,0.0,0.0,0.0,0.0,0.0,0.0,0.0,0.0,0.0,0.0,0.0,0.0,0.0,0.0,0.0,0.0,0.0,0.0,0.0,0.0,0.0,0.0,0.0,0.0,0.0,0.0,0.0,0.0,0.0,0.0,0.0,0.0,0.0,0.0,0.0,0.0,0.0,0.0,0.0,0.0,0.0,0.0,0.0,0.0,0.0,0.0,0.0,0.0,0.0,0.0,0.0,0.0,0.0,0.0,0.0,-0.3473,-0.365,-0.506,-0.5883,-0.5968,-0.452,-0.3243,0.0,0.0,0.0,0.0,0.0,0.0,0.0,0.0,0.0,0.0,0.0,0.0,0.0,0.0,0.0,0.0,0.0,0.0,0.0,0.0,0.0,0.0,0.0,0.0,0.0,0.0,0.0,0.0,0.0,0.0,0.0,0.0,0.0,0.0,0.0,0.0,0.0,0.0,0.0,0.0,0.0,0.0,0.0,0.0,0.0,0.0,0.0,0.0,0.0,0.0,0.0,0.0,0.0,0.0,0.0,0.0,0.0,0.0,0.0,0.0,0.0,0.0,0.0,0.0,0.0,0.0,0.0,0.0,0.0,0.0,0.0,0.0,0.0,0.0,0.0,0.0,0.0,0.0,0.0,0.0,0.0,0.0,0.0,0.0,0.0,0.0,0.0,0.0,0.0,0.0,0.0,0.0,0.0,0.0,0.0,0.0,0.0,0.0,0.0,0.0,0.0,0.0,0.0,0.0,0.0,0.0,0.0,0.0,-0.3765,-0.4503,-0.5466,-0.6057,-0.6219,-0.4202,-0.303,0.0,0.0,0.0,0.0,0.0,0.0,0.0,0.0,0.0,0.0,0.0,0.0,0.0,0.0,0.0,0.0,0.0,0.0,0.0,0.0,0.0,0.0,0.0,0.0,0.0,0.0,0.0,0.0,0.0,0.0,0.0,0.0,0.0,0.0,0.0,0.0,0.0,0.0,0.0,0.0,0.0,0.0,0.0,0.0,0.0,0.0,0.0,0.0,0.5652,0.0,0.0,0.0,0.0,0.0,0.0,0.0,0.0,0.0,0.0,0.0,0.0,0.0,0.0,0.0,0.0,0.0,0.0,0.0,0.0,0.0,0.0,0.0,0.0,0.0,0.0,0.0,0.0,0.0,0.0,0.0,0.0,0.0,0.0,0.0,0.0,0.0,0.0,0.0,0.0,0.0,0.0,0.0,0.0,0.0,0.0,0.0,0.0,0.0,0.0,0.0,0.0,0.0,0.0,0.0,0.0,0.0,0.0,0.0,-0.388,-0.4838,-0.553,-0.5978,-0.6074,-0.4439,-0.3426,0.0,0.0,0.0,0.0,0.0,0.0,0.0,0.0,0.0,0.0,0.0,0.0,0.0,0.0,0.0,0.0,0.0,0.0,0.0,0.0,0.0,0.0,0.0,0.0,0.0,0.0,0.0,0.0,0.0,0.0,0.0,0.0,0.0,0.0,0.0,0.0,0.0,0.0,0.0,0.0,0.0,0.0,0.0,0.0,0.0,0.0,0.0,0.0,0.0,0.0,0.0,0.0,0.0,0.0,0.0,0.0,0.0,0.0,0.0,0.0,0.0,0.0,0.0,0.0,0.0,0.0,0.0,0.0,0.0,0.0,0.0,0.0,0.0,0.0,0.0,0.0,0.0,0.0,0.0,0.0,0.0,0.0,0.0,0.0,0.0,0.0,0.0,0.0,0.0,0.0,0.0,0.0,0.0,0.0,0.0,0.0,0.0,0.0,0.0,0.0,0.0,0.0,0.0,0.0,0.0,0.0,0.0,-0.3022,-0.3925,-0.5068,-0.5576,-0.589,-0.6013,-0.488,-0.3953,-0.3359,0.0,0.0,0.0,0.0,0.0,0.0,0.0,0.0,0.0,0.0,0.0,0.0,0.0,0.0,0.0,0.0,0.0,0.0,0.0,0.0,0.0,0.0,0.0,0.0,0.0,0.0,0.0,0.0,0.0,0.0,0.0,0.0,0.0,0.0,0.0,0.0,0.0,0.0,0.4287,0.4559,0.0,0.0,0.0,0.0,0.0,0.0,0.0,0.0,0.6682,0.0,0.0,0.0,0.0,0.0,0.0,0.0,0.0,0.0,0.0,0.0,0.0,0.0,0.0,0.0,0.0,0.0,0.0,0.0,0.0,0.0,0.0,0.0,0.0,0.0,0.0,0.0,0.0,0.0,0.0,0.0,0.0,0.0,0.0,0.0,0.0,0.0,0.0,0.0,0.0,0.0,0.0,0.0,0.0,0.0,0.0,0.0,0.0,0.0,0.0,0.0,0.0,0.0,0.0,0.0,0.0,-0.3102,-0.3135,-0.4091,-0.6007,-0.6001,-0.6045,-0.6219,-0.5078,-0.4052,-0.3172,0.0,0.0,0.0,0.0,0.0,0.0,0.0,0.0,0.0,0.0,0.0,0.0,0.0,0.0,0.0,0.0,0.0,0.0,0.0,0.0,0.0,0.0,0.0,0.0,0.0,0.0,0.0,0.0,0.0,0.0,0.0,0.0,0.0,0.0,0.0,0.0,0.0,0.0,0.0,0.4984,0.5186,0.0,0.0,0.0,0.0,0.0,0.0,0.0,0.0,0.6383,0.0,0.0,0.0,0.0,0.0,0.0,0.0,0.0,0.0,0.0,0.0,0.0,0.0,0.0,0.0,0.0,0.0,0.0,0.0,0.0,0.0,0.0,0.0,0.0,0.0,0.0,0.0,0.0,0.0,0.0,0.0,0.0,0.0,0.0,0.0,0.0,0.0,0.0,0.0,0.0,0.0,0.0,0.0,0.0,0.0,0.0,0.0,0.0,0.0,0.0,0.0,0.0,0.0,0.0,0.0,-0.327,-0.3528,-0.4423,-0.6015,-0.5821,-0.5726,-0.5809,-0.4856,-0.386,0.0,0.0,0.0,0.0,0.0,0.0,0.0,0.0,0.0,0.0,0.0,0.0,0.0,0.0,0.0,0.0,0.0,0.0,0.0,0.0,0.0,0.0,0.0,0.0,0.0,0.0,0.0,0.0,0.0,0.0,0.0,0.0,0.0,0.0,0.0,0.0,0.0,0.0,0.0,0.0,0.5292,0.5464,0.5585,0.0,0.0,0.0,0.0,0.0,0.0,0.6513,0.6795,0.0,0.0,0.0,0.0,0.0,0.0,0.0,0.0,0.0,0.0,0.0,0.0,0.0,0.0,0.0,0.0,0.0,0.0,0.0,0.0,0.0,0.0,0.0,0.0,0.0,0.0,0.0,0.0,0.0,0.0,0.0,0.0,0.0,0.0,0.0,0.0,0.0,0.0,0.0,0.0,0.0,0.0,0.0,0.0,0.0,0.0,0.0,0.0,0.0,0.0,0.0,0.0,0.0,0.0,0.0,-0.3242,-0.3825,-0.4651,-0.5764,-0.5538,-0.5407,-0.5425,-0.442,-0.3485,0.0,0.0,0.0,0.0,0.0,0.0,0.0,0.0,0.0,0.0,0.0,0.0,0.0,0.0,0.0,0.0,0.0,0.0,0.0,0.0,0.0,0.0,0.0,0.0,0.0,0.0,0.0,0.0,0.0,0.0,0.0,0.0,0.0,0.0,0.0,0.0,0.0,0.0,0.0,0.0,0.0,0.5747,0.5844,0.5993,0.0,0.0,0.0,0.0,0.6386,0.6815,0.0,0.0,0.0,0.0,0.0,0.0,0.0,0.0,0.0,0.0,0.0,0.0,0.0,0.0,0.0,0.0,0.0,0.0,0.0,0.0,0.0,0.0,0.0,0.0,0.0,0.0,0.0,0.0,0.0,0.0,0.0,0.0,0.0,0.0,0.0,0.0,0.0,0.0,0.0,0.0,0.0,0.0,0.0,0.0,0.0,0.0,0.0,0.0,0.0,0.0,0.0,0.0,0.0,0.0,0.0,0.0,-0.2858,-0.3683,-0.4596,-0.5558,-0.5487,-0.5469,-0.554,-0.3765,-0.2784,0.0,0.0,0.0,0.0,0.0,0.0,0.0,0.0,0.0,0.0,0.0,0.0,0.0,0.0,0.0,0.0,0.0,0.0,0.0,0.0,0.0,0.0,0.0,0.0,0.0,0.0,0.0,0.0,0.0,0.0,0.0,0.0,0.0,0.0,0.0,0.0,0.0,0.0,0.0,0.0,0.0,0.6058,0.6055,0.6086,0.6207,0.0,0.0,0.6533,0.6712,0.7006,0.0,0.0,0.0,0.0,0.0,0.0,0.0,0.0,0.0,0.0,0.0,0.0,0.0,0.0,0.0,0.0,0.0,0.0,0.0,0.0,0.0,0.0,0.0,0.0,0.0,0.0,0.0,0.0,0.0,0.0,0.0,0.0,0.0,0.0,0.0,0.0,0.0,0.0,0.0,0.0,0.0,0.0,0.0,0.0,0.0,0.0,0.0,0.0,0.0,0.0,0.0,0.0,0.0,0.0,0.0,-0.2258,-0.2809,-0.4059,-0.495,-0.5401,-0.5335,-0.5282,-0.5251,-0.3499,-0.2571,0.0,0.0,0.0,0.0,0.0,0.0,0.0,0.0,0.0,0.0,0.0,0.0,0.0,0.0,0.0,0.0,0.0,0.0,0.0,0.0,0.0,0.0,0.0,0.0,0.0,0.0,0.0,0.0,0.0,0.0,0.0,0.0,0.0,0.0,0.0,0.0,0.0,0.0,0.0,0.0,0.0,0.0,0.6367,0.6615,0.0,0.0,0.0,0.7057,0.7193,0.0,0.0,0.0,0.0,0.0,0.0,0.0,0.0,0.0,0.0,0.0,0.0,0.0,0.0,0.0,0.0,0.0,0.0,0.0,0.0,0.0,0.0,0.0,0.0,0.0,0.0,0.0,0.0,0.0,0.0,0.0,0.0,0.0,0.0,0.0,0.0,0.0,0.0,0.0,0.0,0.0,0.0,0.0,0.0,0.0,0.0,0.0,0.0,0.0,0.0,0.0,0.0,0.0,0.0,0.0,0.0,0.0,-0.2814,-0.437,-0.5223,-0.5277,-0.5217,-0.5132,-0.4973,-0.3596,0.0,0.0,0.0,0.0,0.0,0.0,0.0,0.0,0.0,0.0,0.0,0.0,0.0,0.0,0.0,0.0,0.0,0.0,0.0,0.0,0.0,0.0,0.0,0.0,0.0,0.0,0.0,0.3708,0.0,0.0,0.0,0.0,0.0,0.0,0.0,0.0,0.0,0.0,0.0,0.0,0.0,0.0,0.6195,0.6351,0.665,0.6784,0.0,0.0,0.7414,0.743,0.7619,0.7869,0.0,0.0,0.0,0.0,0.0,0.0,0.0,0.0,0.0,0.0,0.0,0.0,0.0,0.0,0.0,0.0,0.0,0.0,0.0,0.0,0.0,0.0,0.0,0.0,0.0,0.0,0.0,0.0,0.0,0.0,0.0,0.0,0.0,0.0,0.0,0.0,0.0,0.0,0.0,0.0,0.0,0.0,0.0,0.0,0.0,0.0,0.0,0.0,0.0,0.0,0.0,0.0,0.0,0.0,-0.2554,-0.2756,-0.4344,-0.5206,-0.5216,-0.5201,-0.5132,-0.4993,-0.4179,-0.3316,0.0,0.0,0.0,0.0,0.0,0.0,0.0,0.0,0.0,0.0,0.0,0.0,0.0,0.0,0.0,0.0,0.0,0.0,0.0,0.0,0.0,0.0,0.0,0.0,0.0,0.0,0.0,0.0,0.0,0.0,0.0,0.0,0.0,0.0,0.0,0.0,0.0,0.0,0.0,0.0,0.0,0.5331,0.5709,0.574,0.5759,0.0,0.0,0.7431,0.7239,0.7653,0.793,0.786,0.0,0.0,0.0,0.0,0.0,0.0,0.0,0.0,0.0,0.0,0.0,0.0,0.0,0.0,0.0,0.0,0.0,0.0,0.0,0.0,0.0,0.0,0.0,0.0,0.0,0.0,0.0,0.0,0.0,0.0,0.0,0.0,0.0,0.0,0.0,0.0,0.0,0.0,0.0,0.0,0.0,0.0,0.0,0.0,0.0,0.0,0.0,0.0,0.0,0.0,0.0,0.0,0.0,-0.2566,-0.2715,-0.4434,-0.5321,-0.5342,-0.5321,-0.5261,-0.5121,-0.4249,-0.339,0.0,0.0,0.0,0.0,0.0,0.0,0.0,0.0,0.0,0.0,0.0,0.0,0.0,0.0,0.0,0.0,0.0,0.0,0.0,0.0,0.0,0.0,0.0,0.0,0.0,0.0,0.0,0.0,0.2576,0.283,0.2963,0.0,0.0,0.0,0.0,0.0,0.0,0.0,0.0,0.0,0.0,0.5257,0.4846,0.4882,0.0,0.0,0.603,0.6797,0.6776,0.7544,0.8004,0.7654,0.7985,0.0,0.0,0.0,0.0,0.0,0.0,0.0,0.0,0.0,0.0,0.0,0.0,0.0,0.0,0.0,0.0,0.0,0.0,0.0,0.0,0.0,0.0,0.0,0.0,0.0,0.0,0.0,0.0,0.0,0.0,0.0,0.0,0.0,0.0,0.0,0.0,0.0,0.0,0.0,0.0,0.0,0.0,0.0,0.0,0.0,0.0,0.0,0.0,0.0,0.0,0.0,0.0,-0.2633,-0.2765,-0.4519,-0.5426,-0.5426,-0.5408,-0.5353,-0.5206,-0.4509,-0.3758,0.0,0.0,0.0,0.0,0.0,0.0,0.0,0.0,0.0,0.0,0.0,0.0,0.0,0.0,0.0,0.0,0.0,0.0,0.0,0.0,0.0,0.0,0.0,0.0,0.0,0.0,0.0,0.0,0.1953,0.226,0.2359,0.0,0.0,0.0,0.0,0.0,0.0,0.0,0.0,0.0,0.0,0.4643,0.4355,0.4498,0.4704,0.4976,0.6012,0.6779,0.6784,0.7512,0.7941,0.7529,0.0,0.0,0.0,0.0,0.0,0.0,0.0,0.0,0.0,0.0,0.0,0.0,0.0,0.0,0.0,0.0,0.0,0.0,0.0,0.0,0.0,0.0,0.0,0.0,0.0,0.0,0.0,0.1732,0.0,0.0,0.0854,0.0,0.0,0.0,0.0,0.0,0.0,0.0,0.0,0.0,0.0,0.0,0.0,0.0,0.0,0.0,0.0,0.0,0.0,0.0,0.0,0.0,0.0,-0.2765,-0.2917,-0.461,-0.5486,-0.5502,-0.5431,-0.5337,-0.5217,-0.5033,-0.4594,-0.3785,0.0,0.0,0.0,0.0,0.0,0.0,0.0,0.0,0.0,0.0,0.0,0.0,0.0,0.0,0.0,0.0,0.0,0.0,0.0,0.0,0.0,0.0,0.0,0.0,0.0,0.0,0.1614,0.1774,0.1778,0.0,0.0,0.0,0.0,0.0,0.0,0.0,0.0,0.0,0.0,0.3924,0.3307,0.4439,0.4594,0.4914,0.593,0.6905,0.7507,0.7395,0.7621,0.7693,0.0,0.0,0.0,0.0,0.0,0.0,0.0,0.0,0.0,0.0,0.0,0.0,0.0,0.0,0.0,0.0,0.0,0.0,0.0,0.0,0.0,0.0,0.0,0.0,0.0,0.0,0.0,0.1158,0.1149,0.0,0.0,0.0,0.0,0.0,0.0,0.0,0.0,0.0,0.0,0.0,-0.1476,-0.1668,0.0,0.0,0.0,0.0,0.0,0.0,0.0,0.0,0.0,0.0,0.0,0.0,-0.2795,-0.3033,-0.4729,-0.5686,-0.5757,-0.567,-0.5534,-0.541,-0.5311,-0.4874,-0.4014,0.0,0.0,0.0,0.0,0.0,0.0,0.0,0.0,0.0,0.0,0.0,0.0,0.0,0.0,0.0,0.0,0.0,0.0,0.0,0.0,0.0,0.0,0.0,0.0,0.0,0.112,0.0,0.0,0.0,0.0,0.0,0.0,0.0,0.0,0.0,0.0,0.0,0.4257,0.4563,0.4093,0.3935,0.4466,0.4391,0.4303,0.0,0.0,0.0,0.0,0.0,0.0,0.0,0.0,0.0,0.0,0.0,0.0,0.0,0.0,1.0793,1.0836,1.0741,1.0677,1.061,0.0,0.0,0.0,0.0,0.0,0.0,0.0,0.0,0.0,0.0,0.0,0.0,0.0,0.0,-0.0269,0.0,-0.0531,0.0,0.0,0.0,0.0,0.0,0.0,0.0,0.0,-0.2521,-0.279,-0.2547,-0.2745,-0.3062,0.0,-0.2973,-0.2523,0.0,0.0,0.0,0.0,0.0,0.0,0.0,0.0,-0.2858,-0.3071,-0.4872,-0.587,-0.5958,-0.5789,-0.5675,-0.5572,-0.5453,-0.5142,-0.4573,-0.3755,-0.3026,0.0,0.0,0.0,0.0,0.0,0.0,0.0,0.0,0.0,0.0,0.0,0.0,0.0,0.0,0.0,0.0,0.0,0.0,0.0,0.0,0.0,0.0,0.0,0.0695,0.0,0.0,0.0,0.0,0.0,0.0,0.0,0.0,0.0,0.3217,0.304,0.2852,0.3064,0.3219,0.3453,0.3875,0.0,0.0,0.0,0.0,0.0,0.0,0.0,0.7176,0.6984,0.7225,0.7701,0.8542,0.9113,0.979,1.0762,0.0,0.0,1.0693,1.0628,1.0536,1.0449,1.1585,1.2499,1.2349,1.3771,1.5081,0.0,0.0,0.0,0.0,0.0,0.0,0.0,0.0,-0.2384,-0.2433,0.0,-0.2055,0.0,0.0,0.0,0.0,-0.1627,-0.3043,0.0,0.0,-0.4372,-0.4886,-0.401,-0.4016,-0.4478,-0.5225,-0.3821,-0.3529,-0.4241,-0.4017,0.0,0.0,0.0,0.0,0.0,0.0,-0.3018,-0.3145,-0.5089,-0.6123,-0.6094,-0.5859,-0.5735,-0.5708,-0.5534,-0.5414,-0.5356,-0.4608,-0.4143,-0.4077,-0.2438,0.0,0.0,0.0,0.0,0.0,0.0,0.0,0.0,0.0,0.0,0.0,0.0,0.0,0.0,0.0,0.0,0.0,0.0,0.0,0.0,-0.0232,0.0,0.0,0.0,0.0,0.0,0.0,0.0,0.0,0.0,0.0,0.1304,0.0791,0.0533,0.1056,0.0,0.0,0.0,0.0,0.4059,0.5782,0.6353,0.6798,0.759,0.697,0.638,0.6414,0.0,0.0,0.7994,0.8015,0.8555,1.0991,1.0995,1.075,1.0874,1.1109,1.1239,1.1085,1.2371,1.3119,1.2058,1.3849,1.5561,-0.2532,0.0,0.0,0.0,0.0,-0.218,-0.2326,-0.2616,-0.2721,-0.2738,-0.2764,-0.3049,0.0,0.0,0.0,0.0,0.0,0.0,-0.4408,-0.4331,-0.5422,-0.5813,-0.5691,-0.6023,-0.6281,-0.6429,-0.6168,-0.6099,-0.6184,-0.6032,-0.4566,-0.1952,0.0,0.0,0.0,0.0,-0.3549,-0.4444,-0.5777,-0.642,-0.6309,-0.6244,-0.6087,-0.5838,-0.5784,-0.5736,-0.5632,-0.5377,-0.4943,-0.4264,-0.3556,0.0,0.0,0.0,0.0,0.0,0.0,0.0,0.0,0.0,0.0,0.0,0.0,0.0,0.0,0.0,0.0,0.0,0.0,0.0,-0.0058,-0.0591,-0.0432,0.0,0.0,0.0,0.0,0.0,0.0,0.0,0.0,0.0,-0.0884,0.0247,0.1363,0.0,0.0,0.2732,0.3897,0.401,0.4018,0.4171,0.4743,0.0,0.4505,0.497,0.5365,0.5232,0.5302,0.5611,0.6192,0.721,0.8258,0.9154,1.0052,1.0789,1.1022,1.0793,1.0555,1.0568,1.1582,1.243,1.2325,1.4219,1.6077,-0.4855,-0.4511,-0.3514,-0.3362,-0.3798,-0.369,-0.392,-0.4328,-0.4399,-0.4431,-0.439,-0.4545,-0.4643,-0.4706,-0.5127,0.0,0.0,0.0,-0.566,-0.5795,-0.6215,-0.6496,-0.6657,-0.6936,-0.705,-0.7,-0.722,-0.7251,-0.7094,-0.6991,-0.5667,-0.323,0.0,0.0,-0.2423,-0.3461,-0.4348,-0.5094,-0.6139,-0.6607,-0.6482,-0.6396,-0.6241,-0.5986,-0.5975,-0.5942,-0.5877,-0.5849,-0.5558,-0.489,-0.4334,-0.3542,0.0,0.0,0.0,0.0,0.0,0.0,0.0,0.0,0.0,0.0,0.0,-0.0344,0.0,0.0,0.0,0.0,-0.0827,-0.0743,-0.0627,-0.0806,0.0,0.0,0.0,0.0,0.0,0.0,0.0,0.0268,-0.0847,-0.1737,-0.1919,-0.0843,0.0,0.0073,0.0431,0.0964,0.1704,0.0,0.2587,0.2638,0.3582,0.4203,0.3966,0.4199,0.427,0.3695,0.3936,0.4438,0.4984,0.5954,0.7055,0.8278,0.9412,1.0369,1.1083,1.0992,1.0772,1.0669,1.1645,1.2423,1.2133,1.4115,1.5903,-0.7155,-0.6872,-0.472,-0.4494,-0.5489,-0.5351,-0.584,-0.6828,-0.685,-0.6855,-0.6791,-0.6331,-0.6176,-0.6301,-0.6276,0.0,-0.6299,-0.6669,-0.6793,-0.6769,-0.6946,-0.7054,-0.7111,-0.7121,-0.7144,-0.7231,-0.7382,-0.7393,-0.7285,-0.7263,-0.6722,-0.5659,-0.5328,-0.4659,-0.3698,-0.4565,-0.513,-0.5208,-0.6179,-0.6653,-0.6607,-0.6415,-0.626,-0.6076,-0.6076,-0.6071,-0.6013,-0.6036,-0.5918,-0.5648,-0.4817,-0.42,-0.385,0.0,0.0,0.0,0.0,0.0,0.0,0.0,0.0,0.0,0.0,0.0,0.0,0.0,0.0,0.0,-0.1692,0.0,-0.1814,-0.1032,0.0,0.0,0.0,-0.0516,-0.1455,-0.1675,-0.1788,-0.1898,0.0,0.0,-0.225,-0.2294,-0.2754,-0.3888,-0.298,-0.2234,-0.2296,-0.0934,0.0243,0.1049,0.2466,0.3784,0.4229,0.3896,0.318,0.2334,0.2008,0.2645,0.3865,0.4389,0.5525,0.7768,0.8824,0.9583,1.0876,1.1312,1.1671,1.1218,1.2244,1.2865,1.1963,1.3583,1.5062,-0.747,-0.7489,-0.694,-0.6697,-0.6621,-0.6673,-0.685,-0.7111,-0.7269,-0.7267,-0.7181,-0.7158,-0.7152,-0.7179,-0.6976,-0.694,-0.7055,-0.7223,-0.7362,-0.7418,-0.7833,-0.8066,-0.8065,-0.8177,-0.8188,-0.8102,-0.814,-0.8087,-0.7877,-0.7785,-0.7429,-0.6886,-0.6745,-0.5637,-0.3685,-0.3955,-0.449,-0.5188,-0.5536,-0.6071,-0.6731,-0.6611,-0.6331,-0.5959,-0.5954,-0.5816,-0.5498,-0.5493,-0.5406,-0.5236,-0.493,-0.4456,-0.3765,-0.243,0.0,0.0,0.0,0.0,0.0,0.0,0.0,0.0,0.0,-0.1176,-0.0253,0.0,-0.056,0.0,-0.2016,-0.2841,-0.2652,-0.2608,0.0,0.0,-0.1499,-0.1574,-0.1919,-0.2661,-0.2833,-0.2133,-0.2711,-0.3256,-0.3456,-0.3449,-0.3862,-0.4987,-0.3465,-0.2197,-0.2181,-0.1893,-0.1506,-0.1149,0.0029,0.0969,0.1362,0.1954,0.2313,0.2034,0.2008,0.216,0.25,0.3387,0.4367,0.5406,0.721,0.8581,0.931,1.0475,1.1284,1.1325,1.176,1.2093,1.1831,1.3048,1.4053,-0.7714,-0.7774,-0.778,-0.7622,-0.7411,-0.7477,-0.7561,-0.7597,-0.7698,-0.772,-0.763,-0.7551,-0.7543,-0.7565,-0.7306,-0.7263,-0.7372,-0.7468,-0.7623,-0.7818,-0.8105,-0.8365,-0.8497,-0.8557,-0.853,-0.8388,-0.8388,-0.8232,-0.7874,-0.78,-0.7525,-0.7137,-0.7076,-0.6094,-0.4306,-0.4812,-0.5156,-0.5175,-0.5122,-0.5603,-0.661,-0.6422,-0.5994,-0.5352,-0.5327,-0.5017,-0.4403,-0.4289,-0.4122,-0.3925,-0.3725,-0.3572,-0.3371,-0.2334,-0.1686,0.0,0.0,0.0,0.0,0.0,0.0,0.0,0.0,0.0,0.0,0.0,-0.1114,-0.1075,-0.2454,-0.3116,-0.2538,-0.2661,-0.2695,-0.252,-0.2594,-0.2867,-0.3371,-0.3956,-0.4098,-0.3561,-0.4014,-0.4439,-0.4591,-0.4634,-0.4843,-0.5506,-0.4502,-0.3714,-0.3661,-0.3217,-0.2813,-0.2784,-0.1649,-0.0539,-0.0091,0.113,0.1962,0.2005,0.2008,0.2008,0.2008,0.256,0.3295,0.4091,0.5498,0.7027,0.8307,0.9401,1.0324,1.0967,1.1216,1.1436,1.1746,1.2363,1.2874,-0.7952,-0.7946,-0.7946,-0.7915,-0.7946,-0.7952,-0.7984,-0.8044,-0.8055,-0.8077,-0.8016,-0.7655,-0.7558,-0.7654,-0.7424,-0.7374,-0.745,-0.7488,-0.7693,-0.8002,-0.802,-0.8153,-0.8429,-0.8452,-0.8393,-0.8269,-0.8231,-0.7996,-0.7582,-0.753,-0.7309,-0.6914,-0.6865,-0.624,-0.5162,-0.6174,-0.6197,-0.5196,-0.4893,-0.5277,-0.6266,-0.5834,-0.5195,-0.4373,-0.4325,-0.3903,-0.3057,-0.2831,-0.2614,-0.2301,-0.2151,-0.2336,-0.2941,-0.2062,-0.1947,0.0,-0.2115,0.0,0.0,0.0,0.0,0.0,0.0,0.0,0.0,-0.2303,-0.1947,-0.2167,-0.2932,-0.3153,-0.2452,-0.244,-0.2843,-0.3675,-0.3793,-0.4155,-0.5014,-0.5187,-0.5236,-0.5236,-0.5398,-0.5492,-0.5455,-0.5532,-0.5548,-0.554,-0.5466,-0.5334,-0.5439,-0.4594,-0.396,-0.3939,-0.2827,-0.1547,-0.0211,0.0938,0.1674,0.191,0.2008,0.2008,0.2008,0.2038,0.2375,0.3387,0.4094,0.5161,0.7362,0.8216,0.9128,1.0172,1.0604,1.1035,1.1526,1.1738,1.1746,-0.8134,-0.8134,-0.8134,-0.8134,-0.8134,-0.8134,-0.7982,-0.7774,-0.7897,-0.7894,-0.7763,-0.7528,-0.7447,-0.7471,-0.7392,-0.7364,-0.7334,-0.7334,-0.741,-0.7524,-0.747,-0.7507,-0.7618,-0.7567,-0.7513,-0.7498,-0.7525,-0.7446,-0.7338,-0.7251,-0.7048,-0.6739,-0.6624,-0.6362,-0.5998,0.0,0.0,0.0,-0.5005,-0.5099,-0.5176,-0.4334,-0.3582,-0.2922,-0.2882,0.0,-0.2022,-0.1936,-0.1847,-0.1688,-0.1731,0.0,0.0,0.0,0.0,0.0,0.0,0.0,0.0,0.0,0.0,0.0,-0.3614,-0.3136,-0.328,-0.2544,-0.2371,-0.3125,-0.342,-0.383,-0.4441,-0.4519,-0.4628,-0.4882,-0.4897,-0.5021,-0.5316,-0.5345,-0.5357,-0.5357,-0.5414,-0.5406,-0.541,-0.5422,-0.5435,-0.5443,-0.5431,-0.5459,-0.5524,-0.5304,-0.5229,-0.5149,-0.4035,-0.2498,-0.0337,0.0215,0.095,0.1636,0.2008,0.2008,0.2008,0.2008,0.2008,0.2438,0.3266,0.406,0.4763,0.6656,0.8429,0.8739,0.9839,1.0944,1.1307,1.1398,1.1488,-0.8204,-0.8204,-0.8204,-0.8108,0.0,-0.7948,-0.7723,-0.7393,-0.7749,-0.7794,-0.7571,-0.7374,-0.7227,-0.7209,-0.7176,-0.7121,-0.7062,-0.7199,-0.7297,-0.7365,-0.7312,-0.7345,-0.7445,-0.7421,-0.7373,-0.7288,-0.7288,-0.7195,-0.7015,-0.6933,-0.676,-0.6443,-0.6315,-0.6193,-0.6098,-0.605,-0.599,-0.5843,-0.5105,-0.504,-0.568,-0.4887,-0.4089,-0.3383,-0.3271,0.0,0.0,0.0,0.0,0.0,0.0,0.0,0.0,-0.2791,0.0,-0.3925,-0.403,-0.4068,-0.4106,-0.4648,-0.5029,-0.5077,-0.4724,-0.4229,-0.3613,-0.3598,-0.3862,-0.4377,-0.4463,-0.4714,-0.5176,-0.5243,-0.5263,-0.5304,-0.5312,-0.5333,-0.5373,-0.5409,-0.5409,-0.5409,-0.5409,-0.5409,-0.5409,-0.5409,-0.5409,-0.5409,-0.5409,-0.5426,-0.5443,-0.552,-0.5557,-0.5518,-0.3962,-0.2422,-0.1092,0.0305,0.1071,0.1848,0.2008,0.2008,0.2008,0.2008,0.2008,0.2069,0.256,0.3112,0.3937,0.5678,0.7301,0.8039,0.9292,1.0361,1.0725,1.0944,1.1156,-0.8296,-0.8296,-0.8318,-0.8156,-0.7881,-0.7869,-0.7532,-0.7097,0.0,0.0,0.0,-0.7074,-0.6934,-0.6894,-0.6827,-0.6742,-0.6716,-0.6928,-0.7071,-0.7103,-0.7117,-0.7163,-0.7293,-0.7279,-0.7191,-0.7112,-0.7173,-0.7001,-0.664,-0.6667,-0.6539,-0.6206,-0.6077,-0.6044,-0.604,-0.5955,-0.6194,-0.6638,-0.5153,-0.493,-0.6136,-0.5451,-0.4704,-0.3931,-0.3799,-0.3397,-0.2625,-0.2458,-0.2327,-0.2228,-0.2201,-0.2505,-0.3189,-0.3378,-0.3845,-0.4635,-0.479,-0.4883,-0.4927,-0.5151,-0.5321,-0.5451,-0.5532,-0.5144,-0.4107,-0.4779,-0.5317,-0.5422,-0.5431,-0.5426,-0.5455,-0.541,-0.5406,-0.5406,-0.5418,-0.5409,-0.5409,-0.5409,-0.5409,-0.5409,-0.5409,-0.5409,-0.5409,-0.5409,-0.5409,-0.5409,-0.5409,-0.5418,-0.541,-0.5471,-0.5516,-0.5418,-0.4133,-0.2616,-0.1684,-0.0363,0.1309,0.1849,0.2008,0.2008,0.2008,0.2008,0.2008,0.2008,0.2008,0.2469,0.3387,0.461,0.5865,0.6971,0.841,0.9542,0.9846,1.027,1.0725,-0.8727,-0.8738,-0.8773,-0.8757,-0.8636,-0.8397,-0.7917,-0.7244,-0.6858,-0.6714,-0.6711,-0.6513,-0.6415,-0.6399,-0.6403,-0.6349,-0.6299,-0.6314,-0.6393,-0.6444,-0.6364,-0.6377,-0.646,-0.6418,-0.6376,-0.6363,-0.6653,-0.6612,-0.6342,-0.6571,-0.6539,-0.6246,-0.6202,-0.6161,-0.6157,-0.6044,-0.617,-0.6496,-0.5115,-0.449,-0.4702,-0.3825,-0.3205,-0.2852,-0.2866,-0.2615,-0.2218,-0.2238,-0.2143,-0.1986,-0.2062,-0.2525,-0.3383,-0.3619,-0.4087,-0.5046,-0.5304,-0.5402,-0.541,-0.5492,-0.5565,-0.5577,-0.5572,-0.5502,-0.5342,-0.5462,-0.5565,-0.5548,-0.5569,-0.5577,-0.5573,-0.5533,-0.5492,-0.5484,-0.5426,-0.5414,-0.539,-0.5418,-0.5418,-0.539,-0.5409,-0.5409,-0.5409,-0.5409,-0.5409,-0.5409,-0.5409,-0.5402,-0.5459,-0.55,-0.5516,-0.5601,-0.5442,-0.4343,-0.2562,-0.1779,-0.0338,0.1696,0.1975,0.2003,0.2003,0.2003,0.2005,0.2008,0.2008,0.2131,0.2407,0.3295,0.4275,0.4885,0.6569,0.8099,0.8288,0.911,1.0156,-0.8867,-0.8838,-0.8892,-0.8644,-0.8213,-0.7678,-0.7283,-0.6987,-0.6711,-0.664,-0.6652,-0.6638,-0.6582,-0.6537,-0.6652,-0.6677,-0.6583,-0.6711,-0.671,-0.6643,-0.6576,-0.6535,-0.6529,-0.6496,-0.6476,-0.6472,-0.6594,-0.6573,-0.6431,-0.6555,-0.6526,-0.6358,-0.628,-0.6263,-0.6182,-0.6141,-0.6184,-0.6307,-0.5598,-0.5309,-0.5455,-0.4866,-0.4473,-0.4351,-0.4259,-0.4164,-0.3989,-0.4018,-0.4002,-0.3889,-0.3972,-0.4177,-0.4553,-0.4679,-0.4918,-0.5338,-0.548,-0.5553,-0.5553,-0.5638,-0.5711,-0.5756,-0.5764,-0.5764,-0.5764,-0.567,-0.5584,-0.5584,-0.5584,-0.5584,-0.5584,-0.5577,-0.5553,-0.5553,-0.5516,-0.5496,-0.5488,-0.5475,-0.5451,-0.5447,-0.541,-0.5409,-0.5409,-0.5409,-0.5409,-0.5409,-0.5409,-0.543,-0.5443,-0.5496,-0.5585,-0.5641,-0.5156,-0.4328,-0.3128,-0.1724,-0.0522,0.0824,0.1494,0.1859,0.1952,0.1952,0.1991,0.2005,0.2008,0.2008,0.2038,0.302,0.3722,0.406,0.5376,0.666,0.6971,0.7947,0.9323,-0.8887,-0.8817,-0.8844,-0.8434,-0.7727,-0.7134,-0.6857,-0.6786,-0.6751,-0.6751,-0.679,-0.6854,-0.679,-0.6721,-0.6889,-0.6953,-0.6871,-0.703,-0.702,-0.6897,-0.6859,-0.6804,-0.6741,-0.6702,-0.6725,-0.6721,-0.6725,-0.6687,-0.6645,-0.6651,-0.6648,-0.6538,-0.6423,-0.6341,-0.6272,-0.6231,-0.621,-0.6202,-0.6055,-0.6058,-0.6284,-0.5998,-0.5831,-0.5806,-0.5711,-0.5637,-0.5646,-0.5662,-0.5658,-0.5618,-0.5634,-0.5605,-0.552,-0.5573,-0.5581,-0.5524,-0.5593,-0.5654,-0.5679,-0.5769,-0.5843,-0.5882,-0.5886,-0.5886,-0.5874,-0.576,-0.5675,-0.5675,-0.5657,-0.5653,-0.5653,-0.5658,-0.5646,-0.5646,-0.5626,-0.5576,-0.5576,-0.5549,-0.5537,-0.5529,-0.548,-0.5447,-0.5439,-0.5439,-0.5447,-0.5451,-0.5443,-0.5439,-0.5459,-0.5536,-0.5642,-0.5574,-0.4918,-0.4255,-0.3899,-0.2401,-0.092,-0.0242,0.0789,0.1429,0.1733,0.1944,0.1949,0.2003,0.2008,0.2008,0.21,0.2714,0.3295,0.3448,0.449,0.5621,0.6538,0.7423,0.8678,-0.8864,-0.8561,-0.8683,-0.8302,-0.7639,-0.7535,-0.7283,-0.6994,-0.6966,-0.6966,-0.6945,-0.6807,-0.6741,-0.6725,-0.6756,-0.6739,-0.6731,-0.6749,-0.6786,-0.6892,-0.6772,-0.6749,-0.6867,-0.6766,-0.6725,-0.6729,-0.703,-0.6987,-0.6713,-0.7044,-0.7005,-0.6723,-0.6611,-0.6553,-0.6563,-0.6386,-0.6304,-0.6272,-0.6206,-0.6117,-0.6047,-0.5999,-0.5955,-0.5878,-0.5865,-0.5851,-0.5804,-0.5817,-0.5784,-0.5642,-0.5695,-0.5725,-0.5614,-0.558,-0.561,-0.5605,-0.5687,-0.5802,-0.5849,-0.59,-0.5878,-0.5886,-0.5886,-0.5886,-0.5886,-0.587,-0.5861,-0.5849,-0.5853,-0.5876,-0.5853,-0.5814,-0.5769,-0.5765,-0.5675,-0.5584,-0.5596,-0.5576,-0.5572,-0.5572,-0.5581,-0.5589,-0.5573,-0.5569,-0.5548,-0.5536,-0.5557,-0.5532,-0.5565,-0.5597,-0.5654,-0.5769,-0.5661,-0.5158,-0.4278,-0.3815,-0.2455,-0.0644,0.0061,0.0674,0.1409,0.1872,0.1974,0.2002,0.2008,0.2008,0.2008,0.2162,0.2253,0.256,0.3448,0.4763,0.6879,0.7673,0.8374,-0.8627,-0.8268,-0.8312,-0.8073,-0.7602,-0.7349,-0.7131,-0.699,-0.699,-0.699,-0.6982,-0.6913,-0.688,-0.6876,-0.6827,-0.6803,-0.6834,-0.6749,-0.6774,-0.6883,-0.6854,-0.6847,-0.6957,-0.69,-0.688,-0.6876,-0.7004,-0.6979,-0.6865,-0.6929,-0.6864,-0.6717,-0.6635,-0.659,-0.6582,-0.6464,-0.6431,-0.6398,-0.6395,-0.6333,-0.6182,-0.6125,-0.6056,-0.5979,-0.5967,-0.5922,-0.5876,-0.59,-0.5853,-0.578,-0.5794,-0.5765,-0.5725,-0.5725,-0.5695,-0.5729,-0.581,-0.5876,-0.5886,-0.5886,-0.5886,-0.5886,-0.5886,-0.5886,-0.5886,-0.5886,-0.5886,-0.5886,-0.5886,-0.5886,-0.5882,-0.5853,-0.5859,-0.5855,-0.5796,-0.5772,-0.5776,-0.5757,-0.5725,-0.572,-0.565,-0.5588,-0.5584,-0.5584,-0.5584,-0.5584,-0.5588,-0.5592,-0.5622,-0.5658,-0.5737,-0.5782,-0.5859,-0.5724,-0.508,-0.434,-0.3465,-0.2438,-0.0972,0.0334,0.0701,0.1583,0.1923,0.1973,0.2008,0.2008,0.2008,0.2008,0.2038,0.213,0.2253,0.3389,0.5192,0.6171,0.721,-0.8295,-0.8041,-0.8186,-0.8145,-0.7887,-0.7602,-0.7457,-0.7421,-0.7135,-0.699,-0.699,-0.699,-0.699,-0.6982,-0.6957,-0.6928,-0.6916,-0.6827,-0.6843,-0.6953,-0.694,-0.6973,-0.7019,-0.6998,-0.699,-0.6978,-0.6957,-0.6928,-0.692,-0.6831,-0.6798,-0.6786,-0.6709,-0.666,-0.6686,-0.6608,-0.6563,-0.6563,-0.6563,-0.6484,-0.6398,-0.6325,-0.6227,-0.6073,-0.6056,-0.6024,-0.5994,-0.597,-0.5922,-0.5922,-0.5867,-0.5818,-0.5818,-0.5839,-0.5855,-0.5863,-0.5941,-0.5965,-0.5894,-0.591,-0.591,-0.589,-0.5886,-0.5886,-0.5886,-0.5886,-0.5886,-0.5886,-0.5886,-0.5886,-0.5886,-0.5886,-0.5886,-0.5886,-0.5886,-0.5886,-0.5878,-0.5855,-0.5818,-0.581,-0.5769,-0.5661,-0.5691,-0.5695,-0.5703,-0.5703,-0.5675,-0.5666,-0.5683,-0.5757,-0.5786,-0.5845,-0.588,-0.5882,-0.5824,-0.5206,-0.4465,-0.3684,-0.2185,-0.1063,-0.0303,0.091,0.1763,0.1727,0.1883,0.2008,0.2008,0.2008,0.2008,0.2008,0.21,0.2498,0.3968,0.4794,0.6018,-0.7933,-0.7783,-0.8357,-0.8615,-0.8646,-0.8538,-0.8574,-0.8331,-0.7425,-0.6994,-0.699,-0.6994,-0.699,-0.6994,-0.699,-0.6982,-0.6978,-0.6966,-0.7007,-0.7076,-0.7015,-0.7031,-0.7072,-0.7035,-0.699,-0.699,-0.6978,-0.6974,-0.6974,-0.6974,-0.6978,-0.6966,-0.6908,-0.6871,-0.685,-0.6737,-0.6709,-0.6696,-0.6658,-0.6664,-0.6586,-0.657,-0.6435,-0.6219,-0.621,-0.617,-0.6153,-0.6056,-0.6016,-0.5984,-0.5935,-0.5916,-0.5921,-0.5963,-0.6004,-0.6012,-0.6117,-0.6092,-0.5965,-0.5971,-0.5983,-0.591,-0.591,-0.5894,-0.591,-0.5914,-0.5914,-0.5925,-0.591,-0.5906,-0.5902,-0.5898,-0.589,-0.5886,-0.5886,-0.5886,-0.5886,-0.5878,-0.5882,-0.5874,-0.5857,-0.5841,-0.5857,-0.5874,-0.5853,-0.5867,-0.5823,-0.5798,-0.5851,-0.5831,-0.5831,-0.5876,-0.5878,-0.5886,-0.5886,-0.564,-0.5076,-0.4386,-0.3641,-0.2821,-0.1199,0.0185,0.0863,0.1511,0.1821,0.1977,0.2008,0.2008,0.2008,0.2008,0.2008,0.2561,0.3235,0.3722,0.4824,-0.9164,-0.9509,-0.8962,-0.8795,-0.8839,-0.802,-0.7638,-0.7622,-0.726,-0.7043,-0.7007,-0.7052,-0.7076,-0.7039,-0.7076,-0.7043,-0.6994,-0.699,-0.7007,-0.7035,-0.7003,-0.7007,-0.7031,-0.7003,-0.699,-0.699,-0.699,-0.699,-0.699,-0.699,-0.699,-0.6974,-0.6932,-0.6887,-0.6871,-0.677,-0.6725,-0.6725,-0.6725,-0.6709,-0.668,-0.6676,-0.6598,-0.6481,-0.6325,-0.6239,-0.6182,-0.6149,-0.6133,-0.6133,-0.61,-0.6084,-0.6088,-0.6117,-0.6133,-0.6137,-0.6166,-0.6185,-0.61,-0.6117,-0.6121,-0.6092,-0.6084,-0.608,-0.6084,-0.6088,-0.612,-0.6084,-0.6084,-0.6084,-0.6063,-0.5986,-0.5886,-0.5886,-0.589,-0.5894,-0.5886,-0.5886,-0.5886,-0.5886,-0.5886,-0.5886,-0.5886,-0.5886,-0.5886,-0.5886,-0.5857,-0.5888,-0.59,-0.5853,-0.588,-0.5904,-0.5886,-0.5886,-0.5886,-0.5886,-0.5605,-0.5141,-0.449,-0.3781,-0.2522,-0.0831,0.0062,0.0709,0.1266,0.1853,0.1853,0.2008,0.2008,0.2008,0.2008,0.2162,0.256,0.3152,0.4038,-0.949,-0.9868,-0.907,-0.8826,-0.8904,-0.8035,-0.7668,-0.7645,-0.7319,-0.7117,-0.7137,-0.7495,-0.752,-0.724,-0.7527,-0.7424,-0.7076,-0.7035,-0.7031,-0.7031,-0.7003,-0.7007,-0.7031,-0.7035,-0.7052,-0.7076,-0.7076,-0.7064,-0.7035,-0.7035,-0.7019,-0.6986,-0.6961,-0.6932,-0.6924,-0.6839,-0.6775,-0.6811,-0.6811,-0.6803,-0.6774,-0.677,-0.6725,-0.6631,-0.6479,-0.639,-0.6308,-0.6239,-0.6259,-0.6223,-0.623,-0.6194,-0.6219,-0.6223,-0.6227,-0.6227,-0.6288,-0.6271,-0.6226,-0.6239,-0.621,-0.6214,-0.6182,-0.6182,-0.6182,-0.6182,-0.6182,-0.6182,-0.6182,-0.6182,-0.6161,-0.6072,-0.6002,-0.6002,-0.6002,-0.6002,-0.6002,-0.6002,-0.599,-0.5935,-0.5937,-0.589,-0.5886,-0.5886,-0.5886,-0.5886,-0.5886,-0.5886,-0.5886,-0.5886,-0.5886,-0.5886,-0.5886,-0.5886,-0.5886,-0.5886,-0.5886,-0.5483,-0.5298,-0.4647,-0.3758,-0.2094,-0.0801,-0.0123,0.0647,0.1358,0.1791,0.1977,0.2009,0.201,0.2009,0.2103,0.2416,0.2672,0.3484,-0.8791,-0.8982,-0.8714,-0.8899,-0.9197,-0.8887,-0.8869,-0.881,-0.798,-0.7664,-0.7716,-0.8608,-0.859,-0.7747,-0.8614,-0.84,-0.7496,-0.7372,-0.724,-0.7105,-0.7035,-0.7047,-0.7088,-0.7129,-0.7166,-0.7273,-0.7289,-0.7211,-0.7129,-0.7125,-0.7052,-0.7011,-0.6994,-0.6982,-0.6982,-0.6966,-0.6974,-0.6966,-0.6962,-0.6933,-0.6899,-0.6891,-0.6815,-0.6737,-0.6674,-0.6627,-0.6493,-0.6374,-0.6329,-0.6317,-0.6276,-0.6263,-0.6304,-0.6317,-0.6321,-0.6329,-0.6427,-0.6386,-0.6259,-0.6276,-0.628,-0.6263,-0.623,-0.6243,-0.6219,-0.6243,-0.6243,-0.6215,-0.6243,-0.6234,-0.6239,-0.6226,-0.6206,-0.6206,-0.6149,-0.6181,-0.6161,-0.617,-0.6145,-0.6032,-0.5963,-0.5929,-0.589,-0.5902,-0.5906,-0.589,-0.5886,-0.5886,-0.5886,-0.5886,-0.5886,-0.5886,-0.5886,-0.5886,-0.5886,-0.5886,-0.5886,-0.5824,-0.5732,-0.536,-0.4601,-0.3244,-0.194,-0.1077,0.0524,0.1296,0.1865,0.2021,0.2024,0.2026,0.202,0.2026,0.2226,0.246,0.2783,-1.039,-1.0959,-0.936,-0.9812,-1.1088,-0.9693,-0.9435,-1.0197,-1.0085,-0.9926,-0.9802,-1.0512,-1.0493,-1.0078,-1.041,-0.9998,-0.891,-0.8664,-0.807,-0.7216,-0.7096,-0.7133,-0.7207,-0.7219,-0.7273,-0.7297,-0.7302,-0.7289,-0.7227,-0.7256,-0.7211,-0.7101,-0.7084,-0.7047,-0.6998,-0.699,-0.699,-0.699,-0.699,-0.6974,-0.6986,-0.6986,-0.6905,-0.6862,-0.685,-0.6758,-0.6647,-0.6553,-0.6509,-0.65,-0.6452,-0.6415,-0.644,-0.6444,-0.6448,-0.6448,-0.6468,-0.6473,-0.6423,-0.6423,-0.6431,-0.6407,-0.6399,-0.6399,-0.6403,-0.6399,-0.6395,-0.6399,-0.6403,-0.6403,-0.6403,-0.6403,-0.6345,-0.6226,-0.6182,-0.619,-0.623,-0.6186,-0.617,-0.6149,-0.6117,-0.6076,-0.5995,-0.5979,-0.5955,-0.5933,-0.5894,-0.5894,-0.5886,-0.5886,-0.5886,-0.5886,-0.5886,-0.5886,-0.5886,-0.589,-0.5898,-0.5898,-0.5867,-0.5863,-0.5166,-0.4484,-0.3204,-0.1601,-0.0031,0.1145,0.1714,0.2004,0.2007,0.202,0.2059,0.2067,0.2078,0.227,0.2552,-1.0964,-1.1534,-1.0028,-1.031,-1.1716,-1.019,-1.0116,-1.0949,-1.116,-1.113,-1.1126,-1.1837,-1.1533,-1.0759,-1.0992,-1.033,-0.8944,-0.8636,-0.8096,-0.7298,-0.7186,-0.7227,-0.7347,-0.735,-0.74,-0.74,-0.74,-0.7341,-0.7347,-0.7343,-0.7264,-0.719,-0.7178,-0.7154,-0.7096,-0.7092,-0.7088,-0.7092,-0.7092,-0.7129,-0.7129,-0.7129,-0.7047,-0.7006,-0.6954,-0.6909,-0.6827,-0.6737,-0.669,-0.659,-0.6538,-0.6489,-0.6489,-0.6485,-0.6489,-0.6489,-0.6489,-0.6485,-0.6489,-0.6481,-0.6489,-0.6489,-0.6489,-0.6485,-0.6485,-0.6489,-0.6489,-0.6489,-0.6481,-0.6489,-0.6485,-0.6485,-0.6427,-0.6333,-0.6325,-0.6317,-0.6312,-0.6284,-0.6235,-0.6223,-0.623,-0.6157,-0.6085,-0.6064,-0.6032,-0.5959,-0.5935,-0.591,-0.5902,-0.5886,-0.589,-0.589,-0.5886,-0.5886,-0.5886,-0.5894,-0.5906,-0.591,-0.5914,-0.591,-0.5606,-0.5221,-0.4309,-0.2185,-0.0431,0.0895,0.1615,0.1913,0.2016,0.2038,0.2081,0.208,0.2045,0.2041,0.2264,-1.0559,-1.076,-1.051,-1.0718,-1.1219,-1.0921,-1.117,-1.1568,-1.1568,-1.1619,-1.1824,-1.2674,-1.1843,-1.0169,-1.0818,-1.0059,-0.7936,-0.7791,-0.7701,-0.7442,-0.7337,-0.7384,-0.7399,-0.7464,-0.7488,-0.7501,-0.7466,-0.7472,-0.7399,-0.7415,-0.7396,-0.7318,-0.728,-0.7306,-0.7277,-0.7293,-0.7277,-0.7273,-0.7281,-0.7281,-0.7281,-0.7285,-0.7248,-0.7129,-0.7121,-0.7084,-0.7007,-0.694,-0.6805,-0.6653,-0.6567,-0.6526,-0.6501,-0.6497,-0.6505,-0.6493,-0.6489,-0.6489,-0.6489,-0.6489,-0.6497,-0.6509,-0.6509,-0.6501,-0.6526,-0.6526,-0.6514,-0.6509,-0.6497,-0.6489,-0.6489,-0.6489,-0.6477,-0.6485,-0.6456,-0.6456,-0.6506,-0.6403,-0.6333,-0.6313,-0.6251,-0.6194,-0.6198,-0.619,-0.6113,-0.6056,-0.6028,-0.5995,-0.5959,-0.5947,-0.5914,-0.591,-0.5922,-0.5898,-0.5902,-0.589,-0.5898,-0.5933,-0.5914,-0.5922,-0.5764,-0.5378,-0.4588,-0.2524,-0.0893,0.0432,0.1459,0.182,0.2019,0.2059,0.2066,0.2038,0.2049,0.2056,0.2092,-1.0942,-1.1696,-1.0929,-1.1663,-1.3081,-1.274,-1.3092,-1.3998,-1.4348,-1.3688,-1.3147,-1.3452,-1.2695,-1.1019,-1.1327,-1.0617,-0.9306,-0.8919,-0.8297,-0.7579,-0.7546,-0.7521,-0.7497,-0.7509,-0.7525,-0.7525,-0.7525,-0.7474,-0.7497,-0.7546,-0.754,-0.7362,-0.7419,-0.7425,-0.7322,-0.731,-0.7302,-0.7302,-0.7302,-0.7306,-0.731,-0.731,-0.7289,-0.7273,-0.7227,-0.7215,-0.7211,-0.7072,-0.6872,-0.6709,-0.6672,-0.6619,-0.6562,-0.6587,-0.6563,-0.6514,-0.6497,-0.6493,-0.6493,-0.6497,-0.6522,-0.6583,-0.6587,-0.6586,-0.6647,-0.659,-0.6562,-0.6575,-0.6534,-0.6493,-0.6493,-0.6493,-0.6493,-0.6489,-0.6489,-0.6489,-0.6485,-0.6468,-0.6452,-0.6448,-0.6419,-0.6378,-0.6296,-0.6276,-0.6243,-0.6174,-0.6145,-0.6133,-0.6088,-0.608,-0.6063,-0.5995,-0.5987,-0.5943,-0.5914,-0.5898,-0.589,-0.5925,-0.591,-0.593,-0.5586,-0.5084,-0.3889,-0.2214,-0.1201,0.0031,0.1184,0.1985,0.2019,0.2049,0.2045,0.2063,0.209,0.2104,0.2098,-1.1692,-1.2416,-1.2281,-1.3104,-1.4313,-1.4006,-1.4322,-1.5037,-1.539,-1.5138,-1.4421,-1.4391,-1.3679,-1.2423,-1.2292,-1.1324,-0.9837,-0.956,-0.8746,-0.7659,-0.757,-0.7566,-0.7494,-0.7525,-0.7525,-0.7525,-0.7525,-0.7525,-0.7537,-0.7659,-0.7574,-0.7488,-0.7537,-0.7509,-0.7395,-0.7374,-0.7374,-0.7374,-0.7374,-0.7412,-0.7374,-0.7374,-0.7346,-0.7329,-0.7313,-0.7343,-0.7289,-0.7121,-0.6962,-0.6815,-0.6745,-0.6666,-0.6621,-0.6647,-0.6623,-0.657,-0.6604,-0.657,-0.657,-0.6566,-0.659,-0.6635,-0.6647,-0.6672,-0.667,-0.6637,-0.6647,-0.6639,-0.6594,-0.6574,-0.6562,-0.6571,-0.653,-0.6497,-0.6489,-0.6489,-0.6489,-0.6485,-0.6489,-0.6489,-0.6485,-0.6473,-0.6411,-0.6374,-0.6329,-0.6268,-0.6239,-0.621,-0.6178,-0.6186,-0.6174,-0.6097,-0.6073,-0.6076,-0.6008,-0.5983,-0.5959,-0.5986,-0.5965,-0.5951,-0.5667,-0.507,-0.3836,-0.2589,-0.1509,-0.0309,0.106,0.2011,0.2011,0.2022,0.2059,0.2078,0.2093,0.2117,0.2116,-1.2596,-1.2955,-1.3995,-1.4554,-1.4692,-1.4781,-1.4901,-1.5197,-1.5335,-1.5345,-1.5288,-1.5146,-1.4134,-1.3429,-1.2667,-1.1796,-0.9956,-0.9956,-0.9031,-0.815,-0.7663,-0.749,-0.749,-0.7525,-0.7537,-0.755,-0.7542,-0.7558,-0.7595,-0.7696,-0.7627,-0.7582,-0.7631,-0.7623,-0.7542,-0.7529,-0.7498,-0.7525,-0.7501,-0.7493,-0.7493,-0.7488,-0.746,-0.7415,-0.7403,-0.7362,-0.7292,-0.7194,-0.7084,-0.6945,-0.6807,-0.6731,-0.6714,-0.6702,-0.669,-0.6713,-0.6696,-0.67,-0.6682,-0.67,-0.6721,-0.6733,-0.6737,-0.6714,-0.6727,-0.6723,-0.6737,-0.6737,-0.6733,-0.6666,-0.6658,-0.6643,-0.6582,-0.6563,-0.6534,-0.6522,-0.6514,-0.6501,-0.6489,-0.6489,-0.6489,-0.6489,-0.6489,-0.6481,-0.6452,-0.6353,-0.6329,-0.6313,-0.6321,-0.6312,-0.6284,-0.6206,-0.6194,-0.6222,-0.6149,-0.6077,-0.6052,-0.6032,-0.6027,-0.6019,-0.5983,-0.534,-0.4187,-0.303,-0.1862,-0.028,0.1525,0.2,0.2001,0.2041,0.2067,0.208,0.2095,0.2094,0.2106,-1.2977,-1.3924,-1.4418,-1.4676,-1.4735,-1.5155,-1.5382,-1.5424,-1.5707,-1.5348,-1.4583,-1.4319,-1.358,-1.2409,-1.2389,-1.1616,-1.1148,-1.0939,-1.0284,-0.9085,-0.7902,-0.7568,-0.7525,-0.749,-0.7566,-0.7603,-0.7631,-0.7668,-0.7725,-0.7738,-0.7725,-0.7704,-0.7709,-0.7721,-0.7679,-0.7611,-0.7631,-0.7659,-0.7562,-0.7525,-0.7525,-0.7525,-0.7474,-0.7488,-0.7488,-0.7448,-0.7382,-0.7346,-0.7318,-0.7203,-0.7023,-0.6909,-0.6887,-0.6867,-0.6803,-0.6758,-0.6706,-0.6698,-0.6729,-0.671,-0.6723,-0.6854,-0.6827,-0.6856,-0.6921,-0.686,-0.6867,-0.685,-0.6766,-0.6745,-0.6733,-0.6678,-0.668,-0.6651,-0.6647,-0.6651,-0.6643,-0.6575,-0.6514,-0.6501,-0.6497,-0.6489,-0.6489,-0.6489,-0.6473,-0.6456,-0.6452,-0.6444,-0.6427,-0.6403,-0.637,-0.6292,-0.6284,-0.6312,-0.6271,-0.6194,-0.6157,-0.6129,-0.6092,-0.6072,-0.6068,-0.582,-0.4756,-0.3486,-0.2132,-0.0439,0.1193,0.2028,0.2001,0.2038,0.2049,0.2077,0.2102,0.2089,0.2114,-1.3823,-1.4456,-1.4716,-1.483,-1.4903,-1.5309,-1.5512,-1.5545,-1.5853,-1.5628,-1.5069,-1.4885,-1.4423,-1.3821,-1.3528,-1.3207,-1.2364,-1.1644,-1.0718,-0.966,-0.8774,-0.8155,-0.7542,-0.7562,-0.7603,-0.7615,-0.7683,-0.7753,-0.7782,-0.784,-0.784,-0.7787,-0.7803,-0.7742,-0.7704,-0.7671,-0.7595,-0.7586,-0.7554,-0.7525,-0.7525,-0.7525,-0.7525,-0.7525,-0.7525,-0.7497,-0.746,-0.7407,-0.7408,-0.7339,-0.7228,-0.7113,-0.6986,-0.6977,-0.6892,-0.6864,-0.6851,-0.6851,-0.6851,-0.6851,-0.6872,-0.6945,-0.6953,-0.6977,-0.697,-0.6977,-0.6957,-0.6945,-0.6876,-0.6839,-0.6794,-0.6786,-0.6774,-0.6733,-0.6729,-0.6729,-0.6709,-0.6639,-0.6582,-0.6574,-0.6587,-0.6567,-0.655,-0.6534,-0.6497,-0.6485,-0.6477,-0.6473,-0.6468,-0.6448,-0.6448,-0.6423,-0.6382,-0.6366,-0.6362,-0.6312,-0.6223,-0.619,-0.6153,-0.6141,-0.6137,-0.5834,-0.5397,-0.3997,-0.2544,-0.1209,0.0254,0.1073,0.1982,0.2063,0.2081,0.2099,0.212,0.2146,0.2142,-1.4708,-1.4724,-1.4933,-1.5006,-1.5063,-1.535,-1.5512,-1.5569,-1.5853,-1.5925,-1.5942,-1.5869,-1.564,-1.5779,-1.5505,-1.4834,-1.3757,-1.2463,-1.1403,-1.0799,-0.9746,-0.8975,-0.8234,-0.7875,-0.7693,-0.7603,-0.7689,-0.777,-0.7836,-0.7905,-0.7946,-0.7938,-0.7885,-0.7823,-0.7757,-0.764,-0.7607,-0.7582,-0.7546,-0.7525,-0.7525,-0.7525,-0.7525,-0.7525,-0.7525,-0.7525,-0.7501,-0.7456,-0.7415,-0.7407,-0.7367,-0.7248,-0.717,-0.7084,-0.7068,-0.7031,-0.7068,-0.7019,-0.6998,-0.6998,-0.6998,-0.6998,-0.6986,-0.6986,-0.6986,-0.6982,-0.6978,-0.6978,-0.6962,-0.6973,-0.692,-0.6912,-0.6843,-0.6798,-0.6739,-0.6731,-0.6731,-0.6766,-0.6758,-0.6666,-0.6647,-0.6615,-0.6594,-0.6608,-0.6555,-0.6514,-0.6505,-0.6497,-0.6497,-0.6485,-0.6477,-0.6473,-0.646,-0.6452,-0.6419,-0.6403,-0.6345,-0.6317,-0.6271,-0.6271,-0.6271,-0.6105,-0.5628,-0.4344,-0.297,-0.1615,-0.0193,0.1121,0.1795,0.2001,0.2109,0.2123,0.2145,0.2171,0.2165,-1.4708,-1.4724,-1.4933,-1.5006,-1.5063,-1.5358,-1.552,-1.5537,-1.5861,-1.5999,-1.5999,-1.5975,-1.5966,-1.5942,-1.5837,-1.5498,-1.4794,-1.3735,-1.294,-1.2194,-1.0879,-0.9557,-0.8995,-0.8227,-0.7868,-0.7835,-0.7844,-0.786,-0.7925,-0.7995,-0.8044,-0.8081,-0.8053,-0.7954,-0.7897,-0.7819,-0.7742,-0.7627,-0.757,-0.7542,-0.7525,-0.7525,-0.7525,-0.7525,-0.7525,-0.7525,-0.7525,-0.7513,-0.7505,-0.7454,-0.7415,-0.7366,-0.7325,-0.7297,-0.7252,-0.7232,-0.7228,-0.7158,-0.7113,-0.7096,-0.706,-0.7015,-0.6998,-0.6998,-0.6994,-0.6994,-0.7003,-0.699,-0.699,-0.6978,-0.697,-0.699,-0.6958,-0.6941,-0.6929,-0.6925,-0.6929,-0.6917,-0.6872,-0.6747,-0.6733,-0.67,-0.6684,-0.666,-0.6615,-0.657,-0.6579,-0.6546,-0.6522,-0.6505,-0.6485,-0.6485,-0.6485,-0.6481,-0.6473,-0.6468,-0.6444,-0.6431,-0.6403,-0.6403,-0.6415,-0.6444,-0.583,-0.4843,-0.3474,-0.1998,-0.0523,0.0878,0.1726,0.1996,0.2069,0.2113,0.2143,0.2173,0.2177,-1.4846,-1.4854,-1.4974,-1.5063,-1.5147,-1.5359,-1.5569,-1.5683,-1.5885,-1.6007,-1.6007,-1.6007,-1.6007,-1.5983,-1.5967,-1.5861,-1.5513,-1.49,-1.3847,-1.2648,-1.1417,-0.9963,-0.9201,-0.8315,-0.8082,-0.7945,-0.797,-0.8036,-0.8015,-0.8089,-0.8146,-0.817,-0.8117,-0.8081,-0.7983,-0.7893,-0.7803,-0.7676,-0.7659,-0.7574,-0.7494,-0.749,-0.7525,-0.7525,-0.7525,-0.7525,-0.7525,-0.7525,-0.7525,-0.7517,-0.7484,-0.7464,-0.7444,-0.7415,-0.7354,-0.7326,-0.7306,-0.7289,-0.719,-0.7162,-0.7121,-0.7133,-0.7092,-0.7064,-0.706,-0.706,-0.7039,-0.7003,-0.699,-0.699,-0.6986,-0.699,-0.699,-0.699,-0.699,-0.699,-0.699,-0.699,-0.6929,-0.6851,-0.6823,-0.683,-0.6817,-0.6749,-0.6709,-0.6668,-0.6623,-0.6612,-0.6563,-0.6542,-0.6526,-0.6522,-0.6526,-0.653,-0.653,-0.653,-0.6534,-0.6526,-0.6522,-0.6522,-0.6522,-0.6538,-0.6367,-0.5771,-0.4226,-0.2567,-0.1428,-0.0199,0.0862,0.1961,0.208,0.2166,0.2188,0.2206,0.2204,-1.5023,-1.5025,-1.5017,-1.5122,-1.527,-1.5496,-1.5642,-1.5788,-1.5926,-1.6007,-1.6007,-1.6007,-1.6007,-1.6007,-1.5999,-1.5991,-1.5966,-1.5497,-1.4469,-1.3316,-1.2156,-1.0674,-0.944,-0.8311,-0.8187,-0.8055,-0.8104,-0.8158,-0.8056,-0.813,-0.8232,-0.8228,-0.8138,-0.8114,-0.8077,-0.7987,-0.7843,-0.7757,-0.7728,-0.7648,-0.7599,-0.7562,-0.7554,-0.7546,-0.7498,-0.7525,-0.7525,-0.7525,-0.7525,-0.7525,-0.7521,-0.7521,-0.7525,-0.7525,-0.746,-0.7346,-0.7317,-0.7309,-0.7272,-0.7235,-0.7219,-0.7265,-0.7186,-0.7162,-0.7154,-0.7145,-0.7117,-0.7039,-0.7023,-0.7007,-0.6994,-0.699,-0.699,-0.699,-0.699,-0.699,-0.699,-0.699,-0.699,-0.6937,-0.6945,-0.6924,-0.6903,-0.6895,-0.6823,-0.6766,-0.676,-0.6676,-0.6627,-0.6616,-0.6596,-0.6549,-0.6545,-0.6579,-0.6587,-0.6562,-0.657,-0.6578,-0.6574,-0.6574,-0.6578,-0.6582,-0.627,-0.5806,-0.4993,-0.3435,-0.2371,-0.0979,0.0508,0.1599,0.1993,0.2213,0.2186,0.2185,0.2181,-1.5057,-1.5164,-1.5164,-1.5278,-1.5448,-1.5658,-1.5788,-1.5804,-1.5934,-1.6007,-1.6007,-1.6007,-1.6007,-1.5999,-1.5991,-1.5999,-1.5966,-1.5853,-1.5533,-1.4693,-1.3217,-1.2077,-1.1387,-0.9371,-0.8623,-0.8311,-0.825,-0.8124,-0.8072,-0.8142,-0.8203,-0.8215,-0.8203,-0.8146,-0.8122,-0.8061,-0.7987,-0.7815,-0.7778,-0.777,-0.7742,-0.7716,-0.7683,-0.7619,-0.757,-0.7525,-0.7525,-0.7525,-0.7525,-0.7525,-0.7525,-0.7525,-0.7525,-0.7525,-0.7521,-0.7462,-0.745,-0.746,-0.7386,-0.7341,-0.7317,-0.7339,-0.7297,-0.7285,-0.7243,-0.7231,-0.7232,-0.7121,-0.7109,-0.7084,-0.7039,-0.7007,-0.6994,-0.6998,-0.7011,-0.6998,-0.699,-0.699,-0.699,-0.6986,-0.6949,-0.6958,-0.6954,-0.6949,-0.6937,-0.6912,-0.6854,-0.677,-0.6721,-0.6668,-0.6639,-0.6623,-0.6619,-0.6619,-0.6615,-0.6627,-0.6635,-0.6651,-0.6651,-0.6656,-0.6656,-0.6517,-0.5775,-0.5273,-0.4649,-0.3633,-0.1963,-0.0551,0.0622,0.1422,0.2056,0.2201,0.2206,0.2201,0.2191,-1.5106,-1.5106,-1.5309,-1.5399,-1.5536,-1.5699,-1.5837,-1.5934,-1.5966,-1.6007,-1.6007,-1.6007,-1.6007,-1.5983,-1.591,-1.5951,-1.5966,-1.5951,-1.5562,-1.5253,-1.3871,-1.2723,-1.14,-1.0268,-0.9462,-0.8515,-0.8391,-0.8301,-0.8179,-0.815,-0.8215,-0.826,-0.8223,-0.8183,-0.8125,-0.8127,-0.7995,-0.7893,-0.7827,-0.7799,-0.7774,-0.7757,-0.7704,-0.7704,-0.7578,-0.7542,-0.7529,-0.7525,-0.7525,-0.7525,-0.7525,-0.7525,-0.7525,-0.7525,-0.7525,-0.7521,-0.7482,-0.7501,-0.7468,-0.7423,-0.7399,-0.7399,-0.7404,-0.7371,-0.7363,-0.733,-0.7297,-0.7211,-0.724,-0.7215,-0.715,-0.7183,-0.7109,-0.7088,-0.706,-0.7023,-0.7007,-0.699,-0.699,-0.699,-0.699,-0.699,-0.699,-0.6978,-0.6966,-0.6937,-0.6916,-0.6867,-0.6782,-0.6737,-0.6713,-0.6705,-0.67,-0.6705,-0.6696,-0.6696,-0.6662,-0.6674,-0.6674,-0.6678,-0.6725,-0.6419,-0.574,-0.5075,-0.4537,-0.3227,-0.14,-0.0349,0.0594,0.1403,0.2221,0.2224,0.2225,0.2213,0.2206,-1.5195,-1.5074,-1.5423,-1.5601,-1.5618,-1.5788,-1.5918,-1.5991,-1.6007,-1.6007,-1.6007,-1.5999,-1.5983,-1.5942,-1.5902,-1.5943,-1.5991,-1.5902,-1.5247,-1.463,-1.3826,-1.2588,-1.1116,-1.0244,-0.9432,-0.8516,-0.8504,-0.8387,-0.8309,-0.8256,-0.8221,-0.8297,-0.8191,-0.8179,-0.817,-0.8151,-0.8023,-0.7974,-0.7913,-0.7885,-0.7864,-0.7831,-0.775,-0.7709,-0.7652,-0.7582,-0.7562,-0.7562,-0.7566,-0.7525,-0.7525,-0.7525,-0.7525,-0.7525,-0.7525,-0.7525,-0.7525,-0.7542,-0.7525,-0.7497,-0.7476,-0.7476,-0.7476,-0.7423,-0.7419,-0.7396,-0.7347,-0.7297,-0.733,-0.7322,-0.7302,-0.7289,-0.7256,-0.7166,-0.7133,-0.7084,-0.7039,-0.7027,-0.7003,-0.699,-0.699,-0.699,-0.699,-0.699,-0.6982,-0.6978,-0.6977,-0.6928,-0.6891,-0.6815,-0.6819,-0.6815,-0.6819,-0.6823,-0.6815,-0.6803,-0.6755,-0.6743,-0.6743,-0.6759,-0.6823,-0.6449,-0.5862,-0.5178,-0.4167,-0.2176,0.0,0.0248,0.053,0.1495,0.2256,0.2283,0.2278,0.2264,0.2232,-1.5351,-1.5213,-1.561,-1.5837,-1.5934,-1.5983,-1.5991,-1.6007,-1.6007,-1.6007,-1.6007,-1.5999,-1.5959,-1.5878,-1.5959,-1.5975,-1.6015,-1.5991,-1.5367,-1.4323,-1.3116,-1.2097,-1.0822,-0.9775,-0.8918,-0.8541,-0.8537,-0.8521,-0.8471,-0.8346,-0.8289,-0.8211,-0.8191,-0.8166,-0.82,-0.8176,-0.8127,-0.8052,-0.8061,-0.8057,-0.7991,-0.7942,-0.7852,-0.7835,-0.7819,-0.7742,-0.77,-0.7691,-0.7655,-0.755,-0.7546,-0.7546,-0.755,-0.7533,-0.749,-0.7525,-0.7546,-0.7574,-0.7591,-0.7554,-0.7521,-0.7521,-0.7513,-0.7497,-0.7488,-0.7505,-0.7464,-0.739,-0.7382,-0.7388,-0.7347,-0.7302,-0.7292,-0.7252,-0.7215,-0.717,-0.7117,-0.7064,-0.7039,-0.7003,-0.7007,-0.7039,-0.7023,-0.7031,-0.6998,-0.699,-0.6982,-0.6973,-0.6981,-0.6921,-0.6937,-0.6945,-0.6949,-0.6954,-0.6958,-0.6937,-0.69,-0.6892,-0.6892,-0.6917,-0.6945,-0.6448,-0.5597,-0.4011,-0.2632,-0.0616,0.0944,0.0971,0.1255,0.1883,0.2285,0.2303,0.2297,0.2256,0.2269,-1.5081,-1.4566,-1.5511,-1.5813,-1.574,-1.591,-1.6007,-1.6007,-1.6007,-1.6007,-1.5999,-1.5999,-1.5966,-1.5975,-1.5958,-1.6072,-1.6153,-1.6202,-1.5451,-1.4829,-1.387,-1.2567,-1.1223,-1.0021,-0.9513,-0.8776,-0.855,-0.8517,-0.8504,-0.8432,-0.8456,-0.8399,-0.8289,-0.8264,-0.8248,-0.8191,-0.8146,-0.8163,-0.8135,-0.8106,-0.8044,-0.7983,-0.7892,-0.7888,-0.7848,-0.7758,-0.7724,-0.7765,-0.7684,-0.7635,-0.7615,-0.7615,-0.7595,-0.7562,-0.7537,-0.7542,-0.757,-0.7619,-0.7675,-0.7582,-0.7529,-0.7525,-0.7525,-0.7525,-0.7525,-0.7525,-0.7474,-0.7446,-0.7468,-0.7431,-0.7435,-0.7423,-0.7415,-0.7354,-0.7301,-0.7256,-0.7207,-0.715,-0.7125,-0.7109,-0.7125,-0.7154,-0.7117,-0.708,-0.7039,-0.7003,-0.6994,-0.6994,-0.7003,-0.7011,-0.7019,-0.7023,-0.7023,-0.7023,-0.7027,-0.7011,-0.6994,-0.7003,-0.7011,-0.7023,-0.6926,-0.5713,-0.4685,-0.2947,-0.1422,0.011,0.1095,0.1488,0.1851,0.2186,0.2287,0.2272,0.2272,0.2283,0.2307,-1.4592,-1.4138,-1.5399,-1.5861,-1.5683,-1.5902,-1.6007,-1.6007,-1.6007,-1.5966,-1.5934,-1.5966,-1.5966,-1.5958,-1.6056,-1.6128,-1.6116,-1.5819,-1.4984,-1.4132,-1.3184,-1.2126,-1.0786,-0.9843,-0.9268,-0.8741,-0.8603,-0.8566,-0.8526,-0.8513,-0.8509,-0.8497,-0.8473,-0.8419,-0.8346,-0.826,-0.8191,-0.8188,-0.8176,-0.8122,-0.806,-0.8011,-0.7978,-0.7974,-0.7921,-0.7856,-0.7815,-0.7831,-0.7815,-0.7758,-0.7725,-0.7729,-0.7684,-0.7627,-0.7574,-0.7586,-0.7619,-0.7704,-0.7683,-0.7655,-0.7554,-0.7494,-0.7525,-0.7525,-0.7525,-0.7525,-0.7478,-0.7482,-0.7521,-0.7525,-0.7525,-0.7501,-0.745,-0.7427,-0.7374,-0.7329,-0.7292,-0.7248,-0.7277,-0.7265,-0.7273,-0.7223,-0.7207,-0.7158,-0.7088,-0.7035,-0.6994,-0.7011,-0.7056,-0.7064,-0.7076,-0.7076,-0.7076,-0.7072,-0.7072,-0.7068,-0.7072,-0.7125,-0.7125,-0.7109,-0.6732,-0.5479,-0.4155,-0.2775,-0.1222,0.0443,0.1365,0.1886,0.2095,0.2262,0.2296,0.2334,0.232,0.2335,0.2354,-1.3844,-1.3994,-1.5311,-1.595,-1.5958,-1.5991,-1.6007,-1.6007,-1.5999,-1.5926,-1.5869,-1.5934,-1.5975,-1.5934,-1.6162,-1.6174,-1.5808,-1.5103,-1.4005,-1.2786,-1.1828,-1.017,-0.9286,-0.8831,-0.896,-0.8697,-0.8607,-0.8599,-0.8591,-0.8583,-0.8558,-0.853,-0.8522,-0.8522,-0.8452,-0.8293,-0.8162,-0.8143,-0.8174,-0.8176,-0.8135,-0.8056,-0.8081,-0.8073,-0.804,-0.7987,-0.7913,-0.7978,-0.7946,-0.7831,-0.7856,-0.7848,-0.7795,-0.7709,-0.766,-0.7687,-0.77,-0.7712,-0.77,-0.7696,-0.7607,-0.7502,-0.7525,-0.7525,-0.7525,-0.7525,-0.7525,-0.7525,-0.7525,-0.7525,-0.7525,-0.7525,-0.7474,-0.7458,-0.7439,-0.7411,-0.7378,-0.7358,-0.735,-0.7346,-0.7343,-0.7306,-0.7302,-0.7273,-0.715,-0.708,-0.7015,-0.7031,-0.7101,-0.7129,-0.7145,-0.715,-0.7183,-0.7191,-0.7191,-0.7137,-0.7154,-0.7215,-0.7269,-0.7236,-0.6518,-0.5236,-0.3895,-0.2558,-0.075,0.1158,0.184,0.2381,0.2359,0.234,0.2373,0.238,0.2403,0.2385,0.2436,-1.3254,-1.2814,-1.4106,-1.5167,-1.5925,-1.6007,-1.6007,-1.6007,-1.5999,-1.5966,-1.5934,-1.5991,-1.6056,-1.6154,-1.6118,-1.5958,-1.5222,-1.4966,-1.3707,-1.145,-1.0711,-0.9854,-0.9001,-0.8607,-0.8607,-0.8607,-0.8607,-0.8607,-0.8607,-0.8615,-0.8603,-0.8575,-0.8554,-0.8538,-0.8526,-0.844,-0.8358,-0.8361,-0.8307,-0.8179,-0.8146,-0.8097,-0.8102,-0.8106,-0.8109,-0.8072,-0.7925,-0.8068,-0.8048,-0.7917,-0.7942,-0.7888,-0.788,-0.7803,-0.7729,-0.7745,-0.7741,-0.7721,-0.7724,-0.7696,-0.7659,-0.7562,-0.7525,-0.7525,-0.7525,-0.7525,-0.7525,-0.7525,-0.7525,-0.7525,-0.7525,-0.7525,-0.7482,-0.7482,-0.7488,-0.7488,-0.7472,-0.7464,-0.746,-0.7464,-0.7439,-0.7382,-0.7362,-0.7333,-0.7256,-0.7227,-0.7178,-0.7158,-0.7211,-0.7215,-0.7265,-0.7265,-0.7265,-0.7273,-0.7273,-0.7227,-0.7231,-0.7318,-0.7314,-0.7281,-0.6307,-0.4894,-0.3523,-0.2085,-0.0076,0.1817,0.2129,0.244,0.2435,0.2424,0.2421,0.2424,0.2442,0.2457,0.2466,-1.263,-1.2293,-1.4004,-1.5175,-1.5925,-1.6007,-1.6007,-1.6007,-1.6007,-1.6007,-1.5999,-1.6007,-1.6096,-1.6276,-1.6271,-1.5763,-1.4743,-1.4116,-1.3092,-1.0816,-1.011,-0.9402,-0.8826,-0.8607,-0.8607,-0.8607,-0.8607,-0.8611,-0.8611,-0.864,-0.8673,-0.8673,-0.8583,-0.8595,-0.8587,-0.8542,-0.8432,-0.8379,-0.8293,-0.8232,-0.8179,-0.8163,-0.8106,-0.8118,-0.8139,-0.8089,-0.8052,-0.8076,-0.8134,-0.8027,-0.7999,-0.7957,-0.7962,-0.7893,-0.7819,-0.7795,-0.7762,-0.7758,-0.7728,-0.7749,-0.7672,-0.7595,-0.755,-0.7525,-0.7525,-0.7525,-0.7525,-0.7525,-0.7533,-0.7533,-0.7498,-0.7498,-0.7542,-0.7542,-0.7533,-0.7533,-0.7525,-0.7517,-0.7509,-0.7521,-0.7517,-0.7476,-0.7448,-0.7419,-0.737,-0.7362,-0.7392,-0.7371,-0.7351,-0.7347,-0.7317,-0.7329,-0.7329,-0.7371,-0.7371,-0.7363,-0.7333,-0.7392,-0.7341,-0.7329,-0.5749,-0.4316,-0.2992,-0.153,0.0499,0.2002,0.2269,0.2461,0.2463,0.2466,0.2467,0.2473,0.2484,0.2487,0.2491,-1.1922,-1.2452,-1.4796,-1.5801,-1.6007,-1.6007,-1.6007,-1.6007,-1.6007,-1.6007,-1.6007,-1.6007,-1.6104,-1.6274,-1.6444,-1.563,-1.4359,-1.3312,-1.1859,-1.055,-0.9406,-0.8831,-0.8652,-0.8607,-0.8607,-0.8607,-0.8611,-0.8619,-0.8624,-0.8632,-0.8758,-0.8795,-0.8677,-0.8681,-0.8664,-0.8624,-0.8505,-0.8436,-0.837,-0.8301,-0.8232,-0.8134,-0.8131,-0.8131,-0.8143,-0.8155,-0.8109,-0.8154,-0.815,-0.8121,-0.8125,-0.8151,-0.8102,-0.7983,-0.7913,-0.7868,-0.7844,-0.7762,-0.7753,-0.7794,-0.7782,-0.7668,-0.7603,-0.7558,-0.7558,-0.7586,-0.7595,-0.7591,-0.7555,-0.7535,-0.7519,-0.7566,-0.7574,-0.7566,-0.7519,-0.755,-0.7542,-0.7533,-0.7525,-0.7525,-0.7525,-0.7505,-0.7501,-0.748,-0.7448,-0.7452,-0.7439,-0.7427,-0.7407,-0.7399,-0.7411,-0.7413,-0.7448,-0.7439,-0.7431,-0.7411,-0.7419,-0.7431,-0.7378,-0.7146,-0.5459,-0.3938,-0.2757,-0.1203,0.1016,0.223,0.2413,0.2492,0.2503,0.2504,0.2495,0.2496,0.2499,0.2503,0.2507,-1.0975,-1.2039,-1.2882,-1.43,-1.5883,-1.6007,-1.6007,-1.6007,-1.6007,-1.6007,-1.6007,-1.6007,-1.6112,-1.6274,-1.5462,-1.4428,-1.3184,-1.1853,-1.054,-0.9491,-0.8875,-0.8697,-0.8607,-0.8607,-0.8607,-0.8607,-0.8615,-0.8632,-0.864,-0.8688,-0.8787,-0.8828,-0.8766,-0.8775,-0.8779,-0.8779,-0.8656,-0.855,-0.8477,-0.8399,-0.8313,-0.8223,-0.8166,-0.818,-0.8195,-0.8203,-0.8215,-0.824,-0.8223,-0.8187,-0.8163,-0.8122,-0.8106,-0.8036,-0.8011,-0.7929,-0.7856,-0.7782,-0.777,-0.7782,-0.7791,-0.7774,-0.7733,-0.7725,-0.7721,-0.7709,-0.7705,-0.7684,-0.768,-0.7672,-0.7668,-0.7672,-0.7672,-0.7664,-0.7648,-0.7623,-0.7615,-0.7595,-0.7582,-0.757,-0.757,-0.7562,-0.7558,-0.7517,-0.7493,-0.7513,-0.7517,-0.7501,-0.7488,-0.7472,-0.7472,-0.747,-0.7474,-0.7488,-0.7493,-0.748,-0.7497,-0.7474,-0.7209,-0.6779,-0.5516,-0.4066,-0.2701,-0.0902,0.1217,0.2121,0.2472,0.2514,0.2514,0.2514,0.2507,0.2511,0.2514,0.2514,0.2514,-1.0559,-1.1902,-1.2615,-1.4086,-1.5785,-1.5926,-1.5975,-1.5991,-1.6007,-1.6007,-1.6007,-1.6007,-1.6145,-1.6195,-1.5125,-1.3896,-1.2747,-1.1444,-1.0065,-0.9049,-0.8607,-0.8607,-0.8607,-0.8607,-0.8607,-0.8607,-0.8615,-0.8628,-0.8652,-0.8779,-0.884,-0.8918,-0.8856,-0.8852,-0.8856,-0.889,-0.8807,-0.8713,-0.8628,-0.8554,-0.8464,-0.837,-0.8301,-0.8281,-0.8311,-0.8282,-0.8342,-0.8319,-0.8225,-0.8228,-0.8188,-0.8106,-0.8102,-0.8098,-0.8019,-0.7954,-0.7938,-0.786,-0.7823,-0.7921,-0.7876,-0.7872,-0.788,-0.7901,-0.7864,-0.7831,-0.7803,-0.7774,-0.7782,-0.7791,-0.7795,-0.7795,-0.7795,-0.7791,-0.7794,-0.7757,-0.7693,-0.7668,-0.7652,-0.764,-0.7631,-0.7623,-0.7599,-0.7558,-0.7542,-0.7566,-0.7558,-0.7517,-0.7513,-0.7505,-0.7501,-0.7478,-0.7482,-0.7517,-0.7447,-0.717,-0.6857,-0.658,-0.619,-0.5678,-0.4975,-0.3368,-0.1294,0.0078,0.1334,0.2002,0.2514,0.2514,0.2514,0.2515,0.2518,0.2518,0.2517,0.2514,0.2514,-1.0513,-1.2046,-1.3521,-1.4878,-1.59,-1.5886,-1.5902,-1.5958,-1.5793,-1.5917,-1.5966,-1.5842,-1.5886,-1.5636,-1.4323,-1.3238,-1.2038,-1.0796,-0.9669,-0.8607,-0.8607,-0.8607,-0.8607,-0.8607,-0.8607,-0.8607,-0.8615,-0.8632,-0.8677,-0.8783,-0.8918,-0.8999,-0.8971,-0.8938,-0.8905,-0.8952,-0.8893,-0.8897,-0.8824,-0.8754,-0.8673,-0.8591,-0.8522,-0.8542,-0.8497,-0.8436,-0.8497,-0.8384,-0.8221,-0.826,-0.8199,-0.8135,-0.8106,-0.8102,-0.8011,-0.7999,-0.8003,-0.7999,-0.7962,-0.7999,-0.802,-0.7991,-0.8011,-0.8061,-0.8016,-0.7971,-0.7934,-0.7921,-0.7934,-0.7889,-0.7893,-0.7893,-0.7893,-0.7876,-0.7848,-0.7819,-0.7799,-0.7762,-0.7729,-0.7717,-0.7705,-0.7697,-0.7701,-0.7668,-0.7644,-0.7648,-0.7635,-0.7591,-0.7578,-0.7578,-0.755,-0.7515,-0.7523,-0.7362,-0.674,-0.6424,-0.5955,-0.5564,-0.5019,-0.427,-0.3368,-0.1568,0.0392,0.1256,0.1963,0.216,0.2514,0.2515,0.2519,0.2527,0.2527,0.2525,0.2523,0.2527,0.2518,-0.9663,-1.2056,-1.4512,-1.576,-1.5958,-1.5958,-1.5958,-1.5875,-1.4878,-1.5085,-1.5669,-1.5017,-1.4624,-1.4534,-1.26,-1.1443,-1.1006,-1.0091,-0.909,-0.8697,-0.8607,-0.8607,-0.8607,-0.8607,-0.8611,-0.8607,-0.8615,-0.8611,-0.8746,-0.8869,-0.8938,-0.8918,-0.893,-0.8942,-0.8962,-0.8967,-0.8995,-0.8985,-0.8969,-0.8851,-0.8758,-0.8668,-0.8619,-0.8656,-0.8603,-0.8595,-0.8619,-0.8591,-0.8481,-0.8428,-0.826,-0.8146,-0.811,-0.8106,-0.8094,-0.804,-0.8048,-0.8061,-0.8053,-0.8065,-0.8073,-0.8081,-0.809,-0.8098,-0.8086,-0.8057,-0.804,-0.8036,-0.8032,-0.8028,-0.7983,-0.7983,-0.7978,-0.7958,-0.7942,-0.7921,-0.7901,-0.786,-0.7815,-0.7799,-0.7787,-0.7787,-0.7795,-0.7778,-0.7758,-0.7754,-0.7758,-0.7738,-0.7729,-0.7717,-0.7635,-0.7588,-0.7548,-0.7259,-0.643,-0.5313,-0.4653,-0.3898,-0.3227,-0.2476,-0.1688,-0.0355,0.1068,0.181,0.2435,0.2525,0.2529,0.2518,0.2523,0.254,0.2549,0.2551,0.2563,0.2571,0.2547,-0.937,-1.2046,-1.4741,-1.5934,-1.5983,-1.5918,-1.5967,-1.5752,-1.4589,-1.4424,-1.4878,-1.3859,-1.3248,-1.3209,-1.1229,-1.0368,-1.0224,-0.9202,-0.8826,-0.8652,-0.8607,-0.8607,-0.8607,-0.8611,-0.8648,-0.8652,-0.8673,-0.868,-0.8782,-0.8877,-0.896,-0.8918,-0.8946,-0.8979,-0.902,-0.904,-0.9038,-0.9091,-0.9095,-0.8985,-0.881,-0.8794,-0.8823,-0.8848,-0.882,-0.8802,-0.8778,-0.875,-0.8595,-0.8456,-0.8277,-0.818,-0.811,-0.8102,-0.8102,-0.8098,-0.8102,-0.8102,-0.8102,-0.8102,-0.8106,-0.811,-0.8106,-0.8106,-0.8176,-0.8147,-0.811,-0.8106,-0.8077,-0.8069,-0.8069,-0.8069,-0.8069,-0.8015,-0.8007,-0.7999,-0.7987,-0.8012,-0.7991,-0.7983,-0.7921,-0.7897,-0.788,-0.7819,-0.7811,-0.7836,-0.7844,-0.7811,-0.7815,-0.7762,-0.7686,-0.7273,-0.6963,-0.6551,-0.5688,-0.4392,-0.3108,-0.2305,-0.1387,-0.0557,0.024,0.0798,0.1595,0.219,0.2548,0.2557,0.2556,0.2545,0.2552,0.2574,0.2579,0.2581,0.2597,0.2609,0.2587,-0.9361,-1.2018,-1.4721,-1.5902,-1.5975,-1.5886,-1.5902,-1.5695,-1.4424,-1.3762,-1.3556,-1.2181,-1.1873,-1.1632,-1.0789,-1.0505,-0.9954,-0.9028,-0.8648,-0.8607,-0.8607,-0.8607,-0.8607,-0.8611,-0.8656,-0.8717,-0.8766,-0.8824,-0.8901,-0.8909,-0.8918,-0.8979,-0.9016,-0.9052,-0.9036,-0.9069,-0.907,-0.9091,-0.9087,-0.9054,-0.9048,-0.9011,-0.9024,-0.902,-0.9003,-0.8991,-0.8932,-0.8843,-0.8689,-0.8481,-0.8297,-0.8188,-0.8131,-0.8122,-0.8114,-0.8114,-0.8102,-0.8102,-0.8102,-0.8102,-0.8114,-0.8122,-0.8118,-0.8159,-0.8187,-0.8199,-0.8162,-0.8168,-0.8143,-0.8114,-0.8114,-0.8102,-0.8102,-0.8102,-0.8098,-0.8098,-0.8094,-0.8094,-0.809,-0.809,-0.8065,-0.7991,-0.795,-0.7885,-0.7889,-0.7872,-0.7864,-0.7864,-0.7811,-0.77,-0.761,-0.6554,-0.5567,-0.5147,-0.4626,-0.3155,-0.1531,-0.0402,0.0482,0.1375,0.1948,0.1939,0.2016,0.2306,0.2592,0.2589,0.2589,0.2583,0.2594,0.2607,0.2608,0.2612,0.2628,0.2637,0.2627,-0.9336,-1.2109,-1.4806,-1.5933,-1.595,-1.5917,-1.5975,-1.5587,-1.3466,-1.2471,-1.189,-1.0112,-0.9427,-1.0561,-0.9291,-0.8926,-0.9211,-0.8659,-0.8648,-0.8607,-0.8607,-0.8607,-0.8624,-0.8648,-0.8668,-0.875,-0.884,-0.8885,-0.8926,-0.8893,-0.8815,-0.8754,-0.8803,-0.8864,-0.8934,-0.8995,-0.9042,-0.9074,-0.9091,-0.9066,-0.9085,-0.9048,-0.9016,-0.9011,-0.9007,-0.9005,-0.9018,-0.8957,-0.882,-0.8591,-0.835,-0.8179,-0.8121,-0.813,-0.8163,-0.8139,-0.8122,-0.811,-0.8114,-0.8093,-0.8113,-0.815,-0.8166,-0.8211,-0.8268,-0.8309,-0.8264,-0.8258,-0.8221,-0.8168,-0.8151,-0.8114,-0.8102,-0.8102,-0.8102,-0.8102,-0.8098,-0.8098,-0.8098,-0.8098,-0.809,-0.8036,-0.8027,-0.7995,-0.7995,-0.8007,-0.8007,-0.7974,-0.7921,-0.7746,-0.7433,-0.5956,-0.4487,-0.3621,-0.2974,-0.1427,0.0122,0.1259,0.2031,0.2163,0.2329,0.2481,0.2602,0.2619,0.2615,0.2607,0.2608,0.262,0.2587,0.2598,0.2597,0.2602,0.2618,0.2664,0.2656]},{"header":{"parameterUnit":"m.s-1","parameterCategory":1,"la1":31.0,"la2":29.5877,"lo1":-88.7671,"lo2":-86.6584,"dx":0.0162,"dy":0.0185,"nx":115,"ny":88,"refTime":"2023-02-03T06:00:00:Z","depth":0,"parameterNumber":3,"parameterNumberName":"V-component_of_WINDS"},"data":[0.0,0.0,0.0,0.0,0.0,0.0,0.0,0.0,0.0,0.0,0.0,0.0,0.0,0.0,0.0,0.0,0.0,0.0,0.0,0.0,0.0,0.0,0.0,0.0,0.0,0.0,0.0,0.0,0.0,0.0,0.0,0.0,0.0,0.0,0.0,0.0,0.0,0.0,0.0,0.0,0.0,0.0,0.0,0.0,0.0,0.0,0.0,0.0,0.0,0.0,0.0,0.0,0.0,0.0,0.0,0.0,0.0,0.0,0.0,0.0,0.0,0.0,0.0,0.0,0.0,0.0,0.0,0.0,0.0,0.0,0.0,0.0,0.0,0.0,0.0,0.0,0.0,0.0,0.0,0.0,0.0,0.0,0.0,0.0,0.0,0.0,0.0,0.0,0.0,0.0,0.0,0.0,0.0,0.0,0.0,0.0,0.0,0.0,0.0,0.0,0.0,0.0,0.0,0.0,0.0,0.0,0.0,0.0,0.0,0.0,0.0,0.0,0.0,0.0,0.0,0.0,0.0,0.0,0.0,0.0,0.0,0.0,0.0,0.0,0.0,0.0,0.0,0.0,0.0,0.0,0.0,0.0,0.0,0.0,0.0,0.0,0.0,0.0,0.0,0.0,0.0,0.0,0.0,0.0,0.0,0.0,0.0,0.0,0.0,0.0,0.0,0.0,0.0,0.0,0.0,0.0,0.0,0.0,0.0,0.0,0.0,0.0,0.0,0.0,0.0,0.0,0.0,0.0,0.0,0.0,0.0,0.0,0.0,0.0,0.0,0.0,0.0,0.0,0.0,0.0,0.0,0.0,0.0,0.0,0.0,0.0,0.0,0.0,0.0,0.0,0.0,0.0,0.0,0.0,0.0,0.0,0.0,0.0,0.0,0.0,0.0,0.0,0.0,0.0,0.0,0.0,0.0,0.0,0.0,0.0,0.0,0.0,0.0,0.0,0.0,0.0,0.0,0.0,0.0,0.0,0.0,0.0,0.0,0.0,0.0,0.0,0.0,0.0,0.0,0.0,0.0,0.0,0.0,0.0,0.0,0.0,0.0,0.0,0.0,0.0,0.0,0.0,0.0,0.0,0.0,0.0,0.0,0.0,0.0,0.0,0.0,0.0,0.0,0.0,0.0,0.0,0.0,0.0,0.0,0.0,0.0,0.0,0.0,0.0,0.0,0.0,0.0,0.0,0.0,0.0,0.0,0.0,0.0,0.0,0.0,0.0,0.0,0.0,0.0,0.0,0.0,0.0,0.0,0.0,0.0,0.0,0.0,0.0,0.0,0.0,0.0,0.0,0.0,0.0,0.0,0.0,0.0,0.0,0.0,0.0,0.0,0.0,0.0,0.0,0.0,0.0,0.0,0.0,0.0,0.0,0.0,0.0,0.0,0.0,0.0,0.0,0.0,0.0,0.0,0.0,0.0,0.0,0.0,0.0,0.0,0.0,0.0,0.0,0.0,0.0,0.0,0.0,0.0,0.0,0.0,0.0,0.0,0.0,0.0,0.0,0.0,0.0,0.0,0.0,0.0,0.0,0.0,0.0,0.0,0.0,0.0,0.0,0.0,0.0,0.0,0.0,0.0,0.0,0.0,0.0,0.0,0.0,0.0,0.0,0.0,0.0,0.0,0.0,0.0,0.0,0.0,0.0,0.0,0.0,0.0,0.0,0.0,0.0,0.0,0.0,0.0,0.0,0.0,0.0,0.0,0.0,0.0,0.0,0.0,0.0,0.0,0.0,0.0,0.0,0.0,0.0,0.0,0.0,0.0,0.0,0.0,0.0,0.0,0.0,0.0,0.0,0.0,0.0,0.0,0.0,0.0,0.0,0.0,0.0,0.0,0.0,0.0,0.0,0.0,0.0,0.0,0.0,0.0,0.0,0.0,0.0,0.0,0.0,0.0,0.0,0.0,0.0,0.0,0.0,0.0,0.0,0.0,0.0,0.0,0.0,0.0,0.0,0.0,0.0,0.0,0.0,0.0,0.0,0.0,0.0,0.0,0.0,0.0,0.0,0.0,0.0,0.0,0.0,0.0,0.0,0.0,0.0,0.0,0.0,0.0,0.0,0.0,0.0,0.0,0.0,0.0,0.0,0.0,0.0,0.0,0.0,0.0,0.0,0.0,0.0,0.0,0.0,0.0,0.0,0.0,0.0,0.0,0.0,0.0,0.0,0.0,0.0,0.0,0.0,0.0,0.0,0.0,0.0,0.0,0.0,0.0,0.0,0.0,0.0,0.0,0.0,0.0,0.0,0.0,0.0,0.0,0.0,0.0,0.0,0.0,0.0,0.0,0.0,0.0,0.0,0.0,0.0,0.0,0.0,0.0,0.0,0.0,0.0,0.0,0.0,0.0,0.0,0.0,0.0,0.0,0.0,0.0,0.0,0.0,0.0,0.0,0.0,0.0,0.0,0.0,0.0,0.0,0.0,0.0,0.0,0.0,0.0,0.0,0.0,0.0,0.0,0.0,0.0,0.0,0.0,0.0,0.0,0.0,0.0,0.0,0.0,0.0,0.0,0.0,0.0,0.0,0.0,0.0,0.0,0.0,0.0,0.0,0.0,0.0,0.0,0.0,0.0,0.0,0.0,0.0,0.0,0.0,0.0,0.0,0.0,0.0,0.0,0.0,0.0,0.0,0.0,0.0,0.0,0.0,0.0,0.0,0.0,0.0,0.0,0.0,0.0,0.0,0.0,0.0,0.0,0.0,0.0,0.0,0.0,0.0,0.0,0.0,0.0,0.0,0.0,0.0,0.0,0.0,0.0,0.0,0.0,0.0,0.0,0.0,0.0,0.0,0.0,0.0,0.0,0.0,0.0,0.0,0.0,0.0,0.0,0.0,0.0,0.0,0.0,0.0,0.0,0.0,0.0,0.0,0.0,0.0,0.0,0.0,0.0,0.0,0.0,0.0,0.0,0.0,0.0,0.0,0.0,0.0,0.0,0.0,0.0,0.0,0.0,0.0,0.0,0.0,0.0,0.0,0.0,0.0,0.0,0.0,0.0,0.0,0.0,0.0,0.0,0.0,0.0,0.0,0.0,0.0,0.0,0.0,0.0,0.0,0.0,0.0,0.0,0.0,0.0,0.0,0.0,0.0,0.0,0.0,0.0,0.0,0.0,0.0,0.0,0.0,0.0,0.0,0.0,0.0,0.0,0.0,0.0,0.0,0.0,0.0,0.0,0.0,0.0,0.0,0.0,0.0,0.0,0.0,0.0,0.0,0.0,0.0,0.0,0.0,0.0,0.0,0.0,0.0,0.0,0.0,0.0,0.0,0.0,0.0,0.0,0.0,0.0,0.0,0.0,0.0,0.0,0.0,0.0,0.0,0.0,0.0,0.0,0.0,0.0,0.0,0.0,0.0,0.0,0.0,0.0,0.0,0.0,0.0,0.0,0.0,0.0,0.0,0.0,0.0,0.0,0.0,0.0,0.0,0.0,0.0,0.0,0.0,0.0,0.0,0.0,0.0,0.0,0.0,0.0,0.0,0.0,0.0,0.0,0.0,0.0,0.0,0.0,0.0,0.0,0.0,0.0,0.0,0.0,0.0,0.0,0.0,0.0,0.0,0.0,0.0,0.0,0.0,0.0,0.0,0.0,0.0,0.0,0.0,0.0,0.0,0.0,0.0,0.0,0.0,0.0,0.0,0.0,0.0,0.0,0.0,0.0,0.0,0.0,0.0,0.0,0.0,0.0,0.0,0.0,0.0,0.0,0.0,0.0,0.0,0.0,0.0,0.0,0.0,0.0,0.0,0.0,0.0,0.0,0.0,0.0,0.0,0.0,0.0,0.0,0.0,0.0,0.0,0.0,0.0,0.0,0.0,0.0,0.0,0.0,0.0,0.0,0.0,0.0,0.0,0.0,0.0,0.0,0.0,0.0,0.0,0.0,0.0,0.0,0.0,0.0,0.0,0.0,0.0,0.0,0.0,0.0,0.0,0.0,0.0,0.0,0.0,0.0,0.0,0.0,0.0,0.0,0.0,0.0,0.0,0.0,0.0,0.0,0.0,0.0,0.0,0.0,0.0,0.0,0.0,0.0,0.0,0.0,0.0,0.0,0.0,0.0,0.0,0.0,0.0,0.0,0.0,0.0,0.0,0.0,0.0,0.0,0.0,0.0,0.0,0.0,0.0,0.0,0.0,0.0,0.0,0.0,0.0,0.0,0.0,0.0,0.0,0.0,0.0,0.0,0.0,0.0,0.0,0.0,0.0,0.0,0.0,0.0,0.0,0.0,0.0,0.0,0.0,0.0,0.0,0.0,0.0,0.0,0.0,0.0,1.7408,0.0,0.0,0.0,0.0,0.0,0.0,0.0,0.0,0.0,0.0,0.0,0.0,0.0,0.0,0.0,0.0,0.0,0.0,0.0,0.0,0.0,0.0,0.0,0.0,0.0,0.0,0.0,0.0,0.0,0.0,0.0,0.0,0.0,0.0,0.0,0.0,0.0,0.0,0.0,0.0,0.0,0.0,0.0,0.0,0.0,0.0,0.0,0.0,0.0,0.0,0.0,0.0,0.0,0.0,0.0,0.0,0.0,0.0,0.0,0.0,0.0,0.0,0.0,0.0,0.0,0.0,0.0,0.0,0.0,0.0,0.0,0.0,0.0,0.0,0.0,0.0,0.0,0.0,0.0,0.0,0.0,0.0,0.0,0.0,0.0,0.0,0.0,0.0,0.0,0.0,0.0,0.0,0.0,0.0,0.0,0.0,0.0,0.0,0.0,0.0,0.0,0.0,0.0,0.0,0.0,0.0,0.0,0.0,0.0,0.0,1.5126,1.5982,1.5943,1.6715,1.8451,0.0,0.0,0.0,0.0,0.0,0.0,0.0,0.0,0.0,0.0,0.0,0.0,0.0,0.0,0.0,0.0,0.0,0.0,0.0,0.0,0.0,0.0,0.0,0.0,0.0,0.0,0.0,0.0,0.0,0.0,0.0,0.0,0.0,0.0,0.0,0.0,0.0,0.0,0.0,0.0,0.0,0.0,0.0,0.0,0.0,0.0,0.0,0.0,0.0,0.0,0.0,0.0,0.0,0.0,0.0,0.0,0.0,0.0,0.0,0.0,0.0,0.0,0.0,0.0,0.0,0.0,0.0,0.0,0.0,0.0,0.0,0.0,0.0,0.0,0.0,0.0,0.0,0.0,0.0,0.0,0.0,0.0,0.0,0.0,0.0,0.0,0.0,0.0,0.0,0.0,0.0,0.0,0.0,0.0,0.0,0.0,0.0,0.0,0.0,0.0,0.0,0.0,0.0,0.0,0.0,0.0,0.0,0.0,0.0,0.0,0.0,0.0,1.6213,1.6984,1.9262,0.0,0.0,0.0,0.0,0.0,0.0,0.0,0.0,0.0,0.0,0.0,0.0,0.0,0.0,0.0,0.0,0.0,0.0,0.0,0.0,0.0,0.0,0.0,0.0,0.0,0.0,0.0,0.0,0.0,0.0,0.0,0.0,0.0,0.0,0.0,0.0,0.0,0.0,0.0,0.0,0.0,0.0,0.0,0.0,0.0,0.0,0.0,0.0,0.0,0.0,0.0,0.0,0.0,0.0,0.0,0.0,0.0,0.0,0.0,0.0,0.0,0.0,0.0,0.0,0.0,0.0,0.0,0.0,0.0,0.0,0.0,0.0,0.0,0.0,0.0,0.0,0.0,0.0,0.0,0.0,0.0,0.0,0.0,0.0,0.0,0.0,0.0,0.0,0.0,0.0,0.0,0.0,0.0,0.0,0.0,0.0,0.0,0.0,0.0,0.0,0.0,0.0,0.0,0.0,0.0,0.0,0.0,0.0,0.0,0.0,1.6869,1.7678,1.7602,0.0,2.0149,0.0,0.0,0.0,0.0,0.0,0.0,0.0,0.0,0.0,0.0,0.0,0.0,0.0,0.0,0.0,0.0,0.0,0.0,0.0,0.0,0.0,0.0,0.0,0.0,0.0,0.0,0.0,0.0,0.0,0.0,0.0,0.0,0.0,0.0,0.0,0.0,0.0,0.0,0.0,0.0,0.0,0.0,0.0,0.0,0.0,0.0,0.0,0.0,0.0,0.0,0.0,0.0,0.0,0.0,0.0,0.0,0.0,0.0,0.0,0.0,0.0,0.0,0.0,0.0,0.0,0.0,0.0,0.0,0.0,0.0,0.0,0.0,0.0,0.0,0.0,0.0,0.0,0.0,0.0,0.0,0.0,0.0,0.0,0.0,0.0,0.0,0.0,0.0,0.0,0.0,0.0,0.0,0.0,0.0,0.0,0.0,0.0,0.0,0.0,0.0,0.0,0.0,0.0,0.0,0.0,0.0,0.0,0.0,0.0,0.0,1.6985,1.7794,1.8297,1.9145,0.0,0.0,0.0,0.0,0.0,0.0,0.0,0.0,0.0,0.0,0.0,0.0,0.0,0.0,0.0,0.0,0.0,0.0,0.0,0.0,0.0,0.0,0.0,0.0,0.0,0.0,0.0,0.0,0.0,0.0,0.0,0.0,0.0,0.0,0.0,0.0,0.0,0.0,0.0,0.0,0.0,0.0,0.0,0.0,0.0,0.0,0.0,0.0,0.0,0.0,0.0,0.0,0.0,0.0,0.0,0.0,0.0,0.0,0.0,0.0,0.0,0.0,0.0,0.0,0.0,0.0,0.0,0.0,0.0,0.0,0.0,0.0,0.0,0.0,0.0,0.0,0.0,0.0,0.0,0.0,0.0,0.0,0.0,0.0,0.0,0.0,0.0,0.0,0.0,0.0,0.0,0.0,0.0,0.0,0.0,0.0,0.0,0.0,0.0,0.0,0.0,0.0,0.0,0.0,0.0,0.0,0.0,0.0,0.0,0.0,1.7063,1.7215,1.7792,1.8873,1.9723,2.0381,0.0,0.0,0.0,0.0,0.0,0.0,0.0,0.0,0.0,0.0,0.0,0.0,0.0,0.0,0.0,0.0,0.0,0.0,0.0,0.0,0.0,0.0,0.0,0.0,0.0,0.0,0.0,0.0,0.0,0.0,0.0,0.0,0.0,0.0,0.0,0.0,0.0,0.0,0.0,0.0,0.0,0.0,0.0,0.0,0.0,0.0,0.0,0.0,0.0,0.0,0.0,0.0,0.0,0.0,0.0,0.0,0.0,0.0,0.0,0.0,0.0,0.0,0.0,0.0,0.0,0.0,0.0,0.0,0.0,0.0,0.0,0.0,0.0,0.0,0.0,0.0,0.0,0.0,0.0,0.0,0.0,0.0,0.0,0.0,0.0,0.0,0.0,0.0,0.0,0.0,0.0,0.0,0.0,0.0,0.0,0.0,0.0,0.0,0.0,0.0,0.0,0.0,0.0,0.0,0.0,0.0,0.0,0.0,1.8956,1.8182,1.7757,1.7833,1.9369,2.0294,0.0,0.0,0.0,0.0,0.0,0.0,0.0,0.0,0.0,0.0,0.0,0.0,0.0,0.0,0.0,0.0,0.0,0.0,0.0,0.0,0.0,0.0,0.0,0.0,0.0,0.0,0.0,0.0,0.0,0.0,0.0,0.0,0.0,0.0,0.0,0.0,0.0,0.0,0.0,0.0,0.0,0.0,0.0,0.0,0.0,0.0,0.0,0.0,0.0,0.0,0.0,0.0,0.0,0.0,0.0,0.0,0.0,0.0,0.0,0.0,0.0,0.0,0.0,0.0,0.0,0.0,0.0,0.0,0.0,0.0,0.0,0.0,0.0,0.0,0.0,0.0,0.0,0.0,0.0,0.0,0.0,0.0,0.0,0.0,0.0,0.0,0.0,0.0,0.0,0.0,0.0,0.0,0.0,0.0,0.0,0.0,0.0,0.0,0.0,0.0,0.0,0.0,0.0,0.0,0.0,0.0,0.0,0.0,0.0,1.9158,1.8805,1.836,1.7871,1.8892,1.9507,0.0,0.0,0.0,0.0,0.0,0.0,0.0,0.0,0.0,0.0,0.0,0.0,0.0,0.0,0.0,0.0,0.0,0.0,0.0,0.0,0.0,0.0,0.0,0.0,0.0,0.0,0.0,0.0,0.0,0.0,0.0,0.0,0.0,0.0,0.0,0.0,0.0,0.0,0.0,0.0,0.0,0.0,0.0,0.0,0.0,0.0,0.0,0.0,0.0,0.0,0.0,0.0,0.0,0.0,0.0,0.0,0.0,0.0,0.0,0.0,0.0,0.0,0.0,0.0,0.0,0.0,0.0,0.0,0.0,0.0,0.0,0.0,0.0,0.0,0.0,0.0,0.0,0.0,0.0,0.0,0.0,0.0,0.0,0.0,0.0,0.0,0.0,0.0,0.0,0.0,0.0,0.0,0.0,0.0,0.0,0.0,0.0,0.0,0.0,0.0,0.0,0.0,0.0,0.0,0.0,0.0,0.0,0.0,0.0,1.8773,0.0,1.8083,1.7831,1.858,1.9198,0.0,0.0,0.0,0.0,0.0,0.0,0.0,0.0,0.0,0.0,0.0,0.0,0.0,0.0,0.0,0.0,0.0,0.0,0.0,0.0,0.0,0.0,0.0,0.0,0.0,0.0,0.0,0.0,0.0,0.0,0.0,0.0,0.0,0.0,0.0,0.0,0.0,0.0,0.0,0.0,0.0,0.0,0.0,0.0,0.0,0.0,0.0,0.0,0.0,0.0,0.0,0.0,0.0,0.0,0.0,0.0,0.0,0.0,0.0,0.0,0.0,0.0,0.0,0.0,0.0,0.0,0.0,0.0,0.0,0.0,0.0,0.0,0.0,0.0,0.0,0.0,0.0,0.0,0.0,0.0,0.0,0.0,0.0,0.0,0.0,0.0,0.0,0.0,0.0,0.0,0.0,0.0,0.0,0.0,0.0,0.0,0.0,0.0,0.0,0.0,0.0,0.0,0.0,0.0,0.0,0.0,0.0,0.0,1.966,1.7955,1.7087,1.7086,1.7833,1.8666,1.9511,0.0,0.0,0.0,0.0,0.0,0.0,0.0,0.0,0.0,0.0,0.0,0.0,0.0,0.0,0.0,0.0,0.0,0.0,0.0,0.0,0.0,0.0,0.0,0.0,0.0,0.0,0.0,0.0,0.0,0.0,0.0,0.0,0.0,0.0,0.0,0.0,0.0,0.0,0.0,0.0,0.0,0.0,0.0,0.0,0.0,0.0,0.0,0.0,0.0,0.0,0.0,0.0,0.0,0.0,0.0,0.0,0.0,0.0,0.0,0.0,0.0,0.0,0.0,0.0,0.0,0.0,0.0,0.0,0.0,0.0,0.0,0.0,0.0,0.0,0.0,0.0,0.0,0.0,0.0,0.0,0.0,0.0,0.0,0.0,0.0,0.0,0.0,0.0,0.0,0.0,0.0,0.0,0.0,0.0,0.0,0.0,0.0,0.0,0.0,0.0,0.0,0.0,0.0,0.0,0.0,0.0,0.0,0.0,0.0,2.1243,1.881,1.8151,1.9496,1.9255,1.9527,0.0,0.0,0.0,0.0,0.0,0.0,0.0,0.0,0.0,0.0,0.0,0.0,0.0,0.0,0.0,0.0,0.0,0.0,0.0,0.0,0.0,0.0,0.0,0.0,0.0,0.0,0.0,0.0,0.0,0.0,0.0,0.0,0.0,0.0,0.0,0.0,0.0,0.0,0.0,0.0,0.0,0.0,0.0,0.0,0.0,0.0,0.0,0.0,0.0,0.0,0.0,0.0,0.0,0.0,0.0,0.0,0.0,0.0,0.0,0.0,0.0,0.0,0.0,0.0,0.0,0.0,0.0,0.0,0.0,0.0,0.0,0.0,0.0,0.0,0.0,0.0,0.0,0.0,0.0,0.0,0.0,0.0,0.0,0.0,0.0,0.0,0.0,0.0,0.0,0.0,0.0,0.0,0.0,0.0,0.0,0.0,0.0,0.0,0.0,0.0,0.0,0.0,0.0,0.0,0.0,0.0,0.0,0.0,0.0,2.3723,2.0565,1.9328,2.0356,2.0455,2.0469,2.0474,0.0,0.0,0.0,0.0,0.0,0.0,0.0,0.0,0.0,0.0,0.0,0.0,0.0,0.0,0.0,0.0,0.0,0.0,0.0,0.0,0.0,0.0,0.0,0.0,0.0,0.0,0.0,0.0,0.0,0.0,0.0,0.0,0.0,0.0,0.0,0.0,0.0,0.0,0.0,0.0,0.0,0.0,0.0,0.0,0.0,0.0,0.0,0.0,0.0,0.0,0.0,0.0,0.0,0.0,0.0,0.0,0.0,0.0,0.0,0.0,0.0,0.0,0.0,0.0,0.0,0.0,0.0,0.0,0.0,0.0,0.0,0.0,0.0,0.0,0.0,0.0,0.0,0.0,0.0,0.0,0.0,0.0,0.0,0.0,0.0,0.0,0.0,0.0,0.0,0.0,0.0,0.0,0.0,0.0,0.0,0.0,0.0,0.0,0.0,0.0,0.0,0.0,0.0,0.0,0.0,0.0,0.0,0.0,2.5581,2.2515,2.0932,2.0906,2.219,2.2227,0.0,0.0,0.0,0.0,0.0,0.0,0.0,0.0,0.0,0.0,0.0,0.0,0.0,0.0,0.0,0.0,0.0,0.0,0.0,0.0,0.0,0.0,0.0,0.0,0.0,0.0,0.0,0.0,0.0,0.0,0.0,0.0,0.0,0.0,0.0,0.0,0.0,0.0,0.0,0.0,0.0,0.0,0.0,0.0,0.0,0.0,0.0,0.0,0.0,0.0,0.0,0.0,0.0,0.0,0.0,0.0,0.0,0.0,0.0,0.0,0.0,0.0,0.0,0.0,0.0,0.0,0.0,0.0,0.0,0.0,0.0,0.0,0.0,0.0,0.0,0.0,0.0,0.0,0.0,0.0,0.0,0.0,0.0,0.0,0.0,0.0,0.0,0.0,0.0,0.0,0.0,0.0,0.0,0.0,0.0,0.0,0.0,0.0,0.0,0.0,0.0,0.0,0.0,0.0,0.0,0.0,0.0,0.0,0.0,2.6412,2.6729,2.6601,2.5942,2.4045,2.335,0.0,0.0,0.0,0.0,0.0,0.0,0.0,0.0,0.0,0.0,0.0,0.0,0.0,0.0,0.0,0.0,0.0,0.0,0.0,0.0,0.0,0.0,0.0,0.0,0.0,0.0,0.0,0.0,0.0,0.0,0.0,0.0,0.0,0.0,0.0,0.0,0.0,0.0,0.0,0.0,0.0,0.0,0.0,0.0,0.0,0.0,0.0,0.0,0.0,0.0,0.0,0.0,0.0,0.0,0.0,0.0,0.0,0.0,0.0,0.0,0.0,0.0,0.0,0.0,0.0,0.0,0.0,0.0,0.0,0.0,0.0,0.0,0.0,0.0,0.0,0.0,0.0,0.0,0.0,0.0,0.0,0.0,0.0,0.0,0.0,0.0,0.0,0.0,0.0,0.0,0.0,0.0,0.0,0.0,0.0,0.0,0.0,0.0,0.0,0.0,0.0,0.0,0.0,0.0,0.0,0.0,0.0,0.0,2.8008,2.7285,2.9547,3.0697,3.0549,2.7004,2.5219,0.0,0.0,0.0,0.0,0.0,0.0,0.0,0.0,0.0,0.0,0.0,0.0,0.0,0.0,0.0,0.0,0.0,0.0,0.0,0.0,0.0,0.0,0.0,0.0,0.0,0.0,0.0,0.0,0.0,0.0,0.0,0.0,0.0,0.0,0.0,0.0,0.0,0.0,0.0,0.0,0.0,0.0,0.0,0.0,0.0,0.0,0.0,0.0,0.0,0.0,0.0,0.0,0.0,0.0,0.0,0.0,0.0,0.0,0.0,0.0,0.0,0.0,0.0,0.0,0.0,0.0,0.0,0.0,0.0,0.0,0.0,0.0,0.0,0.0,0.0,0.0,0.0,0.0,0.0,0.0,0.0,0.0,0.0,0.0,0.0,0.0,0.0,0.0,0.0,0.0,0.0,0.0,0.0,0.0,0.0,0.0,0.0,0.0,0.0,0.0,0.0,0.0,0.0,0.0,0.0,0.0,0.0,0.0,2.9759,2.832,3.1392,3.3471,3.417,3.0132,2.7269,0.0,0.0,0.0,0.0,0.0,0.0,0.0,0.0,0.0,0.0,0.0,0.0,0.0,0.0,0.0,0.0,0.0,0.0,0.0,0.0,0.0,0.0,0.0,0.0,0.0,0.0,0.0,0.0,0.0,0.0,0.0,0.0,0.0,0.0,0.0,0.0,0.0,0.0,0.0,0.0,0.0,0.0,0.0,0.0,0.0,0.0,0.0,0.0,0.0,0.0,0.0,0.0,0.0,0.0,0.0,0.0,0.0,0.0,0.0,0.0,0.0,0.0,0.0,0.0,0.0,0.0,0.0,0.0,0.0,0.0,0.0,0.0,0.0,0.0,0.0,0.0,0.0,0.0,0.0,0.0,0.0,0.0,0.0,0.0,0.0,0.0,0.0,0.0,0.0,0.0,0.0,0.0,0.0,0.0,0.0,0.0,0.0,0.0,0.0,0.0,0.0,0.0,0.0,0.0,0.0,0.0,0.0,0.0,2.9723,3.0016,3.2552,3.4353,3.5157,2.9901,2.7529,0.0,0.0,0.0,0.0,0.0,0.0,0.0,0.0,0.0,0.0,0.0,0.0,0.0,0.0,0.0,0.0,0.0,0.0,0.0,0.0,0.0,0.0,0.0,0.0,0.0,0.0,0.0,0.0,0.0,0.0,0.0,0.0,0.0,0.0,0.0,0.0,0.0,0.0,0.0,0.0,0.0,0.0,0.0,0.0,0.0,0.0,0.0,0.0,2.6953,0.0,0.0,0.0,0.0,0.0,0.0,0.0,0.0,0.0,0.0,0.0,0.0,0.0,0.0,0.0,0.0,0.0,0.0,0.0,0.0,0.0,0.0,0.0,0.0,0.0,0.0,0.0,0.0,0.0,0.0,0.0,0.0,0.0,0.0,0.0,0.0,0.0,0.0,0.0,0.0,0.0,0.0,0.0,0.0,0.0,0.0,0.0,0.0,0.0,0.0,0.0,0.0,0.0,0.0,0.0,0.0,0.0,0.0,0.0,3.0496,3.1664,3.2937,3.401,3.4667,3.038,2.8545,0.0,0.0,0.0,0.0,0.0,0.0,0.0,0.0,0.0,0.0,0.0,0.0,0.0,0.0,0.0,0.0,0.0,0.0,0.0,0.0,0.0,0.0,0.0,0.0,0.0,0.0,0.0,0.0,0.0,0.0,0.0,0.0,0.0,0.0,0.0,0.0,0.0,0.0,0.0,0.0,0.0,0.0,0.0,0.0,0.0,0.0,0.0,0.0,0.0,0.0,0.0,0.0,0.0,0.0,0.0,0.0,0.0,0.0,0.0,0.0,0.0,0.0,0.0,0.0,0.0,0.0,0.0,0.0,0.0,0.0,0.0,0.0,0.0,0.0,0.0,0.0,0.0,0.0,0.0,0.0,0.0,0.0,0.0,0.0,0.0,0.0,0.0,0.0,0.0,0.0,0.0,0.0,0.0,0.0,0.0,0.0,0.0,0.0,0.0,0.0,0.0,0.0,0.0,0.0,0.0,0.0,0.0,2.969,3.1396,3.3288,3.3207,3.351,3.4321,3.1143,2.9778,3.0519,0.0,0.0,0.0,0.0,0.0,0.0,0.0,0.0,0.0,0.0,0.0,0.0,0.0,0.0,0.0,0.0,0.0,0.0,0.0,0.0,0.0,0.0,0.0,0.0,0.0,0.0,0.0,0.0,0.0,0.0,0.0,0.0,0.0,0.0,0.0,0.0,0.0,0.0,2.4471,2.5057,0.0,0.0,0.0,0.0,0.0,0.0,0.0,0.0,2.6555,0.0,0.0,0.0,0.0,0.0,0.0,0.0,0.0,0.0,0.0,0.0,0.0,0.0,0.0,0.0,0.0,0.0,0.0,0.0,0.0,0.0,0.0,0.0,0.0,0.0,0.0,0.0,0.0,0.0,0.0,0.0,0.0,0.0,0.0,0.0,0.0,0.0,0.0,0.0,0.0,0.0,0.0,0.0,0.0,0.0,0.0,0.0,0.0,0.0,0.0,0.0,0.0,0.0,0.0,0.0,0.0,2.9054,2.9364,3.1336,3.4956,3.4363,3.4395,3.5157,3.2061,3.0395,3.0499,0.0,0.0,0.0,0.0,0.0,0.0,0.0,0.0,0.0,0.0,0.0,0.0,0.0,0.0,0.0,0.0,0.0,0.0,0.0,0.0,0.0,0.0,0.0,0.0,0.0,0.0,0.0,0.0,0.0,0.0,0.0,0.0,0.0,0.0,0.0,0.0,0.0,0.0,0.0,2.625,2.637,0.0,0.0,0.0,0.0,0.0,0.0,0.0,0.0,2.8793,0.0,0.0,0.0,0.0,0.0,0.0,0.0,0.0,0.0,0.0,0.0,0.0,0.0,0.0,0.0,0.0,0.0,0.0,0.0,0.0,0.0,0.0,0.0,0.0,0.0,0.0,0.0,0.0,0.0,0.0,0.0,0.0,0.0,0.0,0.0,0.0,0.0,0.0,0.0,0.0,0.0,0.0,0.0,0.0,0.0,0.0,0.0,0.0,0.0,0.0,0.0,0.0,0.0,0.0,0.0,2.986,3.0814,3.2631,3.5351,3.4671,3.4449,3.4831,3.2017,3.0341,0.0,0.0,0.0,0.0,0.0,0.0,0.0,0.0,0.0,0.0,0.0,0.0,0.0,0.0,0.0,0.0,0.0,0.0,0.0,0.0,0.0,0.0,0.0,0.0,0.0,0.0,0.0,0.0,0.0,0.0,0.0,0.0,0.0,0.0,0.0,0.0,0.0,0.0,0.0,0.0,2.7543,2.7947,2.8401,0.0,0.0,0.0,0.0,0.0,0.0,2.9684,2.914,0.0,0.0,0.0,0.0,0.0,0.0,0.0,0.0,0.0,0.0,0.0,0.0,0.0,0.0,0.0,0.0,0.0,0.0,0.0,0.0,0.0,0.0,0.0,0.0,0.0,0.0,0.0,0.0,0.0,0.0,0.0,0.0,0.0,0.0,0.0,0.0,0.0,0.0,0.0,0.0,0.0,0.0,0.0,0.0,0.0,0.0,0.0,0.0,0.0,0.0,0.0,0.0,0.0,0.0,0.0,3.0846,3.2313,3.3901,3.5393,3.4717,3.4382,3.4498,3.1449,2.9718,0.0,0.0,0.0,0.0,0.0,0.0,0.0,0.0,0.0,0.0,0.0,0.0,0.0,0.0,0.0,0.0,0.0,0.0,0.0,0.0,0.0,0.0,0.0,0.0,0.0,0.0,0.0,0.0,0.0,0.0,0.0,0.0,0.0,0.0,0.0,0.0,0.0,0.0,0.0,0.0,0.0,2.9564,3.042,3.0391,0.0,0.0,0.0,0.0,3.087,3.0818,0.0,0.0,0.0,0.0,0.0,0.0,0.0,0.0,0.0,0.0,0.0,0.0,0.0,0.0,0.0,0.0,0.0,0.0,0.0,0.0,0.0,0.0,0.0,0.0,0.0,0.0,0.0,0.0,0.0,0.0,0.0,0.0,0.0,0.0,0.0,0.0,0.0,0.0,0.0,0.0,0.0,0.0,0.0,0.0,0.0,0.0,0.0,0.0,0.0,0.0,0.0,0.0,0.0,0.0,0.0,0.0,3.1668,3.2644,3.3909,3.5466,3.4765,3.4649,3.535,3.0117,2.8262,0.0,0.0,0.0,0.0,0.0,0.0,0.0,0.0,0.0,0.0,0.0,0.0,0.0,0.0,0.0,0.0,0.0,0.0,0.0,0.0,0.0,0.0,0.0,0.0,0.0,0.0,0.0,0.0,0.0,0.0,0.0,0.0,0.0,0.0,0.0,0.0,0.0,0.0,0.0,0.0,0.0,3.0458,3.1334,3.0771,3.0508,0.0,0.0,3.351,3.3554,3.6044,0.0,0.0,0.0,0.0,0.0,0.0,0.0,0.0,0.0,0.0,0.0,0.0,0.0,0.0,0.0,0.0,0.0,0.0,0.0,0.0,0.0,0.0,0.0,0.0,0.0,0.0,0.0,0.0,0.0,0.0,0.0,0.0,0.0,0.0,0.0,0.0,0.0,0.0,0.0,0.0,0.0,0.0,0.0,0.0,0.0,0.0,0.0,0.0,0.0,0.0,0.0,0.0,0.0,0.0,0.0,3.0385,3.1908,3.4134,3.5358,3.5608,3.5697,3.5745,3.567,3.0857,2.9027,0.0,0.0,0.0,0.0,0.0,0.0,0.0,0.0,0.0,0.0,0.0,0.0,0.0,0.0,0.0,0.0,0.0,0.0,0.0,0.0,0.0,0.0,0.0,0.0,0.0,0.0,0.0,0.0,0.0,0.0,0.0,0.0,0.0,0.0,0.0,0.0,0.0,0.0,0.0,0.0,0.0,0.0,3.2945,3.3931,0.0,0.0,0.0,3.5278,3.4772,0.0,0.0,0.0,0.0,0.0,0.0,0.0,0.0,0.0,0.0,0.0,0.0,0.0,0.0,0.0,0.0,0.0,0.0,0.0,0.0,0.0,0.0,0.0,0.0,0.0,0.0,0.0,0.0,0.0,0.0,0.0,0.0,0.0,0.0,0.0,0.0,0.0,0.0,0.0,0.0,0.0,0.0,0.0,0.0,0.0,0.0,0.0,0.0,0.0,0.0,0.0,0.0,0.0,0.0,0.0,0.0,0.0,3.2574,3.5435,3.6582,3.5982,3.6543,3.6516,3.567,3.2025,0.0,0.0,0.0,0.0,0.0,0.0,0.0,0.0,0.0,0.0,0.0,0.0,0.0,0.0,0.0,0.0,0.0,0.0,0.0,0.0,0.0,0.0,0.0,0.0,0.0,0.0,0.0,2.5671,0.0,0.0,0.0,0.0,0.0,0.0,0.0,0.0,0.0,0.0,0.0,0.0,0.0,0.0,3.4368,3.5014,3.6548,3.7397,0.0,0.0,3.6959,3.6318,3.8193,3.8461,0.0,0.0,0.0,0.0,0.0,0.0,0.0,0.0,0.0,0.0,0.0,0.0,0.0,0.0,0.0,0.0,0.0,0.0,0.0,0.0,0.0,0.0,0.0,0.0,0.0,0.0,0.0,0.0,0.0,0.0,0.0,0.0,0.0,0.0,0.0,0.0,0.0,0.0,0.0,0.0,0.0,0.0,0.0,0.0,0.0,0.0,0.0,0.0,0.0,0.0,0.0,0.0,0.0,0.0,3.2674,3.4303,3.6028,3.69,3.682,3.6861,3.6516,3.5668,3.3136,3.1388,0.0,0.0,0.0,0.0,0.0,0.0,0.0,0.0,0.0,0.0,0.0,0.0,0.0,0.0,0.0,0.0,0.0,0.0,0.0,0.0,0.0,0.0,0.0,0.0,0.0,0.0,0.0,0.0,0.0,0.0,0.0,0.0,0.0,0.0,0.0,0.0,0.0,0.0,0.0,0.0,0.0,3.5145,3.7498,3.7295,3.7687,0.0,0.0,3.9025,3.8942,4.2321,4.2787,3.6107,0.0,0.0,0.0,0.0,0.0,0.0,0.0,0.0,0.0,0.0,0.0,0.0,0.0,0.0,0.0,0.0,0.0,0.0,0.0,0.0,0.0,0.0,0.0,0.0,0.0,0.0,0.0,0.0,0.0,0.0,0.0,0.0,0.0,0.0,0.0,0.0,0.0,0.0,0.0,0.0,0.0,0.0,0.0,0.0,0.0,0.0,0.0,0.0,0.0,0.0,0.0,0.0,0.0,3.283,3.4503,3.6607,3.7712,3.7709,3.7712,3.7287,3.6439,3.3993,3.2087,0.0,0.0,0.0,0.0,0.0,0.0,0.0,0.0,0.0,0.0,0.0,0.0,0.0,0.0,0.0,0.0,0.0,0.0,0.0,0.0,0.0,0.0,0.0,0.0,0.0,0.0,0.0,0.0,2.8203,2.8571,2.9107,0.0,0.0,0.0,0.0,0.0,0.0,0.0,0.0,0.0,0.0,3.7406,3.9469,3.9937,0.0,0.0,4.0649,3.9815,3.9303,4.0952,4.0705,3.5912,3.5199,0.0,0.0,0.0,0.0,0.0,0.0,0.0,0.0,0.0,0.0,0.0,0.0,0.0,0.0,0.0,0.0,0.0,0.0,0.0,0.0,0.0,0.0,0.0,0.0,0.0,0.0,0.0,0.0,0.0,0.0,0.0,0.0,0.0,0.0,0.0,0.0,0.0,0.0,0.0,0.0,0.0,0.0,0.0,0.0,0.0,0.0,0.0,0.0,0.0,0.0,0.0,0.0,3.3451,3.4891,3.7305,3.8605,3.8605,3.8331,3.7787,3.69,3.4984,3.3147,0.0,0.0,0.0,0.0,0.0,0.0,0.0,0.0,0.0,0.0,0.0,0.0,0.0,0.0,0.0,0.0,0.0,0.0,0.0,0.0,0.0,0.0,0.0,0.0,0.0,0.0,0.0,0.0,2.931,2.9758,3.0612,0.0,0.0,0.0,0.0,0.0,0.0,0.0,0.0,0.0,0.0,3.9415,4.0587,4.1279,4.1689,4.1657,4.0533,3.958,3.9222,3.9805,3.9363,3.6497,0.0,0.0,0.0,0.0,0.0,0.0,0.0,0.0,0.0,0.0,0.0,0.0,0.0,0.0,0.0,0.0,0.0,0.0,0.0,0.0,0.0,0.0,0.0,0.0,0.0,0.0,0.0,2.5566,0.0,0.0,2.565,0.0,0.0,0.0,0.0,0.0,0.0,0.0,0.0,0.0,0.0,0.0,0.0,0.0,0.0,0.0,0.0,0.0,0.0,0.0,0.0,0.0,0.0,3.4891,3.5819,3.8239,3.9504,3.9462,3.8644,3.7828,3.6977,3.6096,3.4894,3.3222,0.0,0.0,0.0,0.0,0.0,0.0,0.0,0.0,0.0,0.0,0.0,0.0,0.0,0.0,0.0,0.0,0.0,0.0,0.0,0.0,0.0,0.0,0.0,0.0,0.0,0.0,2.8431,2.9008,2.9869,0.0,0.0,0.0,0.0,0.0,0.0,0.0,0.0,0.0,0.0,3.9179,4.0882,4.0735,4.0718,4.0759,4.0742,3.9161,3.8175,3.8953,3.9784,3.981,0.0,0.0,0.0,0.0,0.0,0.0,0.0,0.0,0.0,0.0,0.0,0.0,0.0,0.0,0.0,0.0,0.0,0.0,0.0,0.0,0.0,0.0,0.0,0.0,0.0,0.0,0.0,2.6185,2.5677,0.0,0.0,0.0,0.0,0.0,0.0,0.0,0.0,0.0,0.0,0.0,3.2975,3.4334,0.0,0.0,0.0,0.0,0.0,0.0,0.0,0.0,0.0,0.0,0.0,0.0,3.5515,3.7495,3.9405,4.0619,4.1122,4.0346,3.9536,3.8647,3.7793,3.6867,3.5752,0.0,0.0,0.0,0.0,0.0,0.0,0.0,0.0,0.0,0.0,0.0,0.0,0.0,0.0,0.0,0.0,0.0,0.0,0.0,0.0,0.0,0.0,0.0,0.0,0.0,3.1113,0.0,0.0,0.0,0.0,0.0,0.0,0.0,0.0,0.0,0.0,0.0,3.5802,3.7497,3.8533,3.9727,4.14,4.1133,4.1378,0.0,0.0,0.0,0.0,0.0,0.0,0.0,0.0,0.0,0.0,0.0,0.0,0.0,0.0,3.4892,3.1303,3.1871,3.2798,3.2532,0.0,0.0,0.0,0.0,0.0,0.0,0.0,0.0,0.0,0.0,0.0,0.0,0.0,0.0,2.9022,0.0,2.7807,0.0,0.0,0.0,0.0,0.0,0.0,0.0,0.0,3.5222,3.673,3.7296,3.8653,3.9177,0.0,3.9145,3.6945,0.0,0.0,0.0,0.0,0.0,0.0,0.0,0.0,3.6568,3.7962,4.041,4.1935,4.2396,4.1354,4.0542,3.9965,3.8798,3.7934,3.7417,3.5544,3.4163,0.0,0.0,0.0,0.0,0.0,0.0,0.0,0.0,0.0,0.0,0.0,0.0,0.0,0.0,0.0,0.0,0.0,0.0,0.0,0.0,0.0,0.0,0.0,3.3547,0.0,0.0,0.0,0.0,0.0,0.0,0.0,0.0,0.0,3.6538,3.6828,3.7822,3.9765,4.034,4.0752,4.1185,0.0,0.0,0.0,0.0,0.0,0.0,0.0,3.8835,3.7798,3.9223,4.0803,4.1752,4.1751,4.1678,4.1801,0.0,0.0,3.525,3.5595,3.6518,3.6218,3.6814,3.7627,3.8579,3.9297,4.0068,0.0,0.0,0.0,0.0,0.0,0.0,0.0,0.0,3.3313,3.374,0.0,3.1887,0.0,0.0,0.0,0.0,3.1364,3.522,0.0,0.0,4.2039,4.3948,4.2624,4.3447,4.4227,4.4774,4.2602,4.1373,4.0992,3.862,0.0,0.0,0.0,0.0,0.0,0.0,3.8084,3.7603,4.1446,4.3398,4.3363,4.1857,4.0968,4.0774,3.9221,3.837,3.826,3.7531,3.672,3.5784,3.3544,0.0,0.0,0.0,0.0,0.0,0.0,0.0,0.0,0.0,0.0,0.0,0.0,0.0,0.0,0.0,0.0,0.0,0.0,0.0,0.0,3.5468,0.0,0.0,0.0,0.0,0.0,0.0,0.0,0.0,0.0,0.0,3.8533,3.9211,4.07,4.3034,0.0,0.0,0.0,0.0,4.1913,3.7842,3.7711,3.8189,3.8159,4.03,4.2532,4.4067,0.0,0.0,4.7932,4.5312,4.3503,4.3677,4.4723,4.4139,4.0762,4.0658,4.0784,4.0057,4.0864,4.145,4.1201,4.2076,4.2681,3.7375,0.0,0.0,0.0,0.0,3.5636,3.6097,3.5999,3.6618,3.6303,3.5361,3.4632,0.0,0.0,0.0,0.0,0.0,0.0,4.066,4.2318,4.5813,4.7773,4.8535,4.9951,5.047,5.0097,4.9342,4.8367,4.7174,4.5815,4.2332,3.6862,0.0,0.0,0.0,0.0,4.0313,4.2503,4.4824,4.5684,4.5068,4.4604,4.3482,4.1703,4.1158,4.0652,4.0075,3.9834,3.9024,3.761,3.6311,0.0,0.0,0.0,0.0,0.0,0.0,0.0,0.0,0.0,0.0,0.0,0.0,0.0,0.0,0.0,0.0,0.0,0.0,0.0,3.5469,3.7378,3.7732,0.0,0.0,0.0,0.0,0.0,0.0,0.0,0.0,0.0,4.2647,4.1093,4.0289,0.0,0.0,4.0337,4.0477,4.1643,4.2702,4.3315,4.3531,0.0,4.4499,4.5157,4.5544,4.5481,4.8657,5.0981,5.0205,5.0701,5.1055,5.0465,5.0533,5.0221,4.921,4.722,4.5831,4.5548,4.6026,4.6694,4.7126,4.7528,4.7963,4.4109,4.0374,3.8943,3.8917,3.9898,4.0888,4.1416,4.1611,4.2075,4.1718,4.0701,3.9701,3.9415,3.9761,4.03,0.0,0.0,0.0,4.6099,4.8286,5.0163,5.1742,5.3021,5.4049,5.4467,5.4316,5.3933,5.3061,5.1703,5.014,4.7003,4.222,0.0,0.0,3.9966,4.1379,4.2944,4.4711,4.6629,4.7196,4.6306,4.5687,4.4407,4.2589,4.2512,4.228,4.1816,4.178,4.1347,4.0369,3.9175,3.7646,0.0,0.0,0.0,0.0,0.0,0.0,0.0,0.0,0.0,0.0,0.0,3.3201,0.0,0.0,0.0,0.0,3.6084,3.6828,3.8315,3.8898,0.0,0.0,0.0,0.0,0.0,0.0,0.0,3.7851,4.0851,4.3598,4.5076,4.4172,4.375,4.4883,4.3865,4.3114,4.3365,0.0,4.5552,4.6449,4.6816,4.7157,4.7726,4.8608,4.9425,5.0098,5.2195,5.3762,5.3283,5.4362,5.4979,5.4373,5.407,5.3974,5.3872,5.2135,5.0544,4.9927,5.019,5.0768,5.14,5.1661,5.1916,5.0709,4.9683,4.5144,4.4382,4.6159,4.6293,4.7139,4.8585,4.874,4.8778,4.8511,4.6327,4.5757,4.6489,4.6492,0.0,4.909,5.0657,5.2256,5.3913,5.4835,5.5688,5.6389,5.6467,5.6897,5.7595,5.6788,5.592,5.487,5.2508,5.0847,4.9914,4.6768,4.4326,4.2809,4.4846,4.5689,4.5051,4.7333,4.8097,4.7196,4.5645,4.4365,4.3405,4.3405,4.3366,4.3295,4.3292,4.3308,4.3266,4.1872,4.1036,4.0678,0.0,0.0,0.0,0.0,0.0,0.0,0.0,0.0,0.0,0.0,0.0,0.0,0.0,0.0,0.0,3.7814,0.0,4.207,4.026,0.0,0.0,0.0,3.945,4.1029,4.2037,4.254,4.2418,0.0,0.0,4.6312,4.7757,4.9455,5.1181,5.0537,4.9324,4.7796,4.8897,4.9531,4.8074,4.857,4.9112,4.9585,5.1297,5.3421,5.5537,5.6605,5.6344,5.6156,5.6157,5.6096,5.5711,5.5712,5.5586,5.5467,5.514,5.4906,5.3205,5.3299,5.3715,5.3963,5.4102,5.4196,5.3149,5.3502,5.2276,5.0653,4.885,4.9434,4.9923,5.0399,5.1718,5.1916,5.1297,5.1339,5.1498,5.1691,5.168,5.2276,5.3364,5.4405,5.5451,5.6586,5.8028,5.8785,5.9022,5.9598,5.9675,5.9293,5.909,5.823,5.6721,5.5393,5.3707,5.1652,5.0174,4.8305,4.6181,4.6669,4.7169,4.7609,4.8828,4.9,4.8086,4.7038,4.5775,4.4328,4.4289,4.3992,4.3403,4.3364,4.306,4.2452,4.2646,4.1951,4.0018,3.9026,0.0,0.0,0.0,0.0,0.0,0.0,0.0,0.0,0.0,3.7169,3.5741,0.0,3.9488,0.0,4.0575,4.2287,4.2221,4.2263,0.0,0.0,4.1614,4.1806,4.2887,4.4295,4.4715,4.3424,4.5544,4.731,4.7922,4.8941,5.0477,5.2694,5.0741,4.9091,4.9327,5.0277,5.1111,5.1354,5.25,5.3858,5.428,5.5082,5.5772,5.6487,5.6605,5.656,5.6546,5.6383,5.6276,5.6146,5.5943,5.575,5.5633,5.5504,5.5306,5.4899,5.4887,5.4975,5.5071,5.4876,5.4708,5.489,5.5316,5.5354,5.4233,5.2526,5.2991,5.3373,5.3842,5.4774,5.4929,5.4507,5.5031,5.5426,5.5818,5.6207,5.6842,5.7695,5.8195,5.8647,5.9134,6.0041,6.0479,6.046,6.0886,6.0692,5.9923,5.9923,5.9038,5.7392,5.685,5.5744,5.3983,5.3519,5.2224,5.0167,4.859,4.8044,4.8474,4.8991,4.9174,4.897,4.8167,4.712,4.5861,4.5431,4.468,4.3489,4.3068,4.281,4.2711,4.2846,4.2428,4.1386,4.0323,3.9104,0.0,0.0,0.0,0.0,0.0,0.0,0.0,0.0,0.0,0.0,0.0,4.2524,4.1939,4.3212,4.3874,4.3441,4.3512,4.3667,4.3951,4.3986,4.4478,4.5696,4.6982,4.744,4.6544,4.831,4.9802,5.0259,5.104,5.208,5.3506,5.211,5.1115,5.155,5.2127,5.2581,5.313,5.3959,5.4919,5.5781,5.5965,5.6177,5.6527,5.6605,5.6605,5.6605,5.6504,5.6388,5.6297,5.6138,5.5967,5.5791,5.5617,5.5533,5.5449,5.5439,5.5434,5.5409,5.5195,5.5078,5.6356,5.6317,5.6317,5.6321,5.6317,5.6356,5.6588,5.7013,5.7091,5.7245,5.7491,5.7658,5.8144,5.8879,5.9657,6.0332,6.0952,6.0987,6.1001,6.104,6.0919,6.0902,6.0943,6.0861,6.0436,5.9782,5.9748,5.8992,5.7589,5.7438,5.6955,5.6059,5.5908,5.5038,5.3305,5.0286,4.8709,4.8669,4.8857,4.9171,4.9684,4.8832,4.7922,4.7024,4.6243,4.5183,4.3721,4.2836,4.2733,4.3455,4.2837,4.2788,4.3416,4.1511,4.007,0.0,3.8731,0.0,0.0,0.0,0.0,0.0,0.0,0.0,0.0,4.3494,4.5153,4.616,4.5491,4.5085,4.5363,4.4699,4.4871,4.6378,4.6564,4.72,4.8727,4.9612,5.0078,5.0078,5.1358,5.2251,5.2176,5.2915,5.3345,5.3267,5.3118,5.2974,5.3435,5.3514,5.3682,5.3801,5.3949,5.4548,5.5312,5.55,5.5795,5.6452,5.6605,5.6605,5.6605,5.6604,5.6513,5.6383,5.6336,5.6169,5.5924,5.5805,5.5663,5.5561,5.552,5.5476,5.5415,5.5371,5.5409,5.8105,5.8105,5.8105,5.8105,5.8105,5.8105,5.7022,5.5316,5.5969,5.7074,5.8471,5.9171,5.9575,5.9769,5.9936,5.9704,5.9196,5.9196,5.9541,6.0195,5.9494,5.9528,6.0144,5.9481,5.9055,5.8939,5.8896,5.8788,5.8447,5.775,5.6633,5.5136,5.4442,5.3254,5.1645,0.0,0.0,0.0,5.0259,5.0367,4.9771,4.8322,4.6816,4.5336,4.5103,0.0,4.4642,4.3785,4.3398,4.3561,4.3442,0.0,0.0,0.0,0.0,0.0,0.0,0.0,0.0,0.0,0.0,0.0,4.5286,4.4851,4.4136,4.395,4.4781,4.6888,4.6358,4.6405,4.7763,4.7755,4.8059,4.9015,4.9171,4.959,5.0581,5.0853,5.0969,5.0969,5.1238,5.1435,5.1474,5.1591,5.1707,5.1785,5.1668,5.194,5.2562,5.3252,5.3691,5.3777,5.4303,5.5139,5.6132,5.621,5.6203,5.6578,5.6605,5.6605,5.6605,5.6605,5.6605,5.6549,5.6429,5.6299,5.6205,5.5973,5.5773,5.5765,5.5621,5.5494,5.5421,5.5402,5.5383,5.8608,5.8608,5.8608,5.8621,0.0,5.8643,5.7688,5.6156,5.7409,5.8704,6.0032,6.0883,6.1058,6.0627,6.0631,6.0166,5.9386,5.8897,5.9161,5.9979,5.9553,5.9824,6.0638,6.0169,5.9781,5.9359,5.9359,5.9134,5.8723,5.83,5.7652,5.6823,5.5973,5.5161,5.4307,5.388,5.2825,5.1034,5.1545,5.1747,5.1602,5.0467,4.9205,4.8006,4.7152,0.0,0.0,0.0,0.0,0.0,0.0,0.0,0.0,4.5226,0.0,4.4868,4.5211,4.5639,4.6067,4.7193,4.8097,4.8563,4.9345,4.8958,4.6892,4.6697,4.7421,4.9102,4.8859,4.8953,4.9771,4.9881,5.0076,5.0464,5.0542,5.0736,5.1125,5.1199,5.1199,5.1199,5.1199,5.1199,5.1199,5.1199,5.1199,5.1199,5.1199,5.1355,5.1785,5.2523,5.3148,5.3623,5.4113,5.479,5.5614,5.5858,5.6122,5.6454,5.6605,5.6605,5.6605,5.6605,5.6605,5.6603,5.6504,5.6438,5.6308,5.608,5.5932,5.587,5.5715,5.5566,5.5497,5.5494,5.5451,5.9266,5.9266,5.942,5.9443,5.9362,5.9521,5.921,5.8595,0.0,0.0,0.0,6.1784,6.176,6.1097,6.1104,6.0642,5.9819,5.9087,5.9188,6.0011,5.9852,6.024,6.105,6.0934,6.0472,5.9813,5.9766,5.9433,5.8845,5.8803,5.8817,5.8735,5.8121,5.781,5.7771,5.6955,5.5436,5.3338,5.2914,5.3013,5.3595,5.2687,5.1818,5.1021,4.9659,4.8201,4.6684,4.595,4.5839,4.6392,4.6354,4.6339,4.6336,4.6479,4.5972,4.48,4.5569,4.6463,4.7126,4.9263,5.0894,5.1588,5.2915,5.2522,4.9753,5.0203,5.0855,5.1591,5.1668,5.163,5.1627,5.1474,5.1435,5.1435,5.1277,5.1199,5.1199,5.1199,5.1199,5.1199,5.1199,5.1199,5.1199,5.1199,5.1199,5.1199,5.1199,5.1277,5.1474,5.2057,5.2759,5.3515,5.4022,5.4468,5.513,5.5506,5.5805,5.6493,5.6605,5.6605,5.6605,5.6605,5.6605,5.6605,5.6605,5.6548,5.6383,5.6217,5.61,5.6013,5.5855,5.5712,5.5659,5.5582,5.5497,6.1848,6.1926,6.267,6.2554,6.194,6.2722,6.3059,6.2668,5.9331,5.8365,5.9191,6.0078,6.0402,6.0247,6.0286,5.9781,5.9001,5.8842,5.9265,6.0046,5.9308,5.9424,6.0201,5.9498,5.911,5.8994,5.8962,5.8888,5.8799,5.8814,5.8817,5.881,5.8697,5.8622,5.8583,5.781,5.7207,5.6739,5.4683,5.368,5.374,5.2243,5.1032,5.0231,4.9996,4.9384,4.8387,4.8229,4.7882,4.7263,4.7221,4.7198,4.7262,4.7989,4.8539,4.9038,5.0464,5.1396,5.1474,5.2526,5.3225,5.3342,5.3578,5.3468,5.3052,5.3079,5.3225,5.3345,5.3264,5.3342,5.3303,5.264,5.2251,5.2173,5.163,5.1238,5.128,5.1277,5.1277,5.128,5.1199,5.1199,5.1199,5.1199,5.1199,5.1199,5.1199,5.1396,5.194,5.2329,5.2759,5.3575,5.4337,5.5181,5.5879,5.6222,5.6288,5.6537,5.6567,5.6488,5.6488,5.6488,5.6527,5.6605,5.6605,5.66,5.655,5.6388,5.6283,5.6194,5.6022,5.5861,5.5873,5.5745,5.5643,6.3091,6.3134,6.3521,6.3516,6.3179,6.3679,6.3922,6.3798,6.1903,6.1243,6.1673,6.25,6.2624,6.2196,6.1673,6.0963,6.0109,5.9191,5.9466,6.0653,6.0346,6.09,6.2119,6.1808,6.1614,6.1575,6.113,6.0935,6.0872,6.0466,6.0194,6.0173,5.9749,5.9279,5.8817,5.8428,5.8227,5.8175,5.6206,5.5135,5.5082,5.3921,5.3132,5.2711,5.2288,5.1825,5.1408,5.1406,5.1211,5.0828,5.0821,5.0609,5.0145,5.0918,5.1367,5.1325,5.241,5.3109,5.3109,5.3925,5.4624,5.5051,5.5129,5.5129,5.5129,5.4235,5.3695,5.3695,5.3695,5.3695,5.3695,5.3342,5.3109,5.3109,5.2759,5.2565,5.2487,5.2096,5.1863,5.1824,5.1474,5.1199,5.1199,5.1199,5.1199,5.1199,5.1199,5.1394,5.1785,5.2565,5.342,5.4239,5.4797,5.5378,5.6163,5.6419,5.6287,5.5931,5.5878,5.5867,5.5903,5.5903,5.6136,5.6527,5.6605,5.6605,5.6604,5.6443,5.6322,5.6299,5.6149,5.6012,5.6013,5.5883,5.571,6.3995,6.4005,6.4198,6.4332,6.4382,6.4489,6.4559,6.4566,6.457,6.457,6.4605,6.4873,6.4605,6.3945,6.3219,6.2544,6.1807,6.053,6.0728,6.204,6.2004,6.2757,6.4139,6.4104,6.3983,6.3945,6.3316,6.2966,6.2892,6.2302,6.1949,6.1882,6.1109,6.0332,5.9671,5.9283,5.9088,5.9011,5.7612,5.6748,5.6527,5.589,5.5476,5.5242,5.4624,5.42,5.4002,5.4158,5.4119,5.373,5.3886,5.3614,5.2798,5.3303,5.3381,5.2837,5.3497,5.408,5.4313,5.4893,5.5592,5.6256,5.6295,5.6295,5.6178,5.509,5.4274,5.4274,5.4394,5.4355,5.4355,5.4119,5.4002,5.4002,5.3808,5.3617,5.3617,5.307,5.2678,5.2601,5.2135,5.1824,5.1746,5.1746,5.1824,5.1863,5.1785,5.1746,5.194,5.2953,5.3964,5.4756,5.5172,5.5619,5.6193,5.6394,5.6203,5.5546,5.5619,5.5724,5.5715,5.5669,5.5825,5.6488,5.6605,5.6605,5.6602,5.6497,5.6388,5.6379,5.6266,5.6125,5.6026,5.5915,5.5774,6.4866,6.5025,6.5678,6.6121,6.6083,6.6134,6.6163,6.6194,6.6275,6.6275,6.6081,6.476,6.4139,6.3983,6.3941,6.3785,6.3708,6.3549,6.3898,6.4555,6.4096,6.4216,6.499,6.4372,6.3983,6.4022,6.3872,6.3798,6.3867,6.3674,6.3639,6.363,6.2896,6.2352,6.2115,6.0759,5.9982,5.9985,5.905,5.8195,5.7535,5.7382,5.6955,5.6217,5.61,5.567,5.4929,5.5634,5.5323,5.3964,5.4469,5.4465,5.3692,5.3656,5.3653,5.3614,5.4391,5.5204,5.5945,5.6136,5.6217,5.6295,5.6295,5.6295,5.6295,5.6139,5.6061,5.5945,5.5984,5.5903,5.5984,5.532,5.4893,5.4854,5.4274,5.3695,5.3811,5.3617,5.3578,5.3578,5.3381,5.3458,5.3303,5.3264,5.3345,5.3228,5.3148,5.319,5.3225,5.3536,5.408,5.4893,5.5611,5.6131,5.6322,5.6316,5.6235,5.6246,5.6328,5.6207,5.6154,5.6258,5.6528,5.6449,5.6605,5.6605,5.6605,5.6599,5.6557,5.6504,5.6379,5.6205,5.6024,5.5921,5.5821,6.5804,6.585,6.6199,6.6346,6.6402,6.6431,6.6454,6.6508,6.6508,6.6508,6.6431,6.577,6.546,6.5421,6.4955,6.4721,6.4679,6.4216,6.445,6.5145,6.4873,6.5149,6.5844,6.5654,6.546,6.5421,6.4936,6.4703,6.4636,6.4237,6.3969,6.3906,6.3129,6.2701,6.2624,6.1497,6.0872,6.0875,6.0522,5.994,5.9131,5.8587,5.7926,5.7188,5.7072,5.6644,5.5903,5.6136,5.5984,5.5284,5.5126,5.4854,5.4465,5.4465,5.4469,5.4504,5.5281,5.5903,5.6295,5.6295,5.6295,5.6295,5.6295,5.6295,5.6295,5.6295,5.6295,5.6295,5.6295,5.6295,5.6256,5.5984,5.5747,5.5709,5.544,5.5207,5.5246,5.4776,5.4465,5.4427,5.4041,5.3733,5.3695,5.3695,5.3695,5.3695,5.3733,5.3772,5.3769,5.4119,5.4582,5.5009,5.5747,5.6233,5.6295,5.6317,5.6143,5.5845,5.5695,5.5741,5.5855,5.5798,5.5943,5.6489,5.6605,5.6605,5.6605,5.6605,5.6604,5.6561,5.6557,5.6422,5.6167,5.6068,5.5943,6.6358,6.639,6.6372,6.6338,6.6329,6.6402,6.6418,6.6422,6.6493,6.6508,6.6508,6.6508,6.6508,6.6431,6.5844,6.5572,6.5456,6.4955,6.511,6.5805,6.5689,6.6,6.678,6.6586,6.6508,6.6392,6.5844,6.5572,6.5495,6.4993,6.4683,6.4566,6.3828,6.3362,6.328,6.2542,6.2115,6.2115,6.2115,6.1691,6.0875,6.0176,5.9244,5.8082,5.7926,5.7615,5.7029,5.6796,5.6644,5.6644,5.5825,5.5359,5.5359,5.5553,5.5709,5.5786,5.6524,5.6758,5.6372,5.6528,5.6528,5.6333,5.6295,5.6295,5.6295,5.6295,5.6295,5.6295,5.6295,5.6295,5.6295,5.6295,5.6295,5.6295,5.6295,5.6295,5.6217,5.5709,5.5359,5.5281,5.4893,5.4433,5.443,5.4469,5.4546,5.4546,5.4274,5.4197,5.4352,5.4776,5.5048,5.5317,5.5942,5.6256,5.6301,5.6322,5.5955,5.5738,5.5621,5.5654,5.5546,5.5617,5.5714,5.6536,5.657,5.6605,5.6605,5.6605,5.6605,5.6605,5.6602,5.6507,5.6306,5.6202,5.6084,6.6403,6.6381,6.6272,6.6278,6.6235,6.6249,6.6244,6.6354,6.6461,6.6547,6.6508,6.6547,6.6508,6.6547,6.6508,6.6431,6.6392,6.6275,6.6664,6.7324,6.6742,6.6897,6.7639,6.6936,6.6508,6.6508,6.6392,6.6353,6.6353,6.6353,6.6392,6.6275,6.5378,6.5029,6.4834,6.41,6.3828,6.3711,6.3676,6.3401,6.2663,6.2507,6.1225,5.9166,5.8774,5.87,5.8545,5.7926,5.7538,5.7541,5.6761,5.6291,5.633,5.7033,5.7421,5.7499,5.8195,5.7962,5.6758,5.711,5.7227,5.6528,5.6528,5.6372,5.6528,5.6567,5.6567,5.6369,5.6528,5.6489,5.645,5.6411,5.6333,5.6295,5.6295,5.6295,5.6295,5.6217,5.6256,5.6178,5.6023,5.5867,5.6023,5.6178,5.5984,5.5825,5.5398,5.5165,5.567,5.5476,5.5476,5.5903,5.6217,5.6295,5.6295,5.632,5.6256,5.6118,5.6014,5.6179,5.6354,5.6484,5.6517,5.6542,5.6572,5.6606,5.6605,5.6605,5.6605,5.6605,5.6605,5.6543,5.6431,5.6322,5.6199,6.652,6.6866,6.639,6.6806,6.7707,6.6825,6.6712,6.7225,6.7305,6.7014,6.6664,6.7091,6.7324,6.7328,6.7324,6.7014,6.6547,6.6508,6.6664,6.6936,6.6625,6.6664,6.6897,6.6625,6.6508,6.6508,6.6508,6.6508,6.6508,6.6508,6.6508,6.6353,6.5611,6.5184,6.5029,6.4411,6.3983,6.3983,6.3983,6.3828,6.3556,6.3517,6.2779,6.1338,6.0176,5.936,5.8817,5.8506,5.835,5.835,5.804,5.7884,5.7923,5.8195,5.835,5.8389,5.8661,5.8541,5.804,5.8195,5.8234,5.7962,5.7884,5.7845,5.7884,5.7923,5.792,5.7884,5.7884,5.7884,5.769,5.6952,5.6295,5.6295,5.6333,5.6372,5.6295,5.6295,5.6295,5.6295,5.6295,5.6295,5.6295,5.6295,5.6295,5.6295,5.6023,5.6019,5.6136,5.5984,5.5942,5.6175,5.6295,5.6295,5.6295,5.6295,5.6284,5.6289,5.6266,5.6279,5.635,5.6439,5.6484,5.6519,5.6587,5.661,5.661,5.6605,5.6605,5.6605,5.6605,5.6599,5.6504,5.6592,5.6418,6.6474,6.6775,6.6375,6.7039,6.821,6.7256,6.7299,6.8088,6.8202,6.7713,6.72,6.7751,6.7984,6.7818,6.7708,6.7444,6.6971,6.6936,6.6897,6.6897,6.6625,6.6664,6.6897,6.6936,6.7091,6.7324,6.7324,6.7208,6.6936,6.6936,6.678,6.647,6.5883,6.5611,6.5534,6.5071,6.4803,6.4799,6.4799,6.4721,6.445,6.4411,6.3983,6.309,6.1967,6.0798,5.9707,5.936,5.924,5.9205,5.8969,5.8933,5.9166,5.9205,5.9244,5.9244,5.9512,5.9357,5.893,5.9046,5.9088,5.8813,5.8817,5.8817,5.8817,5.8817,5.8817,5.8817,5.8817,5.8817,5.8622,5.7768,5.7107,5.7107,5.7107,5.7107,5.7107,5.7107,5.6991,5.6761,5.6486,5.6333,5.6295,5.6295,5.6295,5.6295,5.6295,5.6295,5.6295,5.6295,5.6295,5.6295,5.6295,5.6295,5.6295,5.6295,5.6295,5.6296,5.6314,5.6293,5.6398,5.6445,5.6479,5.6484,5.652,5.6585,5.6612,5.6606,5.6644,5.6683,5.6644,5.668,5.6745,5.6929,5.6964,6.6216,6.6269,6.6187,6.6753,6.758,6.7503,6.7939,6.8656,6.9032,6.8596,6.7726,6.8563,6.8723,6.7997,6.8011,6.7802,6.8104,6.8,6.7818,6.7596,6.6936,6.7052,6.7794,6.7829,6.8179,6.8835,6.8991,6.8606,6.7829,6.779,6.7445,6.6703,6.6547,6.6431,6.6431,6.6275,6.6353,6.6275,6.6237,6.5965,6.53,6.5223,6.4838,6.41,6.3832,6.3051,6.1455,6.0642,6.0215,6.0099,5.9396,5.9279,5.9982,6.0099,6.0137,6.0215,6.0833,6.0445,5.924,5.971,5.9749,5.9279,5.8969,5.9085,5.9166,5.9085,5.9085,5.9127,5.9085,5.9007,5.9046,5.893,5.8735,5.8735,5.8506,5.8502,5.8622,5.87,5.8467,5.7693,5.7033,5.6408,5.6333,5.645,5.6489,5.6333,5.6295,5.6295,5.6295,5.6295,5.6295,5.6295,5.6295,5.6295,5.6295,5.6295,5.6295,5.6301,5.631,5.6308,5.6492,5.6587,5.6451,5.6435,5.6521,5.6587,5.6962,5.6995,5.7073,5.7112,5.6956,5.7112,5.7457,5.7799,5.7941,6.63,6.6604,6.6335,6.6901,6.785,6.7629,6.7942,6.874,6.9822,6.9253,6.8126,7.0075,7.0473,6.9507,6.9656,7.0308,7.0966,6.9934,6.8825,6.7938,6.7519,6.7868,6.8567,6.8684,6.8835,6.9069,6.9107,6.8991,6.8762,6.868,6.8253,6.7557,6.7402,6.7052,6.6586,6.6508,6.6508,6.6508,6.6508,6.6353,6.6116,6.6116,6.5693,6.4951,6.4834,6.4294,6.3245,6.2352,6.1924,6.1847,6.1066,6.0717,6.095,6.0989,6.1027,6.1027,6.1222,6.126,6.0794,6.0794,6.0872,6.0639,6.0561,6.0561,6.06,6.0561,6.0522,6.0561,6.06,6.06,6.06,6.06,6.0056,5.893,5.8817,5.8894,5.8969,5.8855,5.87,5.8506,5.8195,5.7806,5.7344,5.7188,5.6955,5.6447,5.6372,5.6372,5.6295,5.6295,5.6295,5.6295,5.6295,5.6295,5.6295,5.6333,5.6411,5.6411,5.6414,5.6375,5.6561,5.658,5.6432,5.6422,5.6484,5.6707,5.7123,5.7387,5.7465,5.7855,5.8049,5.8284,5.8596,5.8589,5.846,6.6406,6.6904,6.6356,6.6985,6.818,6.7675,6.8199,6.9375,7.0212,6.9782,6.9268,7.0735,7.1062,7.0156,7.0397,7.0971,7.1552,7.0331,6.9373,6.8715,6.8373,6.8762,6.9535,6.9927,7.004,7.004,7.004,6.9849,6.9535,6.9496,6.9111,6.8412,6.8296,6.8062,6.7519,6.748,6.7441,6.748,6.748,6.7476,6.7476,6.7476,6.7052,6.631,6.6159,6.5732,6.4955,6.41,6.3319,6.2701,6.1882,6.1416,6.1416,6.1377,6.1416,6.1416,6.1416,6.1377,6.1416,6.1338,6.1416,6.1416,6.1416,6.1377,6.1377,6.1416,6.1416,6.1416,6.1338,6.1416,6.1377,6.1377,6.0833,5.994,5.9862,5.9784,5.9745,5.9474,5.9322,5.9205,5.8969,5.8583,5.8198,5.8004,5.7693,5.6994,5.6761,5.6528,5.645,5.6295,5.6333,5.6333,5.6295,5.6295,5.6295,5.6372,5.6489,5.6528,5.6567,5.6528,5.6598,5.6478,5.632,5.6403,5.6483,5.6555,5.693,5.7468,5.7738,5.8363,5.8674,5.8635,5.8558,5.8441,5.8433,6.6432,6.6993,6.636,6.696,6.8185,6.7758,6.8826,7.0542,7.0542,7.0613,7.0896,7.1423,7.1011,7.0402,7.0542,7.0733,7.0335,7.0076,6.9968,7.0074,6.9811,6.9884,7.0393,7.1015,7.1248,7.1365,7.1407,7.1093,7.0393,7.0549,7.0001,6.9263,6.9267,6.9146,6.8874,6.903,6.8874,6.8835,6.8913,6.8913,6.8913,6.8952,6.8602,6.7829,6.7752,6.7402,6.6664,6.5689,6.4407,6.297,6.2154,6.1765,6.1532,6.1494,6.1571,6.1455,6.1416,6.1416,6.1416,6.1416,6.1494,6.161,6.161,6.1532,6.1765,6.1765,6.1649,6.161,6.1494,6.1416,6.1416,6.1416,6.1299,6.1377,6.1105,6.1105,6.1257,6.06,6.0254,6.006,5.9477,5.8933,5.8972,5.8894,5.847,5.7926,5.7654,5.7344,5.6994,5.6877,5.6567,5.6528,5.6644,5.6411,5.645,5.6333,5.6411,5.6447,5.6567,5.6644,5.6621,5.6502,5.6337,5.6389,5.6438,5.6561,5.6895,5.751,5.7816,5.8049,5.8244,5.8363,5.8675,5.887,5.8986,6.6053,6.6122,6.6649,6.7,6.7494,6.895,6.9997,7.0777,7.2341,7.231,7.2251,7.3704,7.3164,7.1855,7.2282,7.2389,7.19,7.1674,7.1434,7.1356,7.1792,7.1559,7.1326,7.1442,7.1598,7.1598,7.1598,7.1485,7.1326,7.1792,7.136,7.0044,7.0588,7.0273,6.9302,6.9185,6.9107,6.9107,6.9107,6.9146,6.9185,6.9185,6.8991,6.8835,6.8762,6.8645,6.8253,6.6932,6.5382,6.3828,6.3478,6.2973,6.2429,6.2348,6.2115,6.1649,6.1494,6.1455,6.1455,6.1494,6.1727,6.2309,6.2348,6.2663,6.3245,6.2701,6.2429,6.2232,6.1843,6.1455,6.1455,6.1455,6.1455,6.1416,6.1416,6.1416,6.1377,6.1222,6.1066,6.1027,6.0755,6.0367,5.9904,5.971,5.9399,5.8739,5.8467,5.835,5.7923,5.7845,5.769,5.7344,5.7266,5.6838,5.6567,5.6411,5.6333,5.6369,5.6528,5.6722,5.6718,5.6686,5.6507,5.6363,5.6432,5.6523,5.7097,5.7739,5.7816,5.7776,5.8558,5.9065,5.9846,6.0237,6.008,6.6519,6.6785,6.7287,6.7609,6.7882,6.9421,7.0394,7.1123,7.2406,7.3177,7.3123,7.3606,7.3583,7.2775,7.2481,7.2519,7.2578,7.2615,7.2206,7.1741,7.2025,7.1986,7.1679,7.1598,7.1598,7.1598,7.1598,7.1598,7.1714,7.2487,7.2064,7.1248,7.1714,7.1442,7.0354,7.016,7.016,7.016,7.016,7.0156,7.016,7.016,6.9888,6.9733,6.9578,6.9496,6.8991,6.7752,6.6237,6.4838,6.4178,6.3754,6.3327,6.3245,6.3012,6.2507,6.2504,6.2507,6.2507,6.2468,6.2701,6.3129,6.3245,6.3478,6.3793,6.3482,6.3245,6.3168,6.274,6.2546,6.2429,6.2193,6.1804,6.1494,6.1416,6.1416,6.1416,6.1377,6.1416,6.1416,6.1377,6.126,6.0678,6.0642,6.0215,5.9632,5.936,5.9088,5.8778,5.8855,5.8739,5.8315,5.8082,5.7806,5.746,5.7227,5.6994,5.6952,5.6758,5.6916,5.6906,5.6884,5.6628,5.6464,5.6464,5.664,5.7178,5.7582,5.7582,5.7894,5.8948,5.9495,5.9924,6.0627,6.0588,6.7348,6.8035,6.8028,6.847,6.912,6.954,7.0673,7.1688,7.2338,7.3174,7.3904,7.2816,7.3139,7.3351,7.2297,7.1692,7.2562,7.2562,7.225,7.1883,7.1779,7.1641,7.1641,7.1598,7.1714,7.1831,7.1753,7.1908,7.2258,7.2837,7.2569,7.2142,7.2608,7.253,7.1753,7.1636,7.1718,7.1598,7.1365,7.1287,7.1287,7.1248,7.0976,7.0549,7.0432,7.0044,6.9383,6.8451,6.7402,6.5728,6.476,6.4376,6.422,6.4104,6.3987,6.3867,6.3711,6.375,6.3909,6.375,6.3945,6.4061,6.41,6.422,6.4337,6.4298,6.41,6.41,6.4061,6.3754,6.3676,6.3206,6.2624,6.2115,6.1843,6.1727,6.1649,6.1532,6.1416,6.1416,6.1416,6.1416,6.1416,6.1338,6.1066,6.0448,6.0215,6.006,5.9823,5.9745,5.9474,5.905,5.8933,5.8891,5.8506,5.8121,5.7887,5.7693,5.734,5.7263,5.7227,5.7094,5.676,5.6638,5.6883,5.6952,5.705,5.727,5.7309,5.7542,5.8284,5.8635,5.9064,5.9963,6.0315,6.6957,6.7126,6.8379,6.9043,6.951,7.1298,7.2367,7.2758,7.4095,7.4809,7.524,7.4973,7.4634,7.4402,7.3296,7.2829,7.2428,7.2381,7.2319,7.2361,7.1793,7.1632,7.1598,7.1641,7.1986,7.2336,7.2608,7.2957,7.3501,7.3618,7.3501,7.2914,7.3346,7.3462,7.2681,7.2413,7.2608,7.2487,7.1947,7.1598,7.1598,7.1598,7.1485,7.1248,7.1248,7.086,7.0238,6.9888,6.9263,6.8175,6.6819,6.5732,6.5184,6.499,6.4721,6.4294,6.4142,6.4065,6.4022,6.4181,6.4298,6.4873,6.4955,6.5226,6.5848,6.5265,6.499,6.4834,6.4372,6.4178,6.4061,6.387,6.3556,6.3284,6.3245,6.3284,6.3206,6.2232,6.1649,6.1532,6.1494,6.1416,6.1416,6.1416,6.126,6.1105,6.1066,6.0989,6.0833,6.06,6.0289,5.9865,5.9788,5.9745,5.9357,5.8933,5.8583,5.8311,5.7962,5.7768,5.7729,5.7794,5.7616,5.7511,5.746,5.7498,5.7566,5.719,5.7309,5.7464,5.7776,5.8557,5.9259,5.9807,6.0549,6.7944,6.8012,6.9234,6.9769,7.0113,7.2024,7.2979,7.3331,7.4783,7.5549,7.5543,7.5261,7.5072,7.5027,7.3889,7.3034,7.2666,7.1994,7.2256,7.276,7.2439,7.1922,7.1753,7.1947,7.2336,7.2452,7.272,7.338,7.4045,7.4589,7.4589,7.4084,7.4239,7.3657,7.2914,7.2604,7.2258,7.218,7.187,7.1598,7.1598,7.1598,7.1598,7.1598,7.1598,7.1326,7.0976,7.0471,7.0117,6.9457,6.8408,6.732,6.647,6.6039,6.5576,6.5304,6.5188,6.5188,6.5188,6.5188,6.5382,6.5728,6.5805,6.6039,6.6314,6.6039,6.5844,6.5728,6.5421,6.5071,6.4644,6.4566,6.445,6.4061,6.4022,6.4022,6.3828,6.3168,6.2624,6.2546,6.2348,6.2154,6.1999,6.1843,6.1494,6.1377,6.1299,6.126,6.1222,6.1027,6.1027,6.0794,6.072,6.0565,6.0212,5.9745,5.9205,5.8894,5.8545,5.8428,5.8389,5.8577,5.8737,5.8535,5.8265,5.8308,5.8281,5.7841,5.7661,5.8166,5.8674,5.9181,5.9767,6.0509,6.133,6.9196,6.9273,7.0067,7.0411,7.0678,7.2215,7.2979,7.3246,7.4783,7.5527,7.5403,7.466,7.4988,7.5038,7.3938,7.3319,7.2893,7.2293,7.2507,7.335,7.3103,7.2769,7.262,7.3014,7.319,7.2336,7.3152,7.3929,7.455,7.5211,7.5599,7.5521,7.5016,7.4434,7.3419,7.2685,7.2375,7.2142,7.1792,7.1598,7.1598,7.1598,7.1598,7.1598,7.1598,7.1598,7.1365,7.0937,7.0549,7.0471,6.9729,6.8956,6.8218,6.7402,6.6893,6.6897,6.6893,6.678,6.6586,6.6586,6.6586,6.6586,6.647,6.647,6.647,6.6431,6.6392,6.6392,6.6237,6.6,6.5495,6.5417,6.511,6.4683,6.4453,6.4376,6.4376,6.4372,6.4294,6.3754,6.3245,6.2934,6.274,6.2542,6.2037,6.1649,6.1571,6.1494,6.1494,6.1377,6.1299,6.126,6.1144,6.1066,6.0755,6.06,6.0056,5.9784,5.9357,5.9357,5.9357,5.9649,5.9814,5.9333,5.9144,5.9197,5.9101,5.8739,5.8762,5.9146,5.9455,5.9845,6.047,6.1211,6.1993,6.9196,6.9273,7.0067,7.0411,7.0678,7.2253,7.3017,7.3293,7.4821,7.5471,7.5471,7.5356,7.5318,7.5204,7.4507,7.3701,7.3327,7.2778,7.2923,7.3606,7.3614,7.3837,7.4262,7.4744,7.4861,7.4943,7.5021,7.5176,7.5405,7.6065,7.6531,7.6488,7.6216,7.5677,7.5133,7.4787,7.3657,7.2569,7.2025,7.1753,7.1598,7.1598,7.1598,7.1598,7.1598,7.1598,7.1598,7.1481,7.1403,7.1291,7.0549,7.0083,6.9694,6.9069,6.8641,6.8447,6.8408,6.8101,6.7674,6.7519,6.7169,6.6742,6.6586,6.6586,6.6547,6.6547,6.6625,6.6508,6.6508,6.6392,6.6314,6.6155,6.6198,6.6042,6.5926,6.5887,6.5926,6.5809,6.5382,6.4531,6.4061,6.375,6.3595,6.3362,6.2934,6.2507,6.227,6.196,6.1727,6.1571,6.1377,6.1377,6.1377,6.1338,6.126,6.1222,6.0989,6.0872,6.06,6.06,6.0717,6.0989,6.0893,6.0274,6.0017,6.0045,5.988,5.9642,5.9701,5.9967,6.0199,6.051,6.1369,6.2228,6.2345,6.9846,6.9884,7.0258,7.0678,7.1259,7.2452,7.3246,7.3781,7.4936,7.5509,7.5509,7.5509,7.5509,7.5395,7.5119,7.4622,7.4176,7.2827,7.3154,7.3846,7.4719,7.5044,7.5614,7.6306,7.6095,7.5992,7.6225,7.6454,7.6259,7.6959,7.7503,7.7736,7.7231,7.6488,7.5949,7.5094,7.4239,7.3035,7.2487,7.2064,7.1679,7.1641,7.1598,7.1598,7.1598,7.1598,7.1598,7.1598,7.1598,7.152,7.1209,7.1015,7.0821,7.0549,6.9966,6.934,6.9146,6.8991,6.8412,6.814,6.7752,6.7868,6.748,6.7208,6.7169,6.7169,6.6975,6.6625,6.6508,6.6508,6.647,6.6508,6.6508,6.6508,6.6508,6.6508,6.6508,6.6508,6.5926,6.5188,6.4916,6.464,6.4524,6.4216,6.3828,6.3439,6.3012,6.2581,6.2115,6.1921,6.1765,6.1727,6.1765,6.1804,6.1804,6.1804,6.1843,6.1765,6.1727,6.1727,6.1727,6.1882,6.1546,6.0977,6.0908,6.1079,6.0882,6.0742,6.0775,6.0906,6.1488,6.2032,6.2657,6.3164,6.3125,7.0487,7.0686,7.0648,7.1145,7.2032,7.2902,7.359,7.4278,7.5127,7.5509,7.5509,7.5509,7.5509,7.5509,7.5471,7.5433,7.5318,7.3301,7.379,7.5038,7.5947,7.6249,7.6883,7.7446,7.7891,7.7041,7.7507,7.7619,7.6648,7.7347,7.8318,7.828,7.7425,7.6799,7.6449,7.5595,7.4235,7.3419,7.3147,7.2763,7.2297,7.1947,7.187,7.1792,7.1718,7.1598,7.1598,7.1598,7.1598,7.1598,7.1559,7.1559,7.1598,7.1598,7.0976,6.9888,6.9616,6.9539,6.9189,6.8839,6.8684,6.8758,6.8373,6.814,6.8062,6.7985,6.7713,6.6975,6.6819,6.6664,6.6547,6.6508,6.6508,6.6508,6.6508,6.6508,6.6508,6.6508,6.6508,6.6003,6.5728,6.5534,6.5339,6.5262,6.4916,6.4372,6.398,6.3517,6.3051,6.262,6.2426,6.2313,6.2274,6.227,6.2348,6.2429,6.2507,6.2585,6.2546,6.2546,6.2585,6.2624,6.2263,6.2073,6.2143,6.2288,6.2064,6.1906,6.2068,6.2362,6.2976,6.336,6.3595,6.3556,6.3439,7.0839,7.1535,7.1535,7.207,7.2873,7.3667,7.4078,7.4354,7.5165,7.5509,7.5509,7.5509,7.5509,7.5471,7.5433,7.5471,7.5318,7.4983,7.509,7.6253,7.6919,7.7897,7.9146,7.9921,7.9534,7.8664,7.8906,7.7701,7.6803,7.7464,7.8046,7.8163,7.8046,7.7503,7.6877,7.6294,7.5595,7.4356,7.4006,7.3929,7.3657,7.3031,7.272,7.2491,7.2025,7.1598,7.1598,7.1598,7.1598,7.1598,7.1598,7.1598,7.1598,7.1598,7.1559,7.1369,7.1252,7.0976,7.0277,6.9849,6.9616,6.9457,6.9069,6.8952,6.8917,6.8801,6.8447,6.7752,6.7635,6.7402,6.6975,6.6664,6.6547,6.6586,6.6703,6.6586,6.6508,6.6508,6.6508,6.647,6.612,6.6198,6.6159,6.612,6.6003,6.5417,6.4873,6.4411,6.3945,6.3439,6.3168,6.3012,6.2973,6.2973,6.2934,6.3051,6.3129,6.3284,6.3284,6.3323,6.3323,6.3337,6.3605,6.3453,6.3502,6.3372,6.3133,6.3122,6.3317,6.3578,6.3873,6.4025,6.4181,6.4025,6.3751,7.1068,7.1068,7.2024,7.2643,7.3093,7.3858,7.4507,7.4966,7.5318,7.5509,7.5509,7.5509,7.5509,7.5395,7.5051,7.5042,7.5318,7.5042,7.5642,7.69,7.7677,7.8665,7.9854,8.0716,8.0697,8.0174,7.9834,7.8979,7.7813,7.7541,7.8163,7.859,7.8241,7.7852,7.7308,7.6915,7.6065,7.5094,7.4472,7.42,7.3967,7.3419,7.2914,7.2914,7.2103,7.1753,7.1636,7.1598,7.1598,7.1598,7.1598,7.1598,7.1598,7.1598,7.1598,7.1559,7.1563,7.1365,7.1054,7.0626,7.0393,7.0393,7.0079,6.9768,6.969,6.9379,6.9069,6.8606,6.8525,6.8292,6.8024,6.7981,6.7635,6.7441,6.7169,6.6819,6.6664,6.6508,6.6508,6.6508,6.6508,6.6508,6.6508,6.6392,6.6275,6.6003,6.5456,6.499,6.4527,6.41,6.3867,6.3789,6.375,6.3789,6.3711,6.3711,6.3715,6.3832,6.3832,6.387,6.3983,6.4093,6.4393,6.4488,6.4371,6.4255,6.4164,6.4061,6.406,6.432,6.461,6.4688,6.4727,6.4376,6.4181,7.1489,7.0916,7.2559,7.3399,7.3675,7.4278,7.4889,7.5433,7.5509,7.5509,7.5509,7.5471,7.5395,7.5204,7.4813,7.5004,7.5433,7.4813,7.5786,7.7061,7.8161,7.9201,8.0367,8.1231,8.1212,8.0606,8.0489,7.9795,7.9057,7.8552,7.8634,7.894,7.793,7.7813,7.7736,7.7149,7.6337,7.5871,7.5288,7.5016,7.4822,7.4119,7.3734,7.3346,7.2802,7.2142,7.1947,7.1947,7.1986,7.1598,7.1598,7.1598,7.1598,7.1598,7.1598,7.1598,7.1598,7.1753,7.1598,7.1326,7.1131,7.1131,7.1131,7.0626,7.0588,7.0001,6.9535,6.9422,6.9379,6.9302,6.9107,6.8991,6.868,6.8179,6.7868,6.7402,6.6975,6.6858,6.6625,6.6508,6.6508,6.6508,6.6508,6.6508,6.6431,6.6392,6.6039,6.5572,6.5223,6.4838,6.4877,6.4838,6.4877,6.4916,6.4838,6.4721,6.4609,6.4492,6.4492,6.4647,6.4916,6.5111,6.5362,6.5342,6.5218,6.5393,6.5469,6.5078,6.4763,6.5256,6.5625,6.539,6.5234,6.4843,6.4922,7.2414,7.1764,7.3437,7.4507,7.5165,7.5395,7.5433,7.5509,7.5509,7.5509,7.5509,7.5471,7.508,7.4698,7.508,7.5356,7.5548,7.5433,7.6599,7.7754,7.864,7.9752,8.0841,8.1447,8.1427,8.0839,8.08,8.0645,8.0179,7.9406,7.8862,7.8124,7.793,7.7697,7.7615,7.7382,7.6915,7.6609,7.6294,7.6255,7.6026,7.556,7.5098,7.4943,7.4395,7.3657,7.2875,7.2798,7.2448,7.1831,7.1792,7.1792,7.1831,7.1675,7.1641,7.1598,7.1792,7.2064,7.2219,7.187,7.1559,7.1559,7.1481,7.1326,7.1248,7.1403,7.1015,7.0316,7.0238,6.9923,6.9535,6.9107,6.9383,6.8995,6.8645,6.8218,6.7713,6.7208,6.6975,6.6625,6.6664,6.6975,6.6819,6.6897,6.6586,6.6508,6.6431,6.6,6.6077,6.5848,6.6003,6.6081,6.612,6.6159,6.6198,6.6003,6.5654,6.5576,6.5576,6.5809,6.6081,6.621,6.6052,6.6167,6.608,6.6403,6.6556,6.593,6.573,6.6379,6.6484,6.5936,6.578,6.5625,6.6016,7.3508,7.4288,7.4775,7.4592,7.4049,7.5051,7.5509,7.5509,7.5509,7.5509,7.5471,7.5471,7.5318,7.5157,7.528,7.5815,7.6197,7.6227,7.7458,7.8574,7.9423,8.0193,8.1141,8.1613,8.1517,8.1364,8.1349,8.1038,8.0489,8.0222,8.0455,7.9911,7.8862,7.8629,7.8474,7.793,7.7503,7.7265,7.6993,7.6721,7.6531,7.5949,7.5487,7.5448,7.4667,7.3812,7.3109,7.3497,7.3113,7.2647,7.2452,7.2452,7.2258,7.1947,7.1714,7.1753,7.2025,7.2491,7.2642,7.2142,7.1636,7.1598,7.1598,7.1598,7.1598,7.1598,7.1485,7.1213,7.1054,7.0704,7.0743,7.0626,7.0549,6.9966,6.9461,6.9034,6.8567,6.8024,6.779,6.7635,6.779,6.8062,6.7713,6.7363,6.6975,6.6625,6.6547,6.6547,6.6625,6.6703,6.678,6.6819,6.6819,6.6819,6.6858,6.6703,6.6547,6.6625,6.6703,6.6819,6.6947,6.6552,6.6476,6.6653,6.686,6.6992,6.6905,6.6546,6.6537,6.6761,6.6523,6.6094,6.6094,6.6406,6.7109,7.4204,7.5365,7.5476,7.4821,7.3981,7.5013,7.5509,7.5509,7.5509,7.5318,7.5165,7.5318,7.5318,7.528,7.5739,7.6083,7.6644,7.7105,7.8226,7.9138,7.9856,8.0537,8.124,8.1635,8.1742,8.1878,8.1854,8.1504,8.1116,8.0999,8.096,8.0844,8.061,8.0105,7.9406,7.859,7.793,7.7498,7.7382,7.6877,7.6687,7.6221,7.591,7.5871,7.5366,7.4744,7.4356,7.4511,7.4356,7.3812,7.3501,7.354,7.3113,7.2569,7.2064,7.218,7.2491,7.2914,7.272,7.2448,7.187,7.1679,7.1598,7.1598,7.1598,7.1598,7.1524,7.1563,7.1559,7.1598,7.1598,7.1365,7.1252,7.0665,7.016,6.9733,6.9383,6.8956,6.8874,6.8758,6.8835,6.8723,6.8567,6.8101,6.7441,6.6936,6.6547,6.6703,6.713,6.7208,6.7324,6.7324,6.7324,6.7285,6.7285,6.7247,6.7285,6.779,6.779,6.7635,6.7595,6.7277,6.7333,6.7795,6.7879,6.7616,6.7642,6.7786,6.735,6.6876,6.6796,6.6834,6.7499,6.7928,6.8475,7.4466,7.4597,7.5255,7.5442,7.528,7.5433,7.5509,7.5509,7.5471,7.5127,7.466,7.5165,7.5157,7.4966,7.6036,7.6712,7.7267,7.7925,7.8923,7.9881,8.0345,8.1004,8.1504,8.1869,8.1815,8.1883,8.1892,8.1815,8.1737,8.1659,8.1426,8.1154,8.1077,8.1077,8.0416,7.8901,7.7658,7.7071,7.7775,7.7382,7.6993,7.6648,7.6488,7.641,7.6493,7.5988,7.5288,7.591,7.5599,7.4511,7.4744,7.4667,7.4162,7.3346,7.288,7.2759,7.2875,7.2992,7.2875,7.2837,7.2375,7.1757,7.1598,7.1598,7.1598,7.1598,7.1598,7.1598,7.1598,7.1598,7.1598,7.1598,7.1485,7.133,7.0782,7.051,7.0199,7.0005,6.9927,6.9888,6.9496,6.9146,6.9107,6.8835,6.8024,6.7363,6.6742,6.6897,6.7557,6.7829,6.7985,6.8024,6.7981,6.8059,6.8059,6.7907,6.8062,6.8645,6.8797,6.8486,6.8479,6.8433,6.86,6.8937,6.8785,6.8467,6.8842,6.9256,6.8631,6.8085,6.7966,6.8161,6.8825,6.9373,6.9762,7.4454,7.5562,7.5649,7.5603,7.5527,7.5509,7.5509,7.5509,7.5471,7.5318,7.5165,7.5433,7.5739,7.5997,7.6444,7.7355,7.8538,7.8826,7.9768,8.0833,8.1014,8.1358,8.1772,8.1892,8.1892,8.1892,8.1892,8.1892,8.1892,8.197,8.1854,8.1582,8.1387,8.1232,8.1116,8.03,7.9523,7.913,7.8625,7.7813,7.7503,7.7036,7.6682,7.6721,7.7153,7.6803,7.5798,7.6764,7.657,7.5327,7.556,7.5448,7.4977,7.4239,7.354,7.3303,7.3264,7.3462,7.3109,7.2837,7.2487,7.1947,7.1598,7.1598,7.1598,7.1598,7.1598,7.1598,7.1598,7.1598,7.1598,7.1598,7.1563,7.1563,7.1248,7.1248,7.1093,7.1015,7.0976,7.1015,7.0782,7.0238,7.0044,6.9772,6.9034,6.8762,6.8296,6.8101,6.8606,6.8645,6.8758,6.8758,6.8758,6.8835,6.8835,6.8762,6.8801,6.9263,6.9224,6.8913,6.9048,6.9437,6.9403,6.95,6.9414,6.939,6.9694,6.9879,6.9723,6.9411,6.9333,6.9411,6.9918,7.0348,7.0621,7.4721,7.6004,7.5787,7.5641,7.5527,7.5509,7.5509,7.5509,7.5509,7.5509,7.5471,7.5509,7.593,7.657,7.717,7.7913,7.9544,8.0054,8.0386,8.1472,8.1602,8.1726,8.183,8.1892,8.1892,8.1892,8.1892,8.1931,8.1931,8.2203,8.2514,8.2514,8.1659,8.1776,8.1698,8.1271,8.0222,7.9717,7.8901,7.8318,7.7813,7.7265,7.6721,7.6838,7.7032,7.6959,7.6609,7.6842,7.7386,7.6376,7.6104,7.6108,7.5754,7.5094,7.4395,7.4162,7.3851,7.3812,7.3147,7.3342,7.2996,7.2258,7.1831,7.1598,7.1598,7.1598,7.1598,7.1598,7.1675,7.1675,7.1718,7.1718,7.1753,7.1753,7.1675,7.1675,7.1598,7.152,7.1442,7.1559,7.152,7.1131,7.086,7.0588,7.0121,7.0044,6.9962,6.9768,6.9574,6.9535,6.9616,6.9733,6.9733,6.9768,6.9768,6.969,6.9772,6.9962,6.9849,6.9733,7.0116,7.0571,7.0288,7.0139,7.0389,7.0557,7.0471,7.0465,7.0543,7.0621,7.066,7.0816,7.1128,7.1206,7.1324,7.5272,7.5939,7.5676,7.5553,7.5509,7.5509,7.5509,7.5509,7.5509,7.5509,7.5509,7.5509,7.5968,7.677,7.7573,7.8578,7.9653,8.0627,8.1169,8.1507,8.1765,8.1869,8.1888,8.1892,8.1892,8.1892,8.1931,8.2009,8.2048,8.2558,8.333,8.3679,8.2553,8.2592,8.2436,8.2048,8.0921,8.0261,7.9639,7.8979,7.8318,7.7386,7.6954,7.6954,7.7071,7.7187,7.7153,7.758,7.7541,7.727,7.7308,7.7149,7.6682,7.5949,7.5681,7.5254,7.4628,7.3851,7.338,7.3769,7.3652,7.2957,7.2336,7.1908,7.1908,7.218,7.2258,7.2219,7.2262,7.2068,7.1913,7.1986,7.2064,7.1986,7.1913,7.1831,7.1753,7.1675,7.1598,7.1598,7.1598,7.1403,7.1365,7.117,7.086,7.0898,7.0782,7.0665,7.0471,7.0393,7.051,7.0902,7.086,7.0782,7.0704,7.051,7.0588,7.0704,7.0945,7.0969,7.1354,7.1415,7.1157,7.1122,7.1633,7.1723,7.1326,7.1363,7.1675,7.1714,7.1441,7.148,7.1558,7.1675,7.1792,7.4548,7.5214,7.5709,7.5772,7.5535,7.5509,7.5509,7.5509,7.5509,7.5509,7.5509,7.5509,7.6006,7.677,7.7735,7.8807,7.9856,8.0815,8.143,8.1716,8.1864,8.1883,8.1892,8.1892,8.1892,8.1892,8.197,8.2126,8.2635,8.3102,8.3602,8.399,8.3408,8.3485,8.3524,8.3524,8.2359,8.1349,8.0649,7.9911,7.9095,7.8241,7.7697,7.742,7.7969,7.8046,7.8163,7.8396,7.8241,7.7891,7.7265,7.6877,7.6721,7.6454,7.6221,7.5444,7.4744,7.4045,7.3929,7.4045,7.4123,7.3967,7.3579,7.3501,7.3462,7.3346,7.3307,7.3113,7.3074,7.2996,7.2957,7.2996,7.2996,7.2918,7.2763,7.253,7.2452,7.2258,7.2142,7.2025,7.2025,7.1947,7.1908,7.152,7.1287,7.1481,7.152,7.1365,7.1248,7.1093,7.1093,7.1446,7.1485,7.1248,7.1287,7.117,7.1326,7.1485,7.1591,7.1633,7.1585,7.1603,7.1746,7.1869,7.1943,7.2,7.191,7.1987,7.1987,7.1987,7.1792,7.1909,7.1987,7.1987,7.1987,7.4253,7.488,7.5635,7.5772,7.5476,7.5127,7.5157,7.5433,7.5509,7.5509,7.5509,7.5509,7.6159,7.7226,7.804,7.9061,8.0481,8.111,8.1608,8.1805,8.1892,8.1892,8.1892,8.1892,8.1892,8.1892,8.197,8.2087,8.2752,8.3524,8.4107,8.4845,8.4262,8.4223,8.4262,8.4141,8.3796,8.2903,8.2087,8.1387,8.0533,7.9639,7.8979,7.8785,7.9488,7.9216,7.9367,7.9566,7.8673,7.828,7.7498,7.6721,7.6682,7.6644,7.6298,7.5677,7.5521,7.4783,7.4434,7.4973,7.4939,7.49,7.4977,7.5172,7.4822,7.4511,7.4239,7.3967,7.4045,7.4123,7.4162,7.4162,7.4162,7.4123,7.3769,7.3419,7.319,7.2957,7.2802,7.2685,7.2608,7.253,7.2297,7.1908,7.1753,7.1986,7.1908,7.152,7.1481,7.1403,7.1365,7.1524,7.1563,7.152,7.1606,7.1595,7.1625,7.1612,7.1647,7.165,7.1702,7.1757,7.1863,7.1914,7.1941,7.1964,7.1987,7.1987,7.1987,7.2026,7.2104,7.2104,7.2065,7.1987,7.1987,7.422,7.4738,7.5478,7.566,7.5412,7.4736,7.4813,7.548,7.5514,7.5489,7.5518,7.5544,7.6373,7.7501,7.8231,7.9372,8.0551,8.1318,8.1695,8.1892,8.1892,8.1892,8.1892,8.1892,8.1892,8.1892,8.197,8.2126,8.2553,8.3563,8.4845,8.5622,8.535,8.5039,8.4728,8.4724,8.4612,8.4651,8.3951,8.3291,8.2514,8.1737,8.1077,8.1271,8.0844,8.0261,8.0844,8.0188,7.8634,7.859,7.8008,7.6993,7.6721,7.6682,7.6221,7.6104,7.6143,7.5711,7.5362,7.5711,7.5905,7.6026,7.6221,7.6294,7.5867,7.5439,7.509,7.4973,7.509,7.5055,7.5094,7.5094,7.5094,7.4939,7.4667,7.4395,7.42,7.3851,7.354,7.3424,7.3307,7.3229,7.3268,7.2957,7.2724,7.2763,7.2647,7.2219,7.2103,7.2103,7.1831,7.1874,7.1951,7.1929,7.1637,7.1626,7.1667,7.1698,7.1778,7.1748,7.1757,7.1858,7.1913,7.1942,7.1965,7.1999,7.1987,7.2026,7.2143,7.2378,7.2378,7.23,7.226,7.2378,7.2104,7.402,7.4025,7.5095,7.5561,7.548,7.528,7.528,7.5497,7.566,7.5619,7.554,7.5712,7.6346,7.7476,7.8447,7.9532,8.054,8.1447,8.1762,8.1883,8.1892,8.1892,8.1892,8.1892,8.1931,8.1892,8.197,8.2363,8.3213,8.4379,8.5039,8.4845,8.4962,8.5078,8.5272,8.5311,8.5583,8.5938,8.5782,8.4656,8.333,8.2907,8.2441,8.2359,8.1854,8.2208,8.2441,8.1737,8.0688,8.0183,7.859,7.7503,7.676,7.6721,7.6605,7.6493,7.657,7.6294,7.6216,7.6333,7.641,7.6488,7.6566,7.6644,7.6527,7.6255,7.61,7.6061,7.6022,7.5983,7.5949,7.5949,7.591,7.5716,7.556,7.5366,7.5172,7.4783,7.4356,7.42,7.4084,7.4084,7.4162,7.4006,7.3812,7.3773,7.3812,7.3618,7.354,7.3424,7.2647,7.2573,7.2577,7.2489,7.2136,7.2031,7.2194,7.2121,7.2115,7.2028,7.1972,7.2226,7.2531,7.2126,7.199,7.23,7.2417,7.2104,7.226,7.2729,7.3002,7.3041,7.3393,7.3627,7.2924,7.3979,7.371,7.4533,7.5165,7.5395,7.5089,7.5119,7.5523,7.5716,7.5748,7.566,7.5933,7.6597,7.7634,7.8655,7.9758,8.0722,8.1553,8.183,8.1888,8.1892,8.1892,8.1892,8.1931,8.2281,8.232,8.2514,8.3024,8.3995,8.4456,8.4801,8.4845,8.5117,8.5428,8.5816,8.601,8.6443,8.6948,8.6987,8.5938,8.4267,8.4112,8.4384,8.4185,8.3913,8.4189,8.3956,8.3252,8.1776,8.0455,7.8746,7.742,7.676,7.6682,7.6682,7.6644,7.6682,7.6682,7.6682,7.6682,7.6721,7.676,7.6721,7.6721,7.7382,7.711,7.676,7.6721,7.6449,7.6372,7.6372,7.6372,7.6372,7.6259,7.6182,7.6104,7.5988,7.5828,7.5634,7.5556,7.5366,7.5133,7.4977,7.4395,7.4317,7.455,7.4628,7.4317,7.4356,7.4636,7.3898,7.343,7.3577,7.3497,7.3295,7.311,7.302,7.2854,7.2643,7.3006,7.3242,7.316,7.3107,7.2975,7.2963,7.3236,7.3197,7.2885,7.308,7.3705,7.3861,7.39,7.4369,7.472,7.4095,7.3902,7.3793,7.4218,7.4813,7.5356,7.4736,7.4813,7.5455,7.5748,7.5871,7.5908,7.6101,7.7138,7.8123,7.8954,8.0134,8.1071,8.1611,8.1849,8.1892,8.1892,8.1892,8.1892,8.1931,8.2359,8.2941,8.3408,8.3951,8.469,8.4767,8.4845,8.5428,8.5777,8.6127,8.5972,8.6282,8.6753,8.6948,8.6909,8.6598,8.6088,8.5738,8.5855,8.5816,8.5661,8.5544,8.5433,8.4578,8.2669,8.0688,7.894,7.7498,7.6954,7.6877,7.6799,7.6799,7.6682,7.6682,7.6682,7.6682,7.6799,7.6877,7.6838,7.7226,7.7891,7.8008,7.7658,7.7304,7.7071,7.6799,7.6799,7.6682,7.6682,7.6682,7.6644,7.6644,7.6605,7.6605,7.6566,7.6566,7.6333,7.6026,7.5638,7.5016,7.5055,7.5293,7.5215,7.4822,7.471,7.5232,7.5162,7.4909,7.491,7.4784,7.4309,7.4112,7.3851,7.371,7.3592,7.4128,7.4388,7.4037,7.3918,7.4144,7.4212,7.4134,7.4134,7.3978,7.429,7.4642,7.4681,7.4798,7.5266,7.5501,7.5227,7.3708,7.4609,7.5077,7.5365,7.5442,7.5289,7.5356,7.5557,7.5885,7.6054,7.6147,7.6483,7.7121,7.792,7.8868,7.9893,8.0844,8.1533,8.1849,8.1892,8.1892,8.1892,8.2048,8.2281,8.2475,8.3252,8.4107,8.4534,8.4923,8.4612,8.3874,8.3291,8.3757,8.434,8.5,8.5583,8.6482,8.6792,8.6948,8.6715,8.6438,8.6088,8.5777,8.5738,8.57,8.6132,8.6248,8.5666,8.3913,8.1737,7.9445,7.7813,7.727,7.7347,7.7265,7.7032,7.6877,7.676,7.6799,7.6998,7.7192,7.7541,7.7697,7.8124,7.8668,7.9057,7.8629,7.8159,7.7809,7.7304,7.7149,7.6799,7.6682,7.6682,7.6682,7.6682,7.6644,7.6644,7.6644,7.6644,7.6566,7.6454,7.6376,7.6065,7.6065,7.6182,7.6182,7.5871,7.5759,7.6091,7.6318,7.6213,7.6079,7.5382,7.4667,7.4752,7.4609,7.4481,7.4464,7.4812,7.4885,7.4529,7.4525,7.4993,7.4876,7.4642,7.4681,7.5032,7.5268,7.558,7.5541,7.5697,7.6166,7.6281,7.6047]}]]